<?xml version="1.0" encoding="UTF-8" standalone="no" ?>
<gpx xmlns="http://www.topografix.com/GPX/1/1" xmlns:xsi="http://www.w3.org/2001/XMLSchema-instance" xsi:schemaLocation="http://www.topografix.com/GPX/1/1 http://www.topografix.com/GPX/1/1/gpx.xsd" version="1.1" creator="VisuGPX - https://www.visugpx.com">
  <metadata>
    <name>Cahuzac sur Ve?re - Mauriac 2020-02-05</name>
    <desc><![CDATA[
]]></desc>
  </metadata>
  <trk>
    <name><![CDATA[Cahuzac sur Vère - Mauriac 2020-02-05]]></name>
    <extensions>
      <line xmlns="http://www.topografix.com/GPX/gpx_style/0/2">
        <width>4</width>
      </line>
    </extensions>
    <trkseg>
      <trkpt lat="43.98257" lon="1.91091">
        <ele>207.4</ele>
        <time>2020-02-05T09:18:04.000Z</time>
      </trkpt>
      <trkpt lat="43.98267" lon="1.91081">
        <ele>133</ele>
        <time>2020-02-05T09:18:08.000Z</time>
      </trkpt>
      <trkpt lat="43.98274" lon="1.91056">
        <ele>207.8</ele>
        <time>2020-02-05T09:18:18.000Z</time>
      </trkpt>
      <trkpt lat="43.98282" lon="1.91054">
        <ele>207.5</ele>
        <time>2020-02-05T09:18:25.000Z</time>
      </trkpt>
      <trkpt lat="43.98295" lon="1.9105">
        <ele>207</ele>
        <time>2020-02-05T09:18:34.000Z</time>
      </trkpt>
      <trkpt lat="43.98292" lon="1.91024">
        <ele>206.8</ele>
        <time>2020-02-05T09:18:42.000Z</time>
      </trkpt>
      <trkpt lat="43.98295" lon="1.91005">
        <ele>206.3</ele>
        <time>2020-02-05T09:18:50.000Z</time>
      </trkpt>
      <trkpt lat="43.98307" lon="1.90995">
        <ele>205.1</ele>
        <time>2020-02-05T09:18:58.000Z</time>
      </trkpt>
      <trkpt lat="43.98317" lon="1.90987">
        <ele>203.8</ele>
        <time>2020-02-05T09:19:07.000Z</time>
      </trkpt>
      <trkpt lat="43.98329" lon="1.90974">
        <ele>202.2</ele>
        <time>2020-02-05T09:19:16.000Z</time>
      </trkpt>
      <trkpt lat="43.98336" lon="1.90961">
        <ele>200.8</ele>
        <time>2020-02-05T09:19:23.000Z</time>
      </trkpt>
      <trkpt lat="43.98337" lon="1.90947">
        <ele>200.1</ele>
        <time>2020-02-05T09:19:33.000Z</time>
      </trkpt>
      <trkpt lat="43.98333" lon="1.90931">
        <ele>199.7</ele>
        <time>2020-02-05T09:19:41.000Z</time>
      </trkpt>
      <trkpt lat="43.98325" lon="1.90913">
        <ele>199.9</ele>
        <time>2020-02-05T09:19:50.000Z</time>
      </trkpt>
      <trkpt lat="43.98316" lon="1.90897">
        <ele>200</ele>
        <time>2020-02-05T09:19:59.000Z</time>
      </trkpt>
      <trkpt lat="43.98308" lon="1.9088">
        <ele>200</ele>
        <time>2020-02-05T09:20:08.000Z</time>
      </trkpt>
      <trkpt lat="43.98297" lon="1.90864">
        <ele>200.3</ele>
        <time>2020-02-05T09:20:15.000Z</time>
      </trkpt>
      <trkpt lat="43.98291" lon="1.90854">
        <ele>200.6</ele>
        <time>2020-02-05T09:20:22.000Z</time>
      </trkpt>
      <trkpt lat="43.98278" lon="1.90836">
        <ele>201</ele>
        <time>2020-02-05T09:20:31.000Z</time>
      </trkpt>
      <trkpt lat="43.9827" lon="1.9082">
        <ele>201.4</ele>
        <time>2020-02-05T09:20:38.000Z</time>
      </trkpt>
      <trkpt lat="43.98262" lon="1.90801">
        <ele>201.5</ele>
        <time>2020-02-05T09:20:45.000Z</time>
      </trkpt>
      <trkpt lat="43.98255" lon="1.90786">
        <ele>201.6</ele>
        <time>2020-02-05T09:20:54.000Z</time>
      </trkpt>
      <trkpt lat="43.98249" lon="1.90768">
        <ele>201.2</ele>
        <time>2020-02-05T09:21:09.000Z</time>
      </trkpt>
      <trkpt lat="43.98242" lon="1.90755">
        <ele>201.8</ele>
        <time>2020-02-05T09:21:18.000Z</time>
      </trkpt>
      <trkpt lat="43.98232" lon="1.90741">
        <ele>119.9</ele>
        <time>2020-02-05T09:21:27.000Z</time>
      </trkpt>
      <trkpt lat="43.98225" lon="1.90727">
        <ele>120.4</ele>
        <time>2020-02-05T09:21:38.000Z</time>
      </trkpt>
      <trkpt lat="43.98214" lon="1.90713">
        <ele>204.5</ele>
        <time>2020-02-05T09:21:49.000Z</time>
      </trkpt>
      <trkpt lat="43.98206" lon="1.90699">
        <ele>205.4</ele>
        <time>2020-02-05T09:21:59.000Z</time>
      </trkpt>
      <trkpt lat="43.98199" lon="1.90684">
        <ele>206.2</ele>
        <time>2020-02-05T09:22:08.000Z</time>
      </trkpt>
      <trkpt lat="43.98193" lon="1.90671">
        <ele>206.9</ele>
        <time>2020-02-05T09:22:16.000Z</time>
      </trkpt>
      <trkpt lat="43.98187" lon="1.90652">
        <ele>121.4</ele>
        <time>2020-02-05T09:22:23.000Z</time>
      </trkpt>
      <trkpt lat="43.98182" lon="1.90638">
        <ele>121.6</ele>
        <time>2020-02-05T09:22:30.000Z</time>
      </trkpt>
      <trkpt lat="43.98174" lon="1.90622">
        <ele>211</ele>
        <time>2020-02-05T09:22:37.000Z</time>
      </trkpt>
      <trkpt lat="43.98168" lon="1.90599">
        <ele>212.5</ele>
        <time>2020-02-05T09:22:44.000Z</time>
      </trkpt>
      <trkpt lat="43.98163" lon="1.90586">
        <ele>213.4</ele>
        <time>2020-02-05T09:22:52.000Z</time>
      </trkpt>
      <trkpt lat="43.98157" lon="1.90567">
        <ele>214.7</ele>
        <time>2020-02-05T09:23:00.000Z</time>
      </trkpt>
      <trkpt lat="43.9815" lon="1.90543">
        <ele>216.5</ele>
        <time>2020-02-05T09:23:09.000Z</time>
      </trkpt>
      <trkpt lat="43.98145" lon="1.90521">
        <ele>217.8</ele>
        <time>2020-02-05T09:23:16.000Z</time>
      </trkpt>
      <trkpt lat="43.98136" lon="1.90486">
        <ele>123</ele>
        <time>2020-02-05T09:23:23.000Z</time>
      </trkpt>
      <trkpt lat="43.98131" lon="1.90474">
        <ele>123.3</ele>
        <time>2020-02-05T09:23:31.000Z</time>
      </trkpt>
      <trkpt lat="43.98126" lon="1.90463">
        <ele>123.4</ele>
        <time>2020-02-05T09:23:39.000Z</time>
      </trkpt>
      <trkpt lat="43.98121" lon="1.90452">
        <ele>123.5</ele>
        <time>2020-02-05T09:23:46.000Z</time>
      </trkpt>
      <trkpt lat="43.98117" lon="1.90441">
        <ele>123.7</ele>
        <time>2020-02-05T09:23:55.000Z</time>
      </trkpt>
      <trkpt lat="43.98114" lon="1.90428">
        <ele>123.6</ele>
        <time>2020-02-05T09:24:05.000Z</time>
      </trkpt>
      <trkpt lat="43.98111" lon="1.90416">
        <ele>123.8</ele>
        <time>2020-02-05T09:24:14.000Z</time>
      </trkpt>
      <trkpt lat="43.98107" lon="1.90404">
        <ele>123.9</ele>
        <time>2020-02-05T09:24:21.000Z</time>
      </trkpt>
      <trkpt lat="43.98103" lon="1.90392">
        <ele>124.2</ele>
        <time>2020-02-05T09:24:30.000Z</time>
      </trkpt>
      <trkpt lat="43.98099" lon="1.90379">
        <ele>124.5</ele>
        <time>2020-02-05T09:24:38.000Z</time>
      </trkpt>
      <trkpt lat="43.98097" lon="1.90366">
        <ele>124.6</ele>
        <time>2020-02-05T09:24:44.000Z</time>
      </trkpt>
      <trkpt lat="43.98093" lon="1.90354">
        <ele>124.9</ele>
        <time>2020-02-05T09:24:51.000Z</time>
      </trkpt>
      <trkpt lat="43.9809" lon="1.90342">
        <ele>125.3</ele>
        <time>2020-02-05T09:24:57.000Z</time>
      </trkpt>
      <trkpt lat="43.98088" lon="1.90329">
        <ele>125.7</ele>
        <time>2020-02-05T09:25:05.000Z</time>
      </trkpt>
      <trkpt lat="43.98083" lon="1.90319">
        <ele>126.1</ele>
        <time>2020-02-05T09:25:11.000Z</time>
      </trkpt>
      <trkpt lat="43.98078" lon="1.90306">
        <ele>126.5</ele>
        <time>2020-02-05T09:25:18.000Z</time>
      </trkpt>
      <trkpt lat="43.98072" lon="1.90296">
        <ele>127.1</ele>
        <time>2020-02-05T09:25:27.000Z</time>
      </trkpt>
      <trkpt lat="43.98063" lon="1.9029">
        <ele>127.6</ele>
        <time>2020-02-05T09:25:36.000Z</time>
      </trkpt>
      <trkpt lat="43.98055" lon="1.90284">
        <ele>127.7</ele>
        <time>2020-02-05T09:25:42.000Z</time>
      </trkpt>
      <trkpt lat="43.98047" lon="1.90276">
        <ele>127.9</ele>
        <time>2020-02-05T09:25:49.000Z</time>
      </trkpt>
      <trkpt lat="43.98039" lon="1.9027">
        <ele>128.1</ele>
        <time>2020-02-05T09:25:56.000Z</time>
      </trkpt>
      <trkpt lat="43.98032" lon="1.90261">
        <ele>128.4</ele>
        <time>2020-02-05T09:26:03.000Z</time>
      </trkpt>
      <trkpt lat="43.98025" lon="1.90251">
        <ele>128.8</ele>
        <time>2020-02-05T09:26:11.000Z</time>
      </trkpt>
      <trkpt lat="43.98016" lon="1.90246">
        <ele>129.3</ele>
        <time>2020-02-05T09:26:20.000Z</time>
      </trkpt>
      <trkpt lat="43.98008" lon="1.90241">
        <ele>129.4</ele>
        <time>2020-02-05T09:26:27.000Z</time>
      </trkpt>
      <trkpt lat="43.97999" lon="1.90237">
        <ele>129.6</ele>
        <time>2020-02-05T09:26:34.000Z</time>
      </trkpt>
      <trkpt lat="43.97991" lon="1.9023">
        <ele>130</ele>
        <time>2020-02-05T09:26:45.000Z</time>
      </trkpt>
      <trkpt lat="43.97982" lon="1.90226">
        <ele>129.8</ele>
        <time>2020-02-05T09:26:52.000Z</time>
      </trkpt>
      <trkpt lat="43.97973" lon="1.9022">
        <ele>129.8</ele>
        <time>2020-02-05T09:26:59.000Z</time>
      </trkpt>
      <trkpt lat="43.97965" lon="1.90214">
        <ele>130.1</ele>
        <time>2020-02-05T09:27:06.000Z</time>
      </trkpt>
      <trkpt lat="43.97956" lon="1.90207">
        <ele>130.2</ele>
        <time>2020-02-05T09:27:13.000Z</time>
      </trkpt>
      <trkpt lat="43.97947" lon="1.90202">
        <ele>130.5</ele>
        <time>2020-02-05T09:27:20.000Z</time>
      </trkpt>
      <trkpt lat="43.97938" lon="1.90196">
        <ele>130.9</ele>
        <time>2020-02-05T09:27:27.000Z</time>
      </trkpt>
      <trkpt lat="43.97929" lon="1.90188">
        <ele>131.3</ele>
        <time>2020-02-05T09:27:34.000Z</time>
      </trkpt>
      <trkpt lat="43.97921" lon="1.90182">
        <ele>131.7</ele>
        <time>2020-02-05T09:27:40.000Z</time>
      </trkpt>
      <trkpt lat="43.97914" lon="1.90173">
        <ele>132.1</ele>
        <time>2020-02-05T09:27:48.000Z</time>
      </trkpt>
      <trkpt lat="43.97906" lon="1.90166">
        <ele>132.3</ele>
        <time>2020-02-05T09:27:57.000Z</time>
      </trkpt>
      <trkpt lat="43.979" lon="1.90155">
        <ele>132.4</ele>
        <time>2020-02-05T09:28:08.000Z</time>
      </trkpt>
      <trkpt lat="43.97891" lon="1.90148">
        <ele>132.2</ele>
        <time>2020-02-05T09:28:18.000Z</time>
      </trkpt>
      <trkpt lat="43.97882" lon="1.90147">
        <ele>131.6</ele>
        <time>2020-02-05T09:28:27.000Z</time>
      </trkpt>
      <trkpt lat="43.97872" lon="1.90143">
        <ele>131.2</ele>
        <time>2020-02-05T09:28:33.000Z</time>
      </trkpt>
      <trkpt lat="43.97864" lon="1.90137">
        <ele>130.4</ele>
        <time>2020-02-05T09:28:45.000Z</time>
      </trkpt>
      <trkpt lat="43.97855" lon="1.90133">
        <ele>129.5</ele>
        <time>2020-02-05T09:28:53.000Z</time>
      </trkpt>
      <trkpt lat="43.97846" lon="1.90129">
        <ele>128.7</ele>
        <time>2020-02-05T09:28:59.000Z</time>
      </trkpt>
      <trkpt lat="43.97837" lon="1.90128">
        <ele>127.7</ele>
        <time>2020-02-05T09:29:06.000Z</time>
      </trkpt>
      <trkpt lat="43.97828" lon="1.90124">
        <ele>126.4</ele>
        <time>2020-02-05T09:29:17.000Z</time>
      </trkpt>
      <trkpt lat="43.97818" lon="1.90118">
        <ele>125.9</ele>
        <time>2020-02-05T09:29:25.000Z</time>
      </trkpt>
      <trkpt lat="43.97809" lon="1.90113">
        <ele>125.7</ele>
        <time>2020-02-05T09:29:31.000Z</time>
      </trkpt>
      <trkpt lat="43.97798" lon="1.90112">
        <ele>125.6</ele>
        <time>2020-02-05T09:29:34.000Z</time>
      </trkpt>
      <trkpt lat="43.97789" lon="1.90107">
        <ele>125.6</ele>
        <time>2020-02-05T09:29:41.000Z</time>
      </trkpt>
      <trkpt lat="43.97787" lon="1.90095">
        <ele>125.7</ele>
        <time>2020-02-05T09:29:51.000Z</time>
      </trkpt>
      <trkpt lat="43.97787" lon="1.90081">
        <ele>125.9</ele>
        <time>2020-02-05T09:29:58.000Z</time>
      </trkpt>
      <trkpt lat="43.97789" lon="1.90067">
        <ele>126.2</ele>
        <time>2020-02-05T09:30:06.000Z</time>
      </trkpt>
      <trkpt lat="43.97795" lon="1.90056">
        <ele>127.7</ele>
        <time>2020-02-05T09:30:35.000Z</time>
      </trkpt>
      <trkpt lat="43.97803" lon="1.90047">
        <ele>128.3</ele>
        <time>2020-02-05T09:30:43.000Z</time>
      </trkpt>
      <trkpt lat="43.97799" lon="1.90033">
        <ele>128.8</ele>
        <time>2020-02-05T09:30:51.000Z</time>
      </trkpt>
      <trkpt lat="43.97798" lon="1.90021">
        <ele>129.3</ele>
        <time>2020-02-05T09:30:58.000Z</time>
      </trkpt>
      <trkpt lat="43.97795" lon="1.90007">
        <ele>129.8</ele>
        <time>2020-02-05T09:31:05.000Z</time>
      </trkpt>
      <trkpt lat="43.9779" lon="1.89996">
        <ele>130.7</ele>
        <time>2020-02-05T09:31:16.000Z</time>
      </trkpt>
      <trkpt lat="43.97787" lon="1.89984">
        <ele>131.8</ele>
        <time>2020-02-05T09:31:27.000Z</time>
      </trkpt>
      <trkpt lat="43.97781" lon="1.89974">
        <ele>132.8</ele>
        <time>2020-02-05T09:31:36.000Z</time>
      </trkpt>
      <trkpt lat="43.97776" lon="1.89963">
        <ele>133.4</ele>
        <time>2020-02-05T09:31:44.000Z</time>
      </trkpt>
      <trkpt lat="43.9777" lon="1.89953">
        <ele>134.1</ele>
        <time>2020-02-05T09:31:53.000Z</time>
      </trkpt>
      <trkpt lat="43.97765" lon="1.89942">
        <ele>134.8</ele>
        <time>2020-02-05T09:32:03.000Z</time>
      </trkpt>
      <trkpt lat="43.97759" lon="1.89931">
        <ele>135.5</ele>
        <time>2020-02-05T09:32:12.000Z</time>
      </trkpt>
      <trkpt lat="43.97754" lon="1.89919">
        <ele>136.4</ele>
        <time>2020-02-05T09:32:24.000Z</time>
      </trkpt>
      <trkpt lat="43.9775" lon="1.89908">
        <ele>137.1</ele>
        <time>2020-02-05T09:32:33.000Z</time>
      </trkpt>
      <trkpt lat="43.97745" lon="1.89897">
        <ele>138.1</ele>
        <time>2020-02-05T09:32:43.000Z</time>
      </trkpt>
      <trkpt lat="43.97742" lon="1.89884">
        <ele>138.8</ele>
        <time>2020-02-05T09:32:51.000Z</time>
      </trkpt>
      <trkpt lat="43.97738" lon="1.89871">
        <ele>140</ele>
        <time>2020-02-05T09:33:01.000Z</time>
      </trkpt>
      <trkpt lat="43.97731" lon="1.89861">
        <ele>140.8</ele>
        <time>2020-02-05T09:33:09.000Z</time>
      </trkpt>
      <trkpt lat="43.97725" lon="1.89852">
        <ele>141.7</ele>
        <time>2020-02-05T09:33:17.000Z</time>
      </trkpt>
      <trkpt lat="43.97717" lon="1.89845">
        <ele>142.3</ele>
        <time>2020-02-05T09:33:23.000Z</time>
      </trkpt>
      <trkpt lat="43.9771" lon="1.89836">
        <ele>143.1</ele>
        <time>2020-02-05T09:33:32.000Z</time>
      </trkpt>
      <trkpt lat="43.97704" lon="1.89826">
        <ele>143.8</ele>
        <time>2020-02-05T09:33:40.000Z</time>
      </trkpt>
      <trkpt lat="43.97698" lon="1.89817">
        <ele>144.4</ele>
        <time>2020-02-05T09:33:47.000Z</time>
      </trkpt>
      <trkpt lat="43.97691" lon="1.89807">
        <ele>145.1</ele>
        <time>2020-02-05T09:33:55.000Z</time>
      </trkpt>
      <trkpt lat="43.97683" lon="1.89801">
        <ele>145.8</ele>
        <time>2020-02-05T09:34:03.000Z</time>
      </trkpt>
      <trkpt lat="43.97677" lon="1.89791">
        <ele>148.6</ele>
        <time>2020-02-05T09:34:33.000Z</time>
      </trkpt>
      <trkpt lat="43.97671" lon="1.89781">
        <ele>149.6</ele>
        <time>2020-02-05T09:34:43.000Z</time>
      </trkpt>
      <trkpt lat="43.97664" lon="1.89773">
        <ele>151.6</ele>
        <time>2020-02-05T09:34:58.000Z</time>
      </trkpt>
      <trkpt lat="43.97655" lon="1.89769">
        <ele>153.2</ele>
        <time>2020-02-05T09:35:09.000Z</time>
      </trkpt>
      <trkpt lat="43.97647" lon="1.89761">
        <ele>154.9</ele>
        <time>2020-02-05T09:35:20.000Z</time>
      </trkpt>
      <trkpt lat="43.97641" lon="1.89751">
        <ele>156.2</ele>
        <time>2020-02-05T09:35:30.000Z</time>
      </trkpt>
      <trkpt lat="43.97634" lon="1.8974">
        <ele>157.5</ele>
        <time>2020-02-05T09:35:40.000Z</time>
      </trkpt>
      <trkpt lat="43.97627" lon="1.8973">
        <ele>159.2</ele>
        <time>2020-02-05T09:35:51.000Z</time>
      </trkpt>
      <trkpt lat="43.97622" lon="1.8972">
        <ele>160.8</ele>
        <time>2020-02-05T09:36:02.000Z</time>
      </trkpt>
      <trkpt lat="43.97616" lon="1.89708">
        <ele>162.3</ele>
        <time>2020-02-05T09:36:13.000Z</time>
      </trkpt>
      <trkpt lat="43.97609" lon="1.89698">
        <ele>163.6</ele>
        <time>2020-02-05T09:36:23.000Z</time>
      </trkpt>
      <trkpt lat="43.97605" lon="1.89686">
        <ele>165.2</ele>
        <time>2020-02-05T09:36:35.000Z</time>
      </trkpt>
      <trkpt lat="43.976" lon="1.89675">
        <ele>166.8</ele>
        <time>2020-02-05T09:36:45.000Z</time>
      </trkpt>
      <trkpt lat="43.97596" lon="1.89663">
        <ele>168</ele>
        <time>2020-02-05T09:36:54.000Z</time>
      </trkpt>
      <trkpt lat="43.97593" lon="1.89651">
        <ele>169.1</ele>
        <time>2020-02-05T09:37:05.000Z</time>
      </trkpt>
      <trkpt lat="43.97588" lon="1.89639">
        <ele>170.9</ele>
        <time>2020-02-05T09:37:17.000Z</time>
      </trkpt>
      <trkpt lat="43.97583" lon="1.89629">
        <ele>172</ele>
        <time>2020-02-05T09:37:25.000Z</time>
      </trkpt>
      <trkpt lat="43.97577" lon="1.89618">
        <ele>173</ele>
        <time>2020-02-05T09:37:34.000Z</time>
      </trkpt>
      <trkpt lat="43.9757" lon="1.89608">
        <ele>174.2</ele>
        <time>2020-02-05T09:37:45.000Z</time>
      </trkpt>
      <trkpt lat="43.97565" lon="1.89597">
        <ele>175.1</ele>
        <time>2020-02-05T09:37:53.000Z</time>
      </trkpt>
      <trkpt lat="43.97561" lon="1.89586">
        <ele>176</ele>
        <time>2020-02-05T09:38:02.000Z</time>
      </trkpt>
      <trkpt lat="43.97555" lon="1.89576">
        <ele>177</ele>
        <time>2020-02-05T09:38:11.000Z</time>
      </trkpt>
      <trkpt lat="43.97548" lon="1.89568">
        <ele>177.7</ele>
        <time>2020-02-05T09:38:19.000Z</time>
      </trkpt>
      <trkpt lat="43.97543" lon="1.89557">
        <ele>178.5</ele>
        <time>2020-02-05T09:38:29.000Z</time>
      </trkpt>
      <trkpt lat="43.97539" lon="1.89546">
        <ele>179.5</ele>
        <time>2020-02-05T09:38:41.000Z</time>
      </trkpt>
      <trkpt lat="43.97529" lon="1.89547">
        <ele>186.6</ele>
        <time>2020-02-05T09:40:54.000Z</time>
      </trkpt>
      <trkpt lat="43.97523" lon="1.89536">
        <ele>189.2</ele>
        <time>2020-02-05T09:41:20.000Z</time>
      </trkpt>
      <trkpt lat="43.97515" lon="1.89529">
        <ele>189.8</ele>
        <time>2020-02-05T09:41:28.000Z</time>
      </trkpt>
      <trkpt lat="43.97508" lon="1.89521">
        <ele>190.6</ele>
        <time>2020-02-05T09:41:38.000Z</time>
      </trkpt>
      <trkpt lat="43.975" lon="1.89513">
        <ele>191.4</ele>
        <time>2020-02-05T09:41:46.000Z</time>
      </trkpt>
      <trkpt lat="43.97492" lon="1.89506">
        <ele>192</ele>
        <time>2020-02-05T09:41:54.000Z</time>
      </trkpt>
      <trkpt lat="43.97483" lon="1.895">
        <ele>193.1</ele>
        <time>2020-02-05T09:42:03.000Z</time>
      </trkpt>
      <trkpt lat="43.97475" lon="1.89493">
        <ele>194.1</ele>
        <time>2020-02-05T09:42:12.000Z</time>
      </trkpt>
      <trkpt lat="43.97467" lon="1.89485">
        <ele>195.3</ele>
        <time>2020-02-05T09:42:20.000Z</time>
      </trkpt>
      <trkpt lat="43.97459" lon="1.89478">
        <ele>196.5</ele>
        <time>2020-02-05T09:42:29.000Z</time>
      </trkpt>
      <trkpt lat="43.9745" lon="1.89472">
        <ele>197.8</ele>
        <time>2020-02-05T09:42:38.000Z</time>
      </trkpt>
      <trkpt lat="43.97442" lon="1.89466">
        <ele>198.9</ele>
        <time>2020-02-05T09:42:45.000Z</time>
      </trkpt>
      <trkpt lat="43.97434" lon="1.8946">
        <ele>200.1</ele>
        <time>2020-02-05T09:42:53.000Z</time>
      </trkpt>
      <trkpt lat="43.97425" lon="1.89454">
        <ele>201.5</ele>
        <time>2020-02-05T09:43:01.000Z</time>
      </trkpt>
      <trkpt lat="43.97418" lon="1.89447">
        <ele>203.5</ele>
        <time>2020-02-05T09:43:12.000Z</time>
      </trkpt>
      <trkpt lat="43.97411" lon="1.89437">
        <ele>205.5</ele>
        <time>2020-02-05T09:43:25.000Z</time>
      </trkpt>
      <trkpt lat="43.97404" lon="1.89428">
        <ele>207.3</ele>
        <time>2020-02-05T09:43:36.000Z</time>
      </trkpt>
      <trkpt lat="43.97397" lon="1.89418">
        <ele>209</ele>
        <time>2020-02-05T09:43:46.000Z</time>
      </trkpt>
      <trkpt lat="43.97388" lon="1.8941">
        <ele>210.5</ele>
        <time>2020-02-05T09:43:55.000Z</time>
      </trkpt>
      <trkpt lat="43.97382" lon="1.89401">
        <ele>212.6</ele>
        <time>2020-02-05T09:44:06.000Z</time>
      </trkpt>
      <trkpt lat="43.97374" lon="1.89394">
        <ele>214.6</ele>
        <time>2020-02-05T09:44:16.000Z</time>
      </trkpt>
      <trkpt lat="43.97364" lon="1.89385">
        <ele>218.2</ele>
        <time>2020-02-05T09:44:38.000Z</time>
      </trkpt>
      <trkpt lat="43.97356" lon="1.89376">
        <ele>225.8</ele>
        <time>2020-02-05T09:46:37.000Z</time>
      </trkpt>
      <trkpt lat="43.97347" lon="1.8937">
        <ele>226.1</ele>
        <time>2020-02-05T09:46:44.000Z</time>
      </trkpt>
      <trkpt lat="43.9734" lon="1.89363">
        <ele>226.6</ele>
        <time>2020-02-05T09:46:53.000Z</time>
      </trkpt>
      <trkpt lat="43.97332" lon="1.89354">
        <ele>227.1</ele>
        <time>2020-02-05T09:47:01.000Z</time>
      </trkpt>
      <trkpt lat="43.97325" lon="1.89346">
        <ele>227.8</ele>
        <time>2020-02-05T09:47:09.000Z</time>
      </trkpt>
      <trkpt lat="43.9732" lon="1.89335">
        <ele>228.7</ele>
        <time>2020-02-05T09:47:19.000Z</time>
      </trkpt>
      <trkpt lat="43.97315" lon="1.89324">
        <ele>229.4</ele>
        <time>2020-02-05T09:47:27.000Z</time>
      </trkpt>
      <trkpt lat="43.97313" lon="1.89311">
        <ele>230</ele>
        <time>2020-02-05T09:47:36.000Z</time>
      </trkpt>
      <trkpt lat="43.97313" lon="1.89298">
        <ele>230.4</ele>
        <time>2020-02-05T09:47:46.000Z</time>
      </trkpt>
      <trkpt lat="43.97315" lon="1.89285">
        <ele>230.9</ele>
        <time>2020-02-05T09:47:57.000Z</time>
      </trkpt>
      <trkpt lat="43.97314" lon="1.89272">
        <ele>230.9</ele>
        <time>2020-02-05T09:48:09.000Z</time>
      </trkpt>
      <trkpt lat="43.97314" lon="1.89259">
        <ele>230.8</ele>
        <time>2020-02-05T09:48:18.000Z</time>
      </trkpt>
      <trkpt lat="43.97313" lon="1.89246">
        <ele>230.9</ele>
        <time>2020-02-05T09:48:27.000Z</time>
      </trkpt>
      <trkpt lat="43.97311" lon="1.89233">
        <ele>230.9</ele>
        <time>2020-02-05T09:48:39.000Z</time>
      </trkpt>
      <trkpt lat="43.97311" lon="1.89221">
        <ele>230.7</ele>
        <time>2020-02-05T09:48:50.000Z</time>
      </trkpt>
      <trkpt lat="43.97311" lon="1.89207">
        <ele>230.6</ele>
        <time>2020-02-05T09:49:00.000Z</time>
      </trkpt>
      <trkpt lat="43.9731" lon="1.89195">
        <ele>230.7</ele>
        <time>2020-02-05T09:49:08.000Z</time>
      </trkpt>
      <trkpt lat="43.9731" lon="1.89182">
        <ele>230.7</ele>
        <time>2020-02-05T09:49:16.000Z</time>
      </trkpt>
      <trkpt lat="43.97309" lon="1.89168">
        <ele>230.6</ele>
        <time>2020-02-05T09:49:23.000Z</time>
      </trkpt>
      <trkpt lat="43.97307" lon="1.89154">
        <ele>230.6</ele>
        <time>2020-02-05T09:49:32.000Z</time>
      </trkpt>
      <trkpt lat="43.97305" lon="1.89142">
        <ele>230.9</ele>
        <time>2020-02-05T09:49:44.000Z</time>
      </trkpt>
      <trkpt lat="43.973" lon="1.89129">
        <ele>231.1</ele>
        <time>2020-02-05T09:49:52.000Z</time>
      </trkpt>
      <trkpt lat="43.97295" lon="1.89118">
        <ele>231.2</ele>
        <time>2020-02-05T09:50:02.000Z</time>
      </trkpt>
      <trkpt lat="43.9729" lon="1.89107">
        <ele>231.3</ele>
        <time>2020-02-05T09:50:11.000Z</time>
      </trkpt>
      <trkpt lat="43.97285" lon="1.89096">
        <ele>231.3</ele>
        <time>2020-02-05T09:50:19.000Z</time>
      </trkpt>
      <trkpt lat="43.97281" lon="1.89084">
        <ele>231.3</ele>
        <time>2020-02-05T09:50:27.000Z</time>
      </trkpt>
      <trkpt lat="43.97277" lon="1.89071">
        <ele>231.1</ele>
        <time>2020-02-05T09:50:35.000Z</time>
      </trkpt>
      <trkpt lat="43.97273" lon="1.89058">
        <ele>230.9</ele>
        <time>2020-02-05T09:50:44.000Z</time>
      </trkpt>
      <trkpt lat="43.97267" lon="1.89049">
        <ele>230.6</ele>
        <time>2020-02-05T09:50:54.000Z</time>
      </trkpt>
      <trkpt lat="43.97267" lon="1.89035">
        <ele>230.2</ele>
        <time>2020-02-05T09:51:02.000Z</time>
      </trkpt>
      <trkpt lat="43.97266" lon="1.89022">
        <ele>230</ele>
        <time>2020-02-05T09:51:11.000Z</time>
      </trkpt>
      <trkpt lat="43.97262" lon="1.89011">
        <ele>230.1</ele>
        <time>2020-02-05T09:51:20.000Z</time>
      </trkpt>
      <trkpt lat="43.97258" lon="1.88999">
        <ele>229.9</ele>
        <time>2020-02-05T09:51:30.000Z</time>
      </trkpt>
      <trkpt lat="43.97256" lon="1.88987">
        <ele>229.9</ele>
        <time>2020-02-05T09:51:38.000Z</time>
      </trkpt>
      <trkpt lat="43.97254" lon="1.88974">
        <ele>230.1</ele>
        <time>2020-02-05T09:51:47.000Z</time>
      </trkpt>
      <trkpt lat="43.97251" lon="1.88961">
        <ele>230.1</ele>
        <time>2020-02-05T09:51:56.000Z</time>
      </trkpt>
      <trkpt lat="43.97249" lon="1.88948">
        <ele>230.1</ele>
        <time>2020-02-05T09:52:05.000Z</time>
      </trkpt>
      <trkpt lat="43.97247" lon="1.88935">
        <ele>229.9</ele>
        <time>2020-02-05T09:52:13.000Z</time>
      </trkpt>
      <trkpt lat="43.97246" lon="1.88922">
        <ele>229.5</ele>
        <time>2020-02-05T09:52:21.000Z</time>
      </trkpt>
      <trkpt lat="43.97244" lon="1.88909">
        <ele>229.6</ele>
        <time>2020-02-05T09:52:29.000Z</time>
      </trkpt>
      <trkpt lat="43.97243" lon="1.88896">
        <ele>229.1</ele>
        <time>2020-02-05T09:52:41.000Z</time>
      </trkpt>
      <trkpt lat="43.9724" lon="1.88883">
        <ele>228.7</ele>
        <time>2020-02-05T09:52:52.000Z</time>
      </trkpt>
      <trkpt lat="43.97237" lon="1.8887">
        <ele>228.4</ele>
        <time>2020-02-05T09:53:00.000Z</time>
      </trkpt>
      <trkpt lat="43.97235" lon="1.88858">
        <ele>228.1</ele>
        <time>2020-02-05T09:53:10.000Z</time>
      </trkpt>
      <trkpt lat="43.97231" lon="1.88845">
        <ele>227.3</ele>
        <time>2020-02-05T09:53:19.000Z</time>
      </trkpt>
      <trkpt lat="43.97228" lon="1.88834">
        <ele>226.8</ele>
        <time>2020-02-05T09:53:27.000Z</time>
      </trkpt>
      <trkpt lat="43.97225" lon="1.88821">
        <ele>226.5</ele>
        <time>2020-02-05T09:53:37.000Z</time>
      </trkpt>
      <trkpt lat="43.97223" lon="1.88807">
        <ele>226.3</ele>
        <time>2020-02-05T09:53:45.000Z</time>
      </trkpt>
      <trkpt lat="43.9722" lon="1.88796">
        <ele>225.9</ele>
        <time>2020-02-05T09:53:53.000Z</time>
      </trkpt>
      <trkpt lat="43.97215" lon="1.88784">
        <ele>225.7</ele>
        <time>2020-02-05T09:54:01.000Z</time>
      </trkpt>
      <trkpt lat="43.97212" lon="1.88772">
        <ele>225.4</ele>
        <time>2020-02-05T09:54:09.000Z</time>
      </trkpt>
      <trkpt lat="43.97209" lon="1.88759">
        <ele>225.2</ele>
        <time>2020-02-05T09:54:17.000Z</time>
      </trkpt>
      <trkpt lat="43.97205" lon="1.88746">
        <ele>224.9</ele>
        <time>2020-02-05T09:54:26.000Z</time>
      </trkpt>
      <trkpt lat="43.97202" lon="1.88733">
        <ele>224.6</ele>
        <time>2020-02-05T09:54:35.000Z</time>
      </trkpt>
      <trkpt lat="43.97196" lon="1.88722">
        <ele>224.7</ele>
        <time>2020-02-05T09:54:42.000Z</time>
      </trkpt>
      <trkpt lat="43.9719" lon="1.88712">
        <ele>224.8</ele>
        <time>2020-02-05T09:54:50.000Z</time>
      </trkpt>
      <trkpt lat="43.97185" lon="1.88701">
        <ele>224.5</ele>
        <time>2020-02-05T09:54:58.000Z</time>
      </trkpt>
      <trkpt lat="43.9718" lon="1.8869">
        <ele>224.6</ele>
        <time>2020-02-05T09:55:05.000Z</time>
      </trkpt>
      <trkpt lat="43.97175" lon="1.88679">
        <ele>224.6</ele>
        <time>2020-02-05T09:55:12.000Z</time>
      </trkpt>
      <trkpt lat="43.97174" lon="1.88666">
        <ele>224.5</ele>
        <time>2020-02-05T09:55:20.000Z</time>
      </trkpt>
      <trkpt lat="43.97174" lon="1.88652">
        <ele>224.4</ele>
        <time>2020-02-05T09:55:29.000Z</time>
      </trkpt>
      <trkpt lat="43.97175" lon="1.88639">
        <ele>224.4</ele>
        <time>2020-02-05T09:55:38.000Z</time>
      </trkpt>
      <trkpt lat="43.97176" lon="1.88625">
        <ele>224.4</ele>
        <time>2020-02-05T09:55:47.000Z</time>
      </trkpt>
      <trkpt lat="43.97176" lon="1.88612">
        <ele>224.2</ele>
        <time>2020-02-05T09:55:57.000Z</time>
      </trkpt>
      <trkpt lat="43.97177" lon="1.88599">
        <ele>224.1</ele>
        <time>2020-02-05T09:56:06.000Z</time>
      </trkpt>
      <trkpt lat="43.97176" lon="1.88585">
        <ele>224.1</ele>
        <time>2020-02-05T09:56:14.000Z</time>
      </trkpt>
      <trkpt lat="43.97174" lon="1.88572">
        <ele>223.9</ele>
        <time>2020-02-05T09:56:24.000Z</time>
      </trkpt>
      <trkpt lat="43.97175" lon="1.88559">
        <ele>223.8</ele>
        <time>2020-02-05T09:56:33.000Z</time>
      </trkpt>
      <trkpt lat="43.97175" lon="1.88543">
        <ele>223.8</ele>
        <time>2020-02-05T09:56:42.000Z</time>
      </trkpt>
      <trkpt lat="43.97173" lon="1.8853">
        <ele>223.9</ele>
        <time>2020-02-05T09:56:50.000Z</time>
      </trkpt>
      <trkpt lat="43.97173" lon="1.88516">
        <ele>223.9</ele>
        <time>2020-02-05T09:56:59.000Z</time>
      </trkpt>
      <trkpt lat="43.97173" lon="1.88503">
        <ele>223.7</ele>
        <time>2020-02-05T09:57:09.000Z</time>
      </trkpt>
      <trkpt lat="43.97172" lon="1.88489">
        <ele>223.8</ele>
        <time>2020-02-05T09:57:19.000Z</time>
      </trkpt>
      <trkpt lat="43.97171" lon="1.88476">
        <ele>223.8</ele>
        <time>2020-02-05T09:57:28.000Z</time>
      </trkpt>
      <trkpt lat="43.97168" lon="1.88464">
        <ele>223.9</ele>
        <time>2020-02-05T09:57:37.000Z</time>
      </trkpt>
      <trkpt lat="43.97164" lon="1.88451">
        <ele>224</ele>
        <time>2020-02-05T09:57:46.000Z</time>
      </trkpt>
      <trkpt lat="43.97163" lon="1.88438">
        <ele>224</ele>
        <time>2020-02-05T09:57:53.000Z</time>
      </trkpt>
      <trkpt lat="43.97154" lon="1.88433">
        <ele>224.1</ele>
        <time>2020-02-05T09:58:02.000Z</time>
      </trkpt>
      <trkpt lat="43.97146" lon="1.88438">
        <ele>224.2</ele>
        <time>2020-02-05T09:58:09.000Z</time>
      </trkpt>
      <trkpt lat="43.97136" lon="1.88441">
        <ele>224.3</ele>
        <time>2020-02-05T09:58:18.000Z</time>
      </trkpt>
      <trkpt lat="43.97127" lon="1.88445">
        <ele>224.4</ele>
        <time>2020-02-05T09:58:25.000Z</time>
      </trkpt>
      <trkpt lat="43.97118" lon="1.88448">
        <ele>224.6</ele>
        <time>2020-02-05T09:58:32.000Z</time>
      </trkpt>
      <trkpt lat="43.97109" lon="1.88451">
        <ele>224.7</ele>
        <time>2020-02-05T09:58:39.000Z</time>
      </trkpt>
      <trkpt lat="43.971" lon="1.88455">
        <ele>224.8</ele>
        <time>2020-02-05T09:58:46.000Z</time>
      </trkpt>
      <trkpt lat="43.97091" lon="1.88459">
        <ele>224.7</ele>
        <time>2020-02-05T09:58:54.000Z</time>
      </trkpt>
      <trkpt lat="43.97082" lon="1.88461">
        <ele>224.7</ele>
        <time>2020-02-05T09:59:02.000Z</time>
      </trkpt>
      <trkpt lat="43.97073" lon="1.88464">
        <ele>224.9</ele>
        <time>2020-02-05T09:59:10.000Z</time>
      </trkpt>
      <trkpt lat="43.97064" lon="1.88467">
        <ele>225.1</ele>
        <time>2020-02-05T09:59:18.000Z</time>
      </trkpt>
      <trkpt lat="43.97055" lon="1.88469">
        <ele>225.1</ele>
        <time>2020-02-05T09:59:29.000Z</time>
      </trkpt>
      <trkpt lat="43.97045" lon="1.88471">
        <ele>225.3</ele>
        <time>2020-02-05T09:59:39.000Z</time>
      </trkpt>
      <trkpt lat="43.97036" lon="1.88474">
        <ele>226.1</ele>
        <time>2020-02-05T09:59:48.000Z</time>
      </trkpt>
      <trkpt lat="43.97025" lon="1.88476">
        <ele>226.1</ele>
        <time>2020-02-05T09:59:57.000Z</time>
      </trkpt>
      <trkpt lat="43.97016" lon="1.88478">
        <ele>226.2</ele>
        <time>2020-02-05T10:00:05.000Z</time>
      </trkpt>
      <trkpt lat="43.97007" lon="1.88481">
        <ele>226.4</ele>
        <time>2020-02-05T10:00:13.000Z</time>
      </trkpt>
      <trkpt lat="43.96997" lon="1.88484">
        <ele>226.7</ele>
        <time>2020-02-05T10:00:21.000Z</time>
      </trkpt>
      <trkpt lat="43.96988" lon="1.88485">
        <ele>226.9</ele>
        <time>2020-02-05T10:00:29.000Z</time>
      </trkpt>
      <trkpt lat="43.96979" lon="1.88486">
        <ele>227.2</ele>
        <time>2020-02-05T10:00:39.000Z</time>
      </trkpt>
      <trkpt lat="43.96969" lon="1.88489">
        <ele>227.2</ele>
        <time>2020-02-05T10:00:47.000Z</time>
      </trkpt>
      <trkpt lat="43.96959" lon="1.88493">
        <ele>227.4</ele>
        <time>2020-02-05T10:00:55.000Z</time>
      </trkpt>
      <trkpt lat="43.9695" lon="1.88495">
        <ele>227.5</ele>
        <time>2020-02-05T10:01:01.000Z</time>
      </trkpt>
      <trkpt lat="43.96941" lon="1.88498">
        <ele>227.7</ele>
        <time>2020-02-05T10:01:10.000Z</time>
      </trkpt>
      <trkpt lat="43.96932" lon="1.88501">
        <ele>227.9</ele>
        <time>2020-02-05T10:01:18.000Z</time>
      </trkpt>
      <trkpt lat="43.96922" lon="1.88505">
        <ele>228.3</ele>
        <time>2020-02-05T10:01:26.000Z</time>
      </trkpt>
      <trkpt lat="43.96913" lon="1.88509">
        <ele>228.5</ele>
        <time>2020-02-05T10:01:35.000Z</time>
      </trkpt>
      <trkpt lat="43.96904" lon="1.88512">
        <ele>228.9</ele>
        <time>2020-02-05T10:01:44.000Z</time>
      </trkpt>
      <trkpt lat="43.96894" lon="1.88515">
        <ele>229.2</ele>
        <time>2020-02-05T10:01:53.000Z</time>
      </trkpt>
      <trkpt lat="43.96885" lon="1.88517">
        <ele>229.7</ele>
        <time>2020-02-05T10:02:01.000Z</time>
      </trkpt>
      <trkpt lat="43.96876" lon="1.88519">
        <ele>230.3</ele>
        <time>2020-02-05T10:02:13.000Z</time>
      </trkpt>
      <trkpt lat="43.96866" lon="1.88518">
        <ele>230.7</ele>
        <time>2020-02-05T10:02:23.000Z</time>
      </trkpt>
      <trkpt lat="43.96857" lon="1.88518">
        <ele>230.8</ele>
        <time>2020-02-05T10:02:33.000Z</time>
      </trkpt>
      <trkpt lat="43.96848" lon="1.88513">
        <ele>231.2</ele>
        <time>2020-02-05T10:02:48.000Z</time>
      </trkpt>
      <trkpt lat="43.96838" lon="1.88513">
        <ele>231.2</ele>
        <time>2020-02-05T10:03:01.000Z</time>
      </trkpt>
      <trkpt lat="43.96829" lon="1.88516">
        <ele>231.9</ele>
        <time>2020-02-05T10:03:12.000Z</time>
      </trkpt>
      <trkpt lat="43.9682" lon="1.88521">
        <ele>232.5</ele>
        <time>2020-02-05T10:03:22.000Z</time>
      </trkpt>
      <trkpt lat="43.96812" lon="1.88527">
        <ele>233.1</ele>
        <time>2020-02-05T10:03:32.000Z</time>
      </trkpt>
      <trkpt lat="43.96802" lon="1.88531">
        <ele>233.7</ele>
        <time>2020-02-05T10:03:43.000Z</time>
      </trkpt>
      <trkpt lat="43.96793" lon="1.88535">
        <ele>234.3</ele>
        <time>2020-02-05T10:03:53.000Z</time>
      </trkpt>
      <trkpt lat="43.96784" lon="1.88539">
        <ele>234.5</ele>
        <time>2020-02-05T10:04:01.000Z</time>
      </trkpt>
      <trkpt lat="43.96775" lon="1.88543">
        <ele>235</ele>
        <time>2020-02-05T10:04:09.000Z</time>
      </trkpt>
      <trkpt lat="43.96766" lon="1.88548">
        <ele>235.4</ele>
        <time>2020-02-05T10:04:17.000Z</time>
      </trkpt>
      <trkpt lat="43.96756" lon="1.88551">
        <ele>235.6</ele>
        <time>2020-02-05T10:04:23.000Z</time>
      </trkpt>
      <trkpt lat="43.96746" lon="1.88554">
        <ele>235.9</ele>
        <time>2020-02-05T10:04:29.000Z</time>
      </trkpt>
      <trkpt lat="43.96737" lon="1.88557">
        <ele>236</ele>
        <time>2020-02-05T10:04:34.000Z</time>
      </trkpt>
      <trkpt lat="43.96728" lon="1.88561">
        <ele>236.2</ele>
        <time>2020-02-05T10:04:41.000Z</time>
      </trkpt>
      <trkpt lat="43.96719" lon="1.88566">
        <ele>236.9</ele>
        <time>2020-02-05T10:04:51.000Z</time>
      </trkpt>
      <trkpt lat="43.96709" lon="1.8857">
        <ele>237.3</ele>
        <time>2020-02-05T10:04:59.000Z</time>
      </trkpt>
      <trkpt lat="43.967" lon="1.88573">
        <ele>237.7</ele>
        <time>2020-02-05T10:05:09.000Z</time>
      </trkpt>
      <trkpt lat="43.9669" lon="1.88575">
        <ele>237.8</ele>
        <time>2020-02-05T10:05:18.000Z</time>
      </trkpt>
      <trkpt lat="43.9668" lon="1.88576">
        <ele>238.2</ele>
        <time>2020-02-05T10:05:27.000Z</time>
      </trkpt>
      <trkpt lat="43.96671" lon="1.88577">
        <ele>239.1</ele>
        <time>2020-02-05T10:05:40.000Z</time>
      </trkpt>
      <trkpt lat="43.96662" lon="1.88577">
        <ele>239.8</ele>
        <time>2020-02-05T10:05:51.000Z</time>
      </trkpt>
      <trkpt lat="43.96652" lon="1.88576">
        <ele>240.3</ele>
        <time>2020-02-05T10:06:00.000Z</time>
      </trkpt>
      <trkpt lat="43.96643" lon="1.88576">
        <ele>241</ele>
        <time>2020-02-05T10:06:09.000Z</time>
      </trkpt>
      <trkpt lat="43.96633" lon="1.88576">
        <ele>241.8</ele>
        <time>2020-02-05T10:06:19.000Z</time>
      </trkpt>
      <trkpt lat="43.96623" lon="1.88576">
        <ele>242.8</ele>
        <time>2020-02-05T10:06:31.000Z</time>
      </trkpt>
      <trkpt lat="43.96614" lon="1.88576">
        <ele>244</ele>
        <time>2020-02-05T10:06:41.000Z</time>
      </trkpt>
      <trkpt lat="43.96605" lon="1.88575">
        <ele>245</ele>
        <time>2020-02-05T10:06:51.000Z</time>
      </trkpt>
      <trkpt lat="43.96595" lon="1.88575">
        <ele>245.9</ele>
        <time>2020-02-05T10:07:00.000Z</time>
      </trkpt>
      <trkpt lat="43.96586" lon="1.88574">
        <ele>247.1</ele>
        <time>2020-02-05T10:07:10.000Z</time>
      </trkpt>
      <trkpt lat="43.96577" lon="1.88574">
        <ele>248.3</ele>
        <time>2020-02-05T10:07:20.000Z</time>
      </trkpt>
      <trkpt lat="43.96567" lon="1.88574">
        <ele>249.5</ele>
        <time>2020-02-05T10:07:31.000Z</time>
      </trkpt>
      <trkpt lat="43.96558" lon="1.88575">
        <ele>250.1</ele>
        <time>2020-02-05T10:07:40.000Z</time>
      </trkpt>
      <trkpt lat="43.96548" lon="1.88577">
        <ele>251.5</ele>
        <time>2020-02-05T10:09:53.000Z</time>
      </trkpt>
      <trkpt lat="43.96534" lon="1.88577">
        <ele>250.7</ele>
        <time>2020-02-05T10:11:14.000Z</time>
      </trkpt>
      <trkpt lat="43.96525" lon="1.88576">
        <ele>250.8</ele>
        <time>2020-02-05T10:11:22.000Z</time>
      </trkpt>
      <trkpt lat="43.96515" lon="1.88575">
        <ele>250.7</ele>
        <time>2020-02-05T10:11:30.000Z</time>
      </trkpt>
      <trkpt lat="43.96506" lon="1.88573">
        <ele>250.7</ele>
        <time>2020-02-05T10:11:38.000Z</time>
      </trkpt>
      <trkpt lat="43.96497" lon="1.88571">
        <ele>250.6</ele>
        <time>2020-02-05T10:11:47.000Z</time>
      </trkpt>
      <trkpt lat="43.96488" lon="1.88569">
        <ele>250.6</ele>
        <time>2020-02-05T10:11:56.000Z</time>
      </trkpt>
      <trkpt lat="43.96478" lon="1.88569">
        <ele>250.8</ele>
        <time>2020-02-05T10:12:05.000Z</time>
      </trkpt>
      <trkpt lat="43.96469" lon="1.88569">
        <ele>250.9</ele>
        <time>2020-02-05T10:12:14.000Z</time>
      </trkpt>
      <trkpt lat="43.96459" lon="1.88568">
        <ele>251.2</ele>
        <time>2020-02-05T10:12:24.000Z</time>
      </trkpt>
      <trkpt lat="43.9645" lon="1.88567">
        <ele>251.7</ele>
        <time>2020-02-05T10:12:34.000Z</time>
      </trkpt>
      <trkpt lat="43.96441" lon="1.88565">
        <ele>251.9</ele>
        <time>2020-02-05T10:12:42.000Z</time>
      </trkpt>
      <trkpt lat="43.96432" lon="1.88564">
        <ele>252.4</ele>
        <time>2020-02-05T10:12:51.000Z</time>
      </trkpt>
      <trkpt lat="43.96423" lon="1.88564">
        <ele>252.9</ele>
        <time>2020-02-05T10:13:00.000Z</time>
      </trkpt>
      <trkpt lat="43.96413" lon="1.88564">
        <ele>253.4</ele>
        <time>2020-02-05T10:13:09.000Z</time>
      </trkpt>
      <trkpt lat="43.96403" lon="1.88567">
        <ele>253.9</ele>
        <time>2020-02-05T10:13:17.000Z</time>
      </trkpt>
      <trkpt lat="43.96394" lon="1.88569">
        <ele>254.6</ele>
        <time>2020-02-05T10:13:27.000Z</time>
      </trkpt>
      <trkpt lat="43.96385" lon="1.88572">
        <ele>255</ele>
        <time>2020-02-05T10:13:35.000Z</time>
      </trkpt>
      <trkpt lat="43.96375" lon="1.88575">
        <ele>255.7</ele>
        <time>2020-02-05T10:13:44.000Z</time>
      </trkpt>
      <trkpt lat="43.96366" lon="1.88578">
        <ele>256.1</ele>
        <time>2020-02-05T10:13:51.000Z</time>
      </trkpt>
      <trkpt lat="43.96357" lon="1.88581">
        <ele>256.6</ele>
        <time>2020-02-05T10:14:00.000Z</time>
      </trkpt>
      <trkpt lat="43.96349" lon="1.88587">
        <ele>257.3</ele>
        <time>2020-02-05T10:14:10.000Z</time>
      </trkpt>
      <trkpt lat="43.9634" lon="1.88593">
        <ele>257.9</ele>
        <time>2020-02-05T10:14:19.000Z</time>
      </trkpt>
      <trkpt lat="43.96331" lon="1.88598">
        <ele>258.5</ele>
        <time>2020-02-05T10:14:28.000Z</time>
      </trkpt>
      <trkpt lat="43.96321" lon="1.88602">
        <ele>259</ele>
        <time>2020-02-05T10:14:38.000Z</time>
      </trkpt>
      <trkpt lat="43.96311" lon="1.88604">
        <ele>259.7</ele>
        <time>2020-02-05T10:14:47.000Z</time>
      </trkpt>
      <trkpt lat="43.96303" lon="1.88608">
        <ele>260.3</ele>
        <time>2020-02-05T10:14:56.000Z</time>
      </trkpt>
      <trkpt lat="43.96295" lon="1.88614">
        <ele>260.6</ele>
        <time>2020-02-05T10:15:05.000Z</time>
      </trkpt>
      <trkpt lat="43.96285" lon="1.88616">
        <ele>260.6</ele>
        <time>2020-02-05T10:15:13.000Z</time>
      </trkpt>
      <trkpt lat="43.96276" lon="1.88611">
        <ele>260.4</ele>
        <time>2020-02-05T10:15:23.000Z</time>
      </trkpt>
      <trkpt lat="43.96268" lon="1.88605">
        <ele>260.5</ele>
        <time>2020-02-05T10:15:31.000Z</time>
      </trkpt>
      <trkpt lat="43.96258" lon="1.88601">
        <ele>260.5</ele>
        <time>2020-02-05T10:15:40.000Z</time>
      </trkpt>
      <trkpt lat="43.9625" lon="1.88597">
        <ele>260.4</ele>
        <time>2020-02-05T10:15:47.000Z</time>
      </trkpt>
      <trkpt lat="43.96241" lon="1.8859">
        <ele>260.3</ele>
        <time>2020-02-05T10:15:55.000Z</time>
      </trkpt>
      <trkpt lat="43.96233" lon="1.88585">
        <ele>260.1</ele>
        <time>2020-02-05T10:16:07.000Z</time>
      </trkpt>
      <trkpt lat="43.96224" lon="1.8858">
        <ele>260</ele>
        <time>2020-02-05T10:16:17.000Z</time>
      </trkpt>
      <trkpt lat="43.96215" lon="1.8858">
        <ele>260</ele>
        <time>2020-02-05T10:16:27.000Z</time>
      </trkpt>
      <trkpt lat="43.96222" lon="1.88589">
        <ele>259.7</ele>
        <time>2020-02-05T10:16:40.000Z</time>
      </trkpt>
      <trkpt lat="43.96229" lon="1.88599">
        <ele>259</ele>
        <time>2020-02-05T10:16:50.000Z</time>
      </trkpt>
      <trkpt lat="43.96229" lon="1.88612">
        <ele>256.6</ele>
        <time>2020-02-05T10:17:09.000Z</time>
      </trkpt>
      <trkpt lat="43.96223" lon="1.88623">
        <ele>254.7</ele>
        <time>2020-02-05T10:17:25.000Z</time>
      </trkpt>
      <trkpt lat="43.96217" lon="1.88633">
        <ele>252.9</ele>
        <time>2020-02-05T10:17:39.000Z</time>
      </trkpt>
      <trkpt lat="43.96213" lon="1.88645">
        <ele>251.1</ele>
        <time>2020-02-05T10:17:54.000Z</time>
      </trkpt>
      <trkpt lat="43.96205" lon="1.88653">
        <ele>249.9</ele>
        <time>2020-02-05T10:18:03.000Z</time>
      </trkpt>
      <trkpt lat="43.96197" lon="1.88659">
        <ele>249</ele>
        <time>2020-02-05T10:18:11.000Z</time>
      </trkpt>
      <trkpt lat="43.9619" lon="1.88667">
        <ele>248</ele>
        <time>2020-02-05T10:18:20.000Z</time>
      </trkpt>
      <trkpt lat="43.96182" lon="1.88673">
        <ele>247.2</ele>
        <time>2020-02-05T10:18:28.000Z</time>
      </trkpt>
      <trkpt lat="43.96175" lon="1.88683">
        <ele>246.2</ele>
        <time>2020-02-05T10:18:36.000Z</time>
      </trkpt>
      <trkpt lat="43.96166" lon="1.88691">
        <ele>245.2</ele>
        <time>2020-02-05T10:18:44.000Z</time>
      </trkpt>
      <trkpt lat="43.96161" lon="1.88703">
        <ele>244</ele>
        <time>2020-02-05T10:18:53.000Z</time>
      </trkpt>
      <trkpt lat="43.96154" lon="1.88711">
        <ele>243.3</ele>
        <time>2020-02-05T10:19:01.000Z</time>
      </trkpt>
      <trkpt lat="43.9615" lon="1.88723">
        <ele>242.3</ele>
        <time>2020-02-05T10:19:10.000Z</time>
      </trkpt>
      <trkpt lat="43.96143" lon="1.88733">
        <ele>240.9</ele>
        <time>2020-02-05T10:19:22.000Z</time>
      </trkpt>
      <trkpt lat="43.96135" lon="1.8874">
        <ele>239.6</ele>
        <time>2020-02-05T10:19:34.000Z</time>
      </trkpt>
      <trkpt lat="43.96129" lon="1.8875">
        <ele>238.3</ele>
        <time>2020-02-05T10:19:44.000Z</time>
      </trkpt>
      <trkpt lat="43.96121" lon="1.88758">
        <ele>237.3</ele>
        <time>2020-02-05T10:19:52.000Z</time>
      </trkpt>
      <trkpt lat="43.96113" lon="1.88767">
        <ele>236.5</ele>
        <time>2020-02-05T10:20:00.000Z</time>
      </trkpt>
      <trkpt lat="43.96109" lon="1.88778">
        <ele>235.6</ele>
        <time>2020-02-05T10:20:08.000Z</time>
      </trkpt>
      <trkpt lat="43.96101" lon="1.88784">
        <ele>234.9</ele>
        <time>2020-02-05T10:20:14.000Z</time>
      </trkpt>
      <trkpt lat="43.96093" lon="1.88793">
        <ele>234</ele>
        <time>2020-02-05T10:20:21.000Z</time>
      </trkpt>
      <trkpt lat="43.96084" lon="1.88799">
        <ele>232.8</ele>
        <time>2020-02-05T10:20:28.000Z</time>
      </trkpt>
      <trkpt lat="43.96076" lon="1.88807">
        <ele>232.2</ele>
        <time>2020-02-05T10:20:36.000Z</time>
      </trkpt>
      <trkpt lat="43.96067" lon="1.8881">
        <ele>231.7</ele>
        <time>2020-02-05T10:20:42.000Z</time>
      </trkpt>
      <trkpt lat="43.96059" lon="1.88816">
        <ele>230.6</ele>
        <time>2020-02-05T10:20:51.000Z</time>
      </trkpt>
      <trkpt lat="43.9605" lon="1.88821">
        <ele>229.9</ele>
        <time>2020-02-05T10:20:59.000Z</time>
      </trkpt>
      <trkpt lat="43.96042" lon="1.88826">
        <ele>229.5</ele>
        <time>2020-02-05T10:21:07.000Z</time>
      </trkpt>
      <trkpt lat="43.96032" lon="1.88829">
        <ele>229.1</ele>
        <time>2020-02-05T10:21:13.000Z</time>
      </trkpt>
      <trkpt lat="43.96024" lon="1.88836">
        <ele>228.2</ele>
        <time>2020-02-05T10:21:23.000Z</time>
      </trkpt>
      <trkpt lat="43.96015" lon="1.88842">
        <ele>227.3</ele>
        <time>2020-02-05T10:21:31.000Z</time>
      </trkpt>
      <trkpt lat="43.96006" lon="1.88847">
        <ele>226.5</ele>
        <time>2020-02-05T10:21:38.000Z</time>
      </trkpt>
      <trkpt lat="43.95997" lon="1.88851">
        <ele>226.1</ele>
        <time>2020-02-05T10:21:43.000Z</time>
      </trkpt>
      <trkpt lat="43.95988" lon="1.88853">
        <ele>225.5</ele>
        <time>2020-02-05T10:21:49.000Z</time>
      </trkpt>
      <trkpt lat="43.95979" lon="1.88856">
        <ele>224</ele>
        <time>2020-02-05T10:21:59.000Z</time>
      </trkpt>
      <trkpt lat="43.9597" lon="1.88864">
        <ele>223.3</ele>
        <time>2020-02-05T10:22:05.000Z</time>
      </trkpt>
      <trkpt lat="43.95961" lon="1.88872">
        <ele>222.7</ele>
        <time>2020-02-05T10:22:12.000Z</time>
      </trkpt>
      <trkpt lat="43.95953" lon="1.88881">
        <ele>222.2</ele>
        <time>2020-02-05T10:22:19.000Z</time>
      </trkpt>
      <trkpt lat="43.95946" lon="1.8889">
        <ele>221.9</ele>
        <time>2020-02-05T10:22:26.000Z</time>
      </trkpt>
      <trkpt lat="43.95941" lon="1.889">
        <ele>221</ele>
        <time>2020-02-05T10:22:35.000Z</time>
      </trkpt>
      <trkpt lat="43.95934" lon="1.88909">
        <ele>220.4</ele>
        <time>2020-02-05T10:22:44.000Z</time>
      </trkpt>
      <trkpt lat="43.95926" lon="1.88919">
        <ele>220</ele>
        <time>2020-02-05T10:22:55.000Z</time>
      </trkpt>
      <trkpt lat="43.9592" lon="1.88927">
        <ele>219.9</ele>
        <time>2020-02-05T10:23:03.000Z</time>
      </trkpt>
      <trkpt lat="43.95913" lon="1.88936">
        <ele>219.7</ele>
        <time>2020-02-05T10:23:12.000Z</time>
      </trkpt>
      <trkpt lat="43.95907" lon="1.88947">
        <ele>219.2</ele>
        <time>2020-02-05T10:23:21.000Z</time>
      </trkpt>
      <trkpt lat="43.95899" lon="1.88956">
        <ele>218.9</ele>
        <time>2020-02-05T10:23:31.000Z</time>
      </trkpt>
      <trkpt lat="43.95893" lon="1.88966">
        <ele>218.8</ele>
        <time>2020-02-05T10:23:42.000Z</time>
      </trkpt>
      <trkpt lat="43.95884" lon="1.88973">
        <ele>217.4</ele>
        <time>2020-02-05T10:23:58.000Z</time>
      </trkpt>
      <trkpt lat="43.95876" lon="1.8898">
        <ele>216.7</ele>
        <time>2020-02-05T10:24:06.000Z</time>
      </trkpt>
      <trkpt lat="43.95866" lon="1.88985">
        <ele>215.7</ele>
        <time>2020-02-05T10:24:13.000Z</time>
      </trkpt>
      <trkpt lat="43.95857" lon="1.88991">
        <ele>215.3</ele>
        <time>2020-02-05T10:24:19.000Z</time>
      </trkpt>
      <trkpt lat="43.95849" lon="1.88998">
        <ele>214.6</ele>
        <time>2020-02-05T10:24:27.000Z</time>
      </trkpt>
      <trkpt lat="43.95842" lon="1.89006">
        <ele>214.1</ele>
        <time>2020-02-05T10:24:36.000Z</time>
      </trkpt>
      <trkpt lat="43.95833" lon="1.89012">
        <ele>213.5</ele>
        <time>2020-02-05T10:24:47.000Z</time>
      </trkpt>
      <trkpt lat="43.95824" lon="1.89014">
        <ele>213.3</ele>
        <time>2020-02-05T10:24:55.000Z</time>
      </trkpt>
      <trkpt lat="43.95815" lon="1.89017">
        <ele>213</ele>
        <time>2020-02-05T10:25:03.000Z</time>
      </trkpt>
      <trkpt lat="43.95806" lon="1.89018">
        <ele>212.9</ele>
        <time>2020-02-05T10:25:09.000Z</time>
      </trkpt>
      <trkpt lat="43.95796" lon="1.89018">
        <ele>212.7</ele>
        <time>2020-02-05T10:25:16.000Z</time>
      </trkpt>
      <trkpt lat="43.95786" lon="1.89019">
        <ele>212.4</ele>
        <time>2020-02-05T10:25:22.000Z</time>
      </trkpt>
      <trkpt lat="43.95777" lon="1.89018">
        <ele>212</ele>
        <time>2020-02-05T10:25:29.000Z</time>
      </trkpt>
      <trkpt lat="43.95772" lon="1.89008">
        <ele>211.5</ele>
        <time>2020-02-05T10:25:38.000Z</time>
      </trkpt>
      <trkpt lat="43.9577" lon="1.88995">
        <ele>211.1</ele>
        <time>2020-02-05T10:25:47.000Z</time>
      </trkpt>
      <trkpt lat="43.95766" lon="1.88984">
        <ele>210.7</ele>
        <time>2020-02-05T10:25:55.000Z</time>
      </trkpt>
      <trkpt lat="43.95762" lon="1.88972">
        <ele>210.3</ele>
        <time>2020-02-05T10:26:03.000Z</time>
      </trkpt>
      <trkpt lat="43.95758" lon="1.88959">
        <ele>210</ele>
        <time>2020-02-05T10:26:11.000Z</time>
      </trkpt>
      <trkpt lat="43.95755" lon="1.88946">
        <ele>209.9</ele>
        <time>2020-02-05T10:26:20.000Z</time>
      </trkpt>
      <trkpt lat="43.95752" lon="1.88934">
        <ele>210.2</ele>
        <time>2020-02-05T10:26:27.000Z</time>
      </trkpt>
      <trkpt lat="43.95751" lon="1.88921">
        <ele>211.2</ele>
        <time>2020-02-05T10:26:37.000Z</time>
      </trkpt>
      <trkpt lat="43.95753" lon="1.88908">
        <ele>212.2</ele>
        <time>2020-02-05T10:26:46.000Z</time>
      </trkpt>
      <trkpt lat="43.95756" lon="1.88894">
        <ele>213</ele>
        <time>2020-02-05T10:26:53.000Z</time>
      </trkpt>
      <trkpt lat="43.9576" lon="1.88882">
        <ele>214.1</ele>
        <time>2020-02-05T10:27:01.000Z</time>
      </trkpt>
      <trkpt lat="43.95762" lon="1.8887">
        <ele>215.6</ele>
        <time>2020-02-05T10:27:11.000Z</time>
      </trkpt>
      <trkpt lat="43.95766" lon="1.88857">
        <ele>216.4</ele>
        <time>2020-02-05T10:27:19.000Z</time>
      </trkpt>
      <trkpt lat="43.95769" lon="1.88845">
        <ele>217.5</ele>
        <time>2020-02-05T10:27:28.000Z</time>
      </trkpt>
      <trkpt lat="43.95772" lon="1.88832">
        <ele>218.5</ele>
        <time>2020-02-05T10:27:37.000Z</time>
      </trkpt>
      <trkpt lat="43.95775" lon="1.8882">
        <ele>219.3</ele>
        <time>2020-02-05T10:27:45.000Z</time>
      </trkpt>
      <trkpt lat="43.95779" lon="1.88807">
        <ele>220.5</ele>
        <time>2020-02-05T10:27:56.000Z</time>
      </trkpt>
      <trkpt lat="43.95783" lon="1.88796">
        <ele>221.5</ele>
        <time>2020-02-05T10:28:06.000Z</time>
      </trkpt>
      <trkpt lat="43.95789" lon="1.88784">
        <ele>222.4</ele>
        <time>2020-02-05T10:28:17.000Z</time>
      </trkpt>
      <trkpt lat="43.95794" lon="1.88774">
        <ele>223</ele>
        <time>2020-02-05T10:28:24.000Z</time>
      </trkpt>
      <trkpt lat="43.95798" lon="1.88762">
        <ele>223.6</ele>
        <time>2020-02-05T10:28:30.000Z</time>
      </trkpt>
      <trkpt lat="43.95798" lon="1.88749">
        <ele>224.5</ele>
        <time>2020-02-05T10:28:39.000Z</time>
      </trkpt>
      <trkpt lat="43.95795" lon="1.88737">
        <ele>225.4</ele>
        <time>2020-02-05T10:28:47.000Z</time>
      </trkpt>
      <trkpt lat="43.95792" lon="1.88723">
        <ele>226.2</ele>
        <time>2020-02-05T10:28:55.000Z</time>
      </trkpt>
      <trkpt lat="43.95786" lon="1.88713">
        <ele>227</ele>
        <time>2020-02-05T10:29:02.000Z</time>
      </trkpt>
      <trkpt lat="43.95779" lon="1.88706">
        <ele>227.6</ele>
        <time>2020-02-05T10:29:10.000Z</time>
      </trkpt>
      <trkpt lat="43.95771" lon="1.88699">
        <ele>228.2</ele>
        <time>2020-02-05T10:29:19.000Z</time>
      </trkpt>
      <trkpt lat="43.95762" lon="1.88694">
        <ele>228.6</ele>
        <time>2020-02-05T10:29:27.000Z</time>
      </trkpt>
      <trkpt lat="43.95753" lon="1.8869">
        <ele>229.1</ele>
        <time>2020-02-05T10:29:36.000Z</time>
      </trkpt>
      <trkpt lat="43.95745" lon="1.88682">
        <ele>229.9</ele>
        <time>2020-02-05T10:29:47.000Z</time>
      </trkpt>
      <trkpt lat="43.95738" lon="1.88675">
        <ele>230.6</ele>
        <time>2020-02-05T10:29:55.000Z</time>
      </trkpt>
      <trkpt lat="43.95728" lon="1.88668">
        <ele>231.4</ele>
        <time>2020-02-05T10:30:03.000Z</time>
      </trkpt>
      <trkpt lat="43.9572" lon="1.88662">
        <ele>231.7</ele>
        <time>2020-02-05T10:30:09.000Z</time>
      </trkpt>
      <trkpt lat="43.95712" lon="1.88654">
        <ele>232.2</ele>
        <time>2020-02-05T10:30:17.000Z</time>
      </trkpt>
      <trkpt lat="43.95704" lon="1.88647">
        <ele>232.9</ele>
        <time>2020-02-05T10:30:26.000Z</time>
      </trkpt>
      <trkpt lat="43.95694" lon="1.88648">
        <ele>232.9</ele>
        <time>2020-02-05T10:30:32.000Z</time>
      </trkpt>
      <trkpt lat="43.95685" lon="1.88649">
        <ele>232.5</ele>
        <time>2020-02-05T10:30:37.000Z</time>
      </trkpt>
      <trkpt lat="43.95679" lon="1.88658">
        <ele>232</ele>
        <time>2020-02-05T10:30:51.000Z</time>
      </trkpt>
      <trkpt lat="43.95672" lon="1.88666">
        <ele>231.8</ele>
        <time>2020-02-05T10:30:59.000Z</time>
      </trkpt>
      <trkpt lat="43.95669" lon="1.88679">
        <ele>231.4</ele>
        <time>2020-02-05T10:31:10.000Z</time>
      </trkpt>
      <trkpt lat="43.95677" lon="1.88688">
        <ele>231.3</ele>
        <time>2020-02-05T10:31:16.000Z</time>
      </trkpt>
      <trkpt lat="43.95667" lon="1.88693">
        <ele>229.9</ele>
        <time>2020-02-05T10:32:54.000Z</time>
      </trkpt>
      <trkpt lat="43.95659" lon="1.88704">
        <ele>229.7</ele>
        <time>2020-02-05T10:33:00.000Z</time>
      </trkpt>
      <trkpt lat="43.95651" lon="1.88711">
        <ele>229.4</ele>
        <time>2020-02-05T10:33:06.000Z</time>
      </trkpt>
      <trkpt lat="43.95644" lon="1.8872">
        <ele>229.5</ele>
        <time>2020-02-05T10:33:14.000Z</time>
      </trkpt>
      <trkpt lat="43.95653" lon="1.88722">
        <ele>229.5</ele>
        <time>2020-02-05T10:33:27.000Z</time>
      </trkpt>
      <trkpt lat="43.95645" lon="1.88735">
        <ele>228.2</ele>
        <time>2020-02-05T10:35:24.000Z</time>
      </trkpt>
      <trkpt lat="43.95637" lon="1.88743">
        <ele>228.2</ele>
        <time>2020-02-05T10:35:30.000Z</time>
      </trkpt>
      <trkpt lat="43.95629" lon="1.88751">
        <ele>228.1</ele>
        <time>2020-02-05T10:35:39.000Z</time>
      </trkpt>
      <trkpt lat="43.95624" lon="1.88762">
        <ele>228</ele>
        <time>2020-02-05T10:35:48.000Z</time>
      </trkpt>
      <trkpt lat="43.95619" lon="1.88773">
        <ele>227.7</ele>
        <time>2020-02-05T10:35:56.000Z</time>
      </trkpt>
      <trkpt lat="43.95613" lon="1.88782">
        <ele>227.6</ele>
        <time>2020-02-05T10:36:06.000Z</time>
      </trkpt>
      <trkpt lat="43.95605" lon="1.8879">
        <ele>227.6</ele>
        <time>2020-02-05T10:36:16.000Z</time>
      </trkpt>
      <trkpt lat="43.95598" lon="1.88798">
        <ele>227.7</ele>
        <time>2020-02-05T10:36:25.000Z</time>
      </trkpt>
      <trkpt lat="43.95592" lon="1.88808">
        <ele>227.9</ele>
        <time>2020-02-05T10:36:34.000Z</time>
      </trkpt>
      <trkpt lat="43.95586" lon="1.88818">
        <ele>228</ele>
        <time>2020-02-05T10:36:44.000Z</time>
      </trkpt>
      <trkpt lat="43.95579" lon="1.88827">
        <ele>228.1</ele>
        <time>2020-02-05T10:36:53.000Z</time>
      </trkpt>
      <trkpt lat="43.95571" lon="1.88836">
        <ele>228.1</ele>
        <time>2020-02-05T10:37:03.000Z</time>
      </trkpt>
      <trkpt lat="43.95563" lon="1.88843">
        <ele>228.1</ele>
        <time>2020-02-05T10:37:12.000Z</time>
      </trkpt>
      <trkpt lat="43.95555" lon="1.8885">
        <ele>228.2</ele>
        <time>2020-02-05T10:37:21.000Z</time>
      </trkpt>
      <trkpt lat="43.95547" lon="1.88857">
        <ele>228.1</ele>
        <time>2020-02-05T10:37:29.000Z</time>
      </trkpt>
      <trkpt lat="43.95539" lon="1.88865">
        <ele>227.9</ele>
        <time>2020-02-05T10:37:37.000Z</time>
      </trkpt>
      <trkpt lat="43.95532" lon="1.88873">
        <ele>227.8</ele>
        <time>2020-02-05T10:37:45.000Z</time>
      </trkpt>
      <trkpt lat="43.95525" lon="1.88882">
        <ele>227.7</ele>
        <time>2020-02-05T10:37:53.000Z</time>
      </trkpt>
      <trkpt lat="43.95518" lon="1.88893">
        <ele>227.7</ele>
        <time>2020-02-05T10:38:02.000Z</time>
      </trkpt>
      <trkpt lat="43.95511" lon="1.88901">
        <ele>227.5</ele>
        <time>2020-02-05T10:38:12.000Z</time>
      </trkpt>
      <trkpt lat="43.95504" lon="1.88911">
        <ele>226.9</ele>
        <time>2020-02-05T10:38:25.000Z</time>
      </trkpt>
      <trkpt lat="43.95496" lon="1.88919">
        <ele>226.5</ele>
        <time>2020-02-05T10:38:34.000Z</time>
      </trkpt>
      <trkpt lat="43.95486" lon="1.8892">
        <ele>226.1</ele>
        <time>2020-02-05T10:38:46.000Z</time>
      </trkpt>
      <trkpt lat="43.95477" lon="1.88917">
        <ele>225.4</ele>
        <time>2020-02-05T10:38:54.000Z</time>
      </trkpt>
      <trkpt lat="43.95468" lon="1.88914">
        <ele>224.9</ele>
        <time>2020-02-05T10:39:02.000Z</time>
      </trkpt>
      <trkpt lat="43.95459" lon="1.88909">
        <ele>224.5</ele>
        <time>2020-02-05T10:39:09.000Z</time>
      </trkpt>
      <trkpt lat="43.95452" lon="1.88901">
        <ele>223.7</ele>
        <time>2020-02-05T10:39:20.000Z</time>
      </trkpt>
      <trkpt lat="43.95444" lon="1.88894">
        <ele>223</ele>
        <time>2020-02-05T10:39:30.000Z</time>
      </trkpt>
      <trkpt lat="43.95434" lon="1.8889">
        <ele>222.3</ele>
        <time>2020-02-05T10:39:38.000Z</time>
      </trkpt>
      <trkpt lat="43.95425" lon="1.88887">
        <ele>221.6</ele>
        <time>2020-02-05T10:39:46.000Z</time>
      </trkpt>
      <trkpt lat="43.95416" lon="1.88891">
        <ele>221</ele>
        <time>2020-02-05T10:39:55.000Z</time>
      </trkpt>
      <trkpt lat="43.95408" lon="1.88898">
        <ele>220.1</ele>
        <time>2020-02-05T10:40:03.000Z</time>
      </trkpt>
      <trkpt lat="43.954" lon="1.88906">
        <ele>219.8</ele>
        <time>2020-02-05T10:40:11.000Z</time>
      </trkpt>
      <trkpt lat="43.95395" lon="1.88918">
        <ele>219.3</ele>
        <time>2020-02-05T10:40:20.000Z</time>
      </trkpt>
      <trkpt lat="43.95391" lon="1.8893">
        <ele>219.3</ele>
        <time>2020-02-05T10:40:28.000Z</time>
      </trkpt>
      <trkpt lat="43.95386" lon="1.88941">
        <ele>219.3</ele>
        <time>2020-02-05T10:40:37.000Z</time>
      </trkpt>
      <trkpt lat="43.95378" lon="1.8895">
        <ele>219.3</ele>
        <time>2020-02-05T10:40:47.000Z</time>
      </trkpt>
      <trkpt lat="43.95371" lon="1.88959">
        <ele>219.2</ele>
        <time>2020-02-05T10:40:55.000Z</time>
      </trkpt>
      <trkpt lat="43.95364" lon="1.88971">
        <ele>219.2</ele>
        <time>2020-02-05T10:41:04.000Z</time>
      </trkpt>
      <trkpt lat="43.95359" lon="1.88981">
        <ele>219</ele>
        <time>2020-02-05T10:41:11.000Z</time>
      </trkpt>
      <trkpt lat="43.95354" lon="1.88994">
        <ele>219</ele>
        <time>2020-02-05T10:41:18.000Z</time>
      </trkpt>
      <trkpt lat="43.95349" lon="1.89006">
        <ele>218.9</ele>
        <time>2020-02-05T10:41:26.000Z</time>
      </trkpt>
      <trkpt lat="43.95345" lon="1.89018">
        <ele>218.4</ele>
        <time>2020-02-05T10:41:34.000Z</time>
      </trkpt>
      <trkpt lat="43.95342" lon="1.89031">
        <ele>217.9</ele>
        <time>2020-02-05T10:41:42.000Z</time>
      </trkpt>
      <trkpt lat="43.95337" lon="1.89041">
        <ele>217.5</ele>
        <time>2020-02-05T10:41:50.000Z</time>
      </trkpt>
      <trkpt lat="43.95333" lon="1.89054">
        <ele>217.2</ele>
        <time>2020-02-05T10:41:59.000Z</time>
      </trkpt>
      <trkpt lat="43.95326" lon="1.89063">
        <ele>216.4</ele>
        <time>2020-02-05T10:42:12.000Z</time>
      </trkpt>
      <trkpt lat="43.95318" lon="1.8907">
        <ele>216</ele>
        <time>2020-02-05T10:42:21.000Z</time>
      </trkpt>
      <trkpt lat="43.95312" lon="1.89081">
        <ele>215.5</ele>
        <time>2020-02-05T10:42:28.000Z</time>
      </trkpt>
      <trkpt lat="43.95308" lon="1.89093">
        <ele>215.2</ele>
        <time>2020-02-05T10:42:35.000Z</time>
      </trkpt>
      <trkpt lat="43.95305" lon="1.89105">
        <ele>214.5</ele>
        <time>2020-02-05T10:42:44.000Z</time>
      </trkpt>
      <trkpt lat="43.95303" lon="1.89117">
        <ele>214</ele>
        <time>2020-02-05T10:42:55.000Z</time>
      </trkpt>
      <trkpt lat="43.95296" lon="1.89126">
        <ele>212.9</ele>
        <time>2020-02-05T10:43:07.000Z</time>
      </trkpt>
      <trkpt lat="43.953" lon="1.89146">
        <ele>209</ele>
        <time>2020-02-05T10:43:35.000Z</time>
      </trkpt>
      <trkpt lat="43.95293" lon="1.89154">
        <ele>206.8</ele>
        <time>2020-02-05T10:44:03.000Z</time>
      </trkpt>
      <trkpt lat="43.95283" lon="1.89154">
        <ele>205.5</ele>
        <time>2020-02-05T10:44:17.000Z</time>
      </trkpt>
      <trkpt lat="43.95274" lon="1.89155">
        <ele>203.9</ele>
        <time>2020-02-05T10:44:27.000Z</time>
      </trkpt>
      <trkpt lat="43.95264" lon="1.89152">
        <ele>202.1</ele>
        <time>2020-02-05T10:44:39.000Z</time>
      </trkpt>
      <trkpt lat="43.95257" lon="1.89144">
        <ele>201</ele>
        <time>2020-02-05T10:44:50.000Z</time>
      </trkpt>
      <trkpt lat="43.95248" lon="1.8914">
        <ele>200.4</ele>
        <time>2020-02-05T10:44:58.000Z</time>
      </trkpt>
      <trkpt lat="43.95239" lon="1.89138">
        <ele>199.3</ele>
        <time>2020-02-05T10:45:06.000Z</time>
      </trkpt>
      <trkpt lat="43.9523" lon="1.89136">
        <ele>198</ele>
        <time>2020-02-05T10:45:16.000Z</time>
      </trkpt>
      <trkpt lat="43.9522" lon="1.89133">
        <ele>196.4</ele>
        <time>2020-02-05T10:45:26.000Z</time>
      </trkpt>
      <trkpt lat="43.95211" lon="1.89131">
        <ele>195.1</ele>
        <time>2020-02-05T10:45:36.000Z</time>
      </trkpt>
      <trkpt lat="43.95202" lon="1.89128">
        <ele>193.6</ele>
        <time>2020-02-05T10:45:46.000Z</time>
      </trkpt>
      <trkpt lat="43.95192" lon="1.89127">
        <ele>191.6</ele>
        <time>2020-02-05T10:45:56.000Z</time>
      </trkpt>
      <trkpt lat="43.95182" lon="1.89127">
        <ele>189.8</ele>
        <time>2020-02-05T10:46:07.000Z</time>
      </trkpt>
      <trkpt lat="43.95173" lon="1.89125">
        <ele>187.9</ele>
        <time>2020-02-05T10:46:17.000Z</time>
      </trkpt>
      <trkpt lat="43.95163" lon="1.89124">
        <ele>186.5</ele>
        <time>2020-02-05T10:46:26.000Z</time>
      </trkpt>
      <trkpt lat="43.95154" lon="1.89123">
        <ele>185.7</ele>
        <time>2020-02-05T10:46:34.000Z</time>
      </trkpt>
      <trkpt lat="43.95147" lon="1.89131">
        <ele>184.6</ele>
        <time>2020-02-05T10:46:42.000Z</time>
      </trkpt>
      <trkpt lat="43.95141" lon="1.89142">
        <ele>184</ele>
        <time>2020-02-05T10:46:49.000Z</time>
      </trkpt>
      <trkpt lat="43.95139" lon="1.89154">
        <ele>183.6</ele>
        <time>2020-02-05T10:46:55.000Z</time>
      </trkpt>
      <trkpt lat="43.95137" lon="1.89167">
        <ele>183.4</ele>
        <time>2020-02-05T10:47:02.000Z</time>
      </trkpt>
      <trkpt lat="43.95134" lon="1.8918">
        <ele>183.2</ele>
        <time>2020-02-05T10:47:10.000Z</time>
      </trkpt>
      <trkpt lat="43.95131" lon="1.89193">
        <ele>183</ele>
        <time>2020-02-05T10:47:19.000Z</time>
      </trkpt>
      <trkpt lat="43.95129" lon="1.89206">
        <ele>182.7</ele>
        <time>2020-02-05T10:47:28.000Z</time>
      </trkpt>
      <trkpt lat="43.95127" lon="1.89219">
        <ele>182.5</ele>
        <time>2020-02-05T10:47:37.000Z</time>
      </trkpt>
      <trkpt lat="43.95123" lon="1.89232">
        <ele>182.6</ele>
        <time>2020-02-05T10:47:45.000Z</time>
      </trkpt>
      <trkpt lat="43.95119" lon="1.89245">
        <ele>182.4</ele>
        <time>2020-02-05T10:47:53.000Z</time>
      </trkpt>
      <trkpt lat="43.95116" lon="1.89258">
        <ele>182.3</ele>
        <time>2020-02-05T10:48:01.000Z</time>
      </trkpt>
      <trkpt lat="43.95114" lon="1.8927">
        <ele>182.1</ele>
        <time>2020-02-05T10:48:08.000Z</time>
      </trkpt>
      <trkpt lat="43.95112" lon="1.89283">
        <ele>181.9</ele>
        <time>2020-02-05T10:48:16.000Z</time>
      </trkpt>
      <trkpt lat="43.95106" lon="1.89293">
        <ele>181.7</ele>
        <time>2020-02-05T10:48:25.000Z</time>
      </trkpt>
      <trkpt lat="43.95098" lon="1.89301">
        <ele>181.7</ele>
        <time>2020-02-05T10:48:34.000Z</time>
      </trkpt>
      <trkpt lat="43.95091" lon="1.89309">
        <ele>182</ele>
        <time>2020-02-05T10:48:43.000Z</time>
      </trkpt>
      <trkpt lat="43.95083" lon="1.89318">
        <ele>182.1</ele>
        <time>2020-02-05T10:48:51.000Z</time>
      </trkpt>
      <trkpt lat="43.95075" lon="1.89325">
        <ele>182.4</ele>
        <time>2020-02-05T10:48:59.000Z</time>
      </trkpt>
      <trkpt lat="43.95067" lon="1.89332">
        <ele>182.7</ele>
        <time>2020-02-05T10:49:07.000Z</time>
      </trkpt>
      <trkpt lat="43.95059" lon="1.8934">
        <ele>183.2</ele>
        <time>2020-02-05T10:49:16.000Z</time>
      </trkpt>
      <trkpt lat="43.95052" lon="1.8935">
        <ele>183.7</ele>
        <time>2020-02-05T10:49:24.000Z</time>
      </trkpt>
      <trkpt lat="43.95046" lon="1.8936">
        <ele>184.2</ele>
        <time>2020-02-05T10:49:31.000Z</time>
      </trkpt>
      <trkpt lat="43.95039" lon="1.89369">
        <ele>184.7</ele>
        <time>2020-02-05T10:49:39.000Z</time>
      </trkpt>
      <trkpt lat="43.95033" lon="1.89379">
        <ele>185.1</ele>
        <time>2020-02-05T10:49:47.000Z</time>
      </trkpt>
      <trkpt lat="43.95025" lon="1.89386">
        <ele>185.4</ele>
        <time>2020-02-05T10:49:55.000Z</time>
      </trkpt>
      <trkpt lat="43.95018" lon="1.89395">
        <ele>185.7</ele>
        <time>2020-02-05T10:50:02.000Z</time>
      </trkpt>
      <trkpt lat="43.95012" lon="1.89405">
        <ele>186</ele>
        <time>2020-02-05T10:50:09.000Z</time>
      </trkpt>
      <trkpt lat="43.95005" lon="1.89415">
        <ele>186.4</ele>
        <time>2020-02-05T10:50:17.000Z</time>
      </trkpt>
      <trkpt lat="43.94997" lon="1.89422">
        <ele>187</ele>
        <time>2020-02-05T10:50:26.000Z</time>
      </trkpt>
      <trkpt lat="43.9499" lon="1.8943">
        <ele>187.7</ele>
        <time>2020-02-05T10:50:34.000Z</time>
      </trkpt>
      <trkpt lat="43.94982" lon="1.89439">
        <ele>188.4</ele>
        <time>2020-02-05T10:50:42.000Z</time>
      </trkpt>
      <trkpt lat="43.94975" lon="1.89447">
        <ele>189</ele>
        <time>2020-02-05T10:50:51.000Z</time>
      </trkpt>
      <trkpt lat="43.94967" lon="1.89455">
        <ele>189.4</ele>
        <time>2020-02-05T10:50:58.000Z</time>
      </trkpt>
      <trkpt lat="43.94961" lon="1.89464">
        <ele>189.9</ele>
        <time>2020-02-05T10:51:05.000Z</time>
      </trkpt>
      <trkpt lat="43.94954" lon="1.89474">
        <ele>190.3</ele>
        <time>2020-02-05T10:51:13.000Z</time>
      </trkpt>
      <trkpt lat="43.94949" lon="1.89484">
        <ele>191</ele>
        <time>2020-02-05T10:51:21.000Z</time>
      </trkpt>
      <trkpt lat="43.94942" lon="1.89494">
        <ele>191.7</ele>
        <time>2020-02-05T10:51:30.000Z</time>
      </trkpt>
      <trkpt lat="43.94936" lon="1.89503">
        <ele>192.1</ele>
        <time>2020-02-05T10:51:38.000Z</time>
      </trkpt>
      <trkpt lat="43.9493" lon="1.89514">
        <ele>192.4</ele>
        <time>2020-02-05T10:51:47.000Z</time>
      </trkpt>
      <trkpt lat="43.94924" lon="1.89525">
        <ele>192.9</ele>
        <time>2020-02-05T10:51:56.000Z</time>
      </trkpt>
      <trkpt lat="43.94917" lon="1.89536">
        <ele>193.3</ele>
        <time>2020-02-05T10:52:04.000Z</time>
      </trkpt>
      <trkpt lat="43.94911" lon="1.89545">
        <ele>193.8</ele>
        <time>2020-02-05T10:52:12.000Z</time>
      </trkpt>
      <trkpt lat="43.94904" lon="1.89556">
        <ele>194.1</ele>
        <time>2020-02-05T10:52:20.000Z</time>
      </trkpt>
      <trkpt lat="43.94897" lon="1.89564">
        <ele>194.3</ele>
        <time>2020-02-05T10:52:28.000Z</time>
      </trkpt>
      <trkpt lat="43.94889" lon="1.8957">
        <ele>194.6</ele>
        <time>2020-02-05T10:52:36.000Z</time>
      </trkpt>
      <trkpt lat="43.94881" lon="1.89577">
        <ele>195</ele>
        <time>2020-02-05T10:52:45.000Z</time>
      </trkpt>
      <trkpt lat="43.94874" lon="1.89586">
        <ele>195.2</ele>
        <time>2020-02-05T10:52:53.000Z</time>
      </trkpt>
      <trkpt lat="43.94865" lon="1.8959">
        <ele>195.5</ele>
        <time>2020-02-05T10:53:01.000Z</time>
      </trkpt>
      <trkpt lat="43.94855" lon="1.89595">
        <ele>195.9</ele>
        <time>2020-02-05T10:53:08.000Z</time>
      </trkpt>
      <trkpt lat="43.94846" lon="1.89597">
        <ele>196.2</ele>
        <time>2020-02-05T10:53:16.000Z</time>
      </trkpt>
      <trkpt lat="43.94837" lon="1.89598">
        <ele>196.5</ele>
        <time>2020-02-05T10:53:24.000Z</time>
      </trkpt>
      <trkpt lat="43.94827" lon="1.89599">
        <ele>196.9</ele>
        <time>2020-02-05T10:53:34.000Z</time>
      </trkpt>
      <trkpt lat="43.94817" lon="1.89598">
        <ele>197.3</ele>
        <time>2020-02-05T10:53:42.000Z</time>
      </trkpt>
      <trkpt lat="43.94805" lon="1.89597">
        <ele>197.7</ele>
        <time>2020-02-05T10:53:49.000Z</time>
      </trkpt>
      <trkpt lat="43.94796" lon="1.89595">
        <ele>198</ele>
        <time>2020-02-05T10:53:55.000Z</time>
      </trkpt>
      <trkpt lat="43.94786" lon="1.89595">
        <ele>198.2</ele>
        <time>2020-02-05T10:54:03.000Z</time>
      </trkpt>
      <trkpt lat="43.94777" lon="1.89597">
        <ele>199</ele>
        <time>2020-02-05T10:54:15.000Z</time>
      </trkpt>
      <trkpt lat="43.94767" lon="1.89599">
        <ele>199.8</ele>
        <time>2020-02-05T10:54:26.000Z</time>
      </trkpt>
      <trkpt lat="43.94758" lon="1.89602">
        <ele>200.6</ele>
        <time>2020-02-05T10:54:35.000Z</time>
      </trkpt>
      <trkpt lat="43.94749" lon="1.89605">
        <ele>201.7</ele>
        <time>2020-02-05T10:54:44.000Z</time>
      </trkpt>
      <trkpt lat="43.9474" lon="1.89606">
        <ele>202.4</ele>
        <time>2020-02-05T10:54:51.000Z</time>
      </trkpt>
      <trkpt lat="43.9473" lon="1.89609">
        <ele>203.7</ele>
        <time>2020-02-05T10:55:01.000Z</time>
      </trkpt>
      <trkpt lat="43.94722" lon="1.89612">
        <ele>204.8</ele>
        <time>2020-02-05T10:55:11.000Z</time>
      </trkpt>
      <trkpt lat="43.94712" lon="1.89616">
        <ele>205.9</ele>
        <time>2020-02-05T10:55:20.000Z</time>
      </trkpt>
      <trkpt lat="43.94703" lon="1.8962">
        <ele>206.9</ele>
        <time>2020-02-05T10:55:27.000Z</time>
      </trkpt>
      <trkpt lat="43.94694" lon="1.89624">
        <ele>207.9</ele>
        <time>2020-02-05T10:55:34.000Z</time>
      </trkpt>
      <trkpt lat="43.94686" lon="1.89629">
        <ele>209.4</ele>
        <time>2020-02-05T10:55:44.000Z</time>
      </trkpt>
      <trkpt lat="43.94677" lon="1.89635">
        <ele>211.3</ele>
        <time>2020-02-05T10:55:58.000Z</time>
      </trkpt>
      <trkpt lat="43.94667" lon="1.89639">
        <ele>212.8</ele>
        <time>2020-02-05T10:56:09.000Z</time>
      </trkpt>
      <trkpt lat="43.94659" lon="1.89644">
        <ele>214.2</ele>
        <time>2020-02-05T10:56:18.000Z</time>
      </trkpt>
      <trkpt lat="43.9465" lon="1.89649">
        <ele>215.7</ele>
        <time>2020-02-05T10:56:27.000Z</time>
      </trkpt>
      <trkpt lat="43.94642" lon="1.89655">
        <ele>217.1</ele>
        <time>2020-02-05T10:56:37.000Z</time>
      </trkpt>
      <trkpt lat="43.94633" lon="1.89661">
        <ele>218.5</ele>
        <time>2020-02-05T10:56:46.000Z</time>
      </trkpt>
      <trkpt lat="43.94624" lon="1.89667">
        <ele>219.8</ele>
        <time>2020-02-05T10:56:55.000Z</time>
      </trkpt>
      <trkpt lat="43.94615" lon="1.89673">
        <ele>221.5</ele>
        <time>2020-02-05T10:57:05.000Z</time>
      </trkpt>
      <trkpt lat="43.94606" lon="1.89676">
        <ele>223.1</ele>
        <time>2020-02-05T10:57:15.000Z</time>
      </trkpt>
      <trkpt lat="43.94598" lon="1.89684">
        <ele>224.4</ele>
        <time>2020-02-05T10:57:24.000Z</time>
      </trkpt>
      <trkpt lat="43.94589" lon="1.89691">
        <ele>225.8</ele>
        <time>2020-02-05T10:57:33.000Z</time>
      </trkpt>
      <trkpt lat="43.94582" lon="1.897">
        <ele>227.2</ele>
        <time>2020-02-05T10:57:43.000Z</time>
      </trkpt>
      <trkpt lat="43.94575" lon="1.89709">
        <ele>228.5</ele>
        <time>2020-02-05T10:57:52.000Z</time>
      </trkpt>
      <trkpt lat="43.9457" lon="1.8972">
        <ele>229.6</ele>
        <time>2020-02-05T10:57:59.000Z</time>
      </trkpt>
      <trkpt lat="43.94564" lon="1.89731">
        <ele>230.9</ele>
        <time>2020-02-05T10:58:08.000Z</time>
      </trkpt>
      <trkpt lat="43.94556" lon="1.89736">
        <ele>231.9</ele>
        <time>2020-02-05T10:58:15.000Z</time>
      </trkpt>
      <trkpt lat="43.94547" lon="1.8974">
        <ele>233.6</ele>
        <time>2020-02-05T10:58:25.000Z</time>
      </trkpt>
      <trkpt lat="43.94538" lon="1.89744">
        <ele>235</ele>
        <time>2020-02-05T10:58:34.000Z</time>
      </trkpt>
      <trkpt lat="43.94529" lon="1.89749">
        <ele>236.2</ele>
        <time>2020-02-05T10:58:44.000Z</time>
      </trkpt>
      <trkpt lat="43.9452" lon="1.89752">
        <ele>237.2</ele>
        <time>2020-02-05T10:58:52.000Z</time>
      </trkpt>
      <trkpt lat="43.9451" lon="1.89755">
        <ele>237.9</ele>
        <time>2020-02-05T10:58:59.000Z</time>
      </trkpt>
      <trkpt lat="43.94501" lon="1.89757">
        <ele>238.5</ele>
        <time>2020-02-05T10:59:06.000Z</time>
      </trkpt>
      <trkpt lat="43.94493" lon="1.89762">
        <ele>239.3</ele>
        <time>2020-02-05T10:59:14.000Z</time>
      </trkpt>
      <trkpt lat="43.94484" lon="1.89767">
        <ele>239.9</ele>
        <time>2020-02-05T10:59:22.000Z</time>
      </trkpt>
      <trkpt lat="43.94475" lon="1.89771">
        <ele>240.8</ele>
        <time>2020-02-05T10:59:31.000Z</time>
      </trkpt>
      <trkpt lat="43.94466" lon="1.89774">
        <ele>241.3</ele>
        <time>2020-02-05T10:59:39.000Z</time>
      </trkpt>
      <trkpt lat="43.94458" lon="1.89778">
        <ele>242</ele>
        <time>2020-02-05T10:59:52.000Z</time>
      </trkpt>
      <trkpt lat="43.94453" lon="1.8979">
        <ele>249.3</ele>
        <time>2020-02-05T11:06:30.000Z</time>
      </trkpt>
      <trkpt lat="43.94453" lon="1.89802">
        <ele>249.1</ele>
        <time>2020-02-05T11:06:39.000Z</time>
      </trkpt>
      <trkpt lat="43.94455" lon="1.89815">
        <ele>248.8</ele>
        <time>2020-02-05T11:06:49.000Z</time>
      </trkpt>
      <trkpt lat="43.94454" lon="1.89828">
        <ele>248.3</ele>
        <time>2020-02-05T11:06:59.000Z</time>
      </trkpt>
      <trkpt lat="43.94452" lon="1.89841">
        <ele>247.8</ele>
        <time>2020-02-05T11:07:08.000Z</time>
      </trkpt>
      <trkpt lat="43.94448" lon="1.89853">
        <ele>247.2</ele>
        <time>2020-02-05T11:07:16.000Z</time>
      </trkpt>
      <trkpt lat="43.94443" lon="1.89864">
        <ele>246.8</ele>
        <time>2020-02-05T11:07:25.000Z</time>
      </trkpt>
      <trkpt lat="43.94437" lon="1.89875">
        <ele>246.5</ele>
        <time>2020-02-05T11:07:33.000Z</time>
      </trkpt>
      <trkpt lat="43.94433" lon="1.89887">
        <ele>246.2</ele>
        <time>2020-02-05T11:07:40.000Z</time>
      </trkpt>
      <trkpt lat="43.94427" lon="1.899">
        <ele>245.9</ele>
        <time>2020-02-05T11:07:48.000Z</time>
      </trkpt>
      <trkpt lat="43.94423" lon="1.89912">
        <ele>245.2</ele>
        <time>2020-02-05T11:07:57.000Z</time>
      </trkpt>
      <trkpt lat="43.94417" lon="1.89924">
        <ele>244.9</ele>
        <time>2020-02-05T11:08:06.000Z</time>
      </trkpt>
      <trkpt lat="43.94413" lon="1.89935">
        <ele>244.6</ele>
        <time>2020-02-05T11:08:14.000Z</time>
      </trkpt>
      <trkpt lat="43.94409" lon="1.89947">
        <ele>244.4</ele>
        <time>2020-02-05T11:08:21.000Z</time>
      </trkpt>
      <trkpt lat="43.94408" lon="1.8996">
        <ele>244.3</ele>
        <time>2020-02-05T11:08:29.000Z</time>
      </trkpt>
      <trkpt lat="43.94412" lon="1.89971">
        <ele>244</ele>
        <time>2020-02-05T11:08:37.000Z</time>
      </trkpt>
      <trkpt lat="43.9442" lon="1.8998">
        <ele>243.6</ele>
        <time>2020-02-05T11:08:46.000Z</time>
      </trkpt>
      <trkpt lat="43.94429" lon="1.89986">
        <ele>243.3</ele>
        <time>2020-02-05T11:08:55.000Z</time>
      </trkpt>
      <trkpt lat="43.94437" lon="1.89991">
        <ele>243.1</ele>
        <time>2020-02-05T11:09:04.000Z</time>
      </trkpt>
      <trkpt lat="43.94446" lon="1.89999">
        <ele>243.1</ele>
        <time>2020-02-05T11:09:12.000Z</time>
      </trkpt>
      <trkpt lat="43.94452" lon="1.90009">
        <ele>242.7</ele>
        <time>2020-02-05T11:09:19.000Z</time>
      </trkpt>
      <trkpt lat="43.94455" lon="1.90021">
        <ele>242.4</ele>
        <time>2020-02-05T11:09:26.000Z</time>
      </trkpt>
      <trkpt lat="43.94457" lon="1.90034">
        <ele>241.9</ele>
        <time>2020-02-05T11:09:36.000Z</time>
      </trkpt>
      <trkpt lat="43.94463" lon="1.90044">
        <ele>241.9</ele>
        <time>2020-02-05T11:09:44.000Z</time>
      </trkpt>
      <trkpt lat="43.94471" lon="1.90053">
        <ele>241.7</ele>
        <time>2020-02-05T11:09:53.000Z</time>
      </trkpt>
      <trkpt lat="43.94479" lon="1.9006">
        <ele>241.6</ele>
        <time>2020-02-05T11:10:01.000Z</time>
      </trkpt>
      <trkpt lat="43.94488" lon="1.90066">
        <ele>241.3</ele>
        <time>2020-02-05T11:10:09.000Z</time>
      </trkpt>
      <trkpt lat="43.94493" lon="1.90077">
        <ele>241</ele>
        <time>2020-02-05T11:10:16.000Z</time>
      </trkpt>
      <trkpt lat="43.94497" lon="1.90088">
        <ele>240.6</ele>
        <time>2020-02-05T11:10:23.000Z</time>
      </trkpt>
      <trkpt lat="43.94498" lon="1.90102">
        <ele>240.2</ele>
        <time>2020-02-05T11:10:32.000Z</time>
      </trkpt>
      <trkpt lat="43.94493" lon="1.90114">
        <ele>240.1</ele>
        <time>2020-02-05T11:10:41.000Z</time>
      </trkpt>
      <trkpt lat="43.94491" lon="1.90127">
        <ele>239.9</ele>
        <time>2020-02-05T11:10:49.000Z</time>
      </trkpt>
      <trkpt lat="43.94491" lon="1.9014">
        <ele>239.8</ele>
        <time>2020-02-05T11:10:57.000Z</time>
      </trkpt>
      <trkpt lat="43.9449" lon="1.90153">
        <ele>239.9</ele>
        <time>2020-02-05T11:11:06.000Z</time>
      </trkpt>
      <trkpt lat="43.94488" lon="1.90167">
        <ele>239.9</ele>
        <time>2020-02-05T11:11:15.000Z</time>
      </trkpt>
      <trkpt lat="43.94486" lon="1.90179">
        <ele>239.9</ele>
        <time>2020-02-05T11:11:24.000Z</time>
      </trkpt>
      <trkpt lat="43.94483" lon="1.90193">
        <ele>239.9</ele>
        <time>2020-02-05T11:11:31.000Z</time>
      </trkpt>
      <trkpt lat="43.94476" lon="1.90203">
        <ele>239.9</ele>
        <time>2020-02-05T11:11:38.000Z</time>
      </trkpt>
      <trkpt lat="43.94473" lon="1.90214">
        <ele>240</ele>
        <time>2020-02-05T11:11:48.000Z</time>
      </trkpt>
      <trkpt lat="43.94469" lon="1.90227">
        <ele>240</ele>
        <time>2020-02-05T11:11:58.000Z</time>
      </trkpt>
      <trkpt lat="43.9446" lon="1.90232">
        <ele>240.1</ele>
        <time>2020-02-05T11:12:06.000Z</time>
      </trkpt>
      <trkpt lat="43.94452" lon="1.90237">
        <ele>240.2</ele>
        <time>2020-02-05T11:12:14.000Z</time>
      </trkpt>
      <trkpt lat="43.94444" lon="1.90243">
        <ele>240</ele>
        <time>2020-02-05T11:12:23.000Z</time>
      </trkpt>
      <trkpt lat="43.94434" lon="1.90244">
        <ele>239.9</ele>
        <time>2020-02-05T11:12:31.000Z</time>
      </trkpt>
      <trkpt lat="43.94425" lon="1.90241">
        <ele>239.9</ele>
        <time>2020-02-05T11:12:39.000Z</time>
      </trkpt>
      <trkpt lat="43.94416" lon="1.90236">
        <ele>239.7</ele>
        <time>2020-02-05T11:12:49.000Z</time>
      </trkpt>
      <trkpt lat="43.94407" lon="1.90235">
        <ele>239.6</ele>
        <time>2020-02-05T11:12:55.000Z</time>
      </trkpt>
      <trkpt lat="43.94399" lon="1.90228">
        <ele>239.3</ele>
        <time>2020-02-05T11:13:04.000Z</time>
      </trkpt>
      <trkpt lat="43.94392" lon="1.9022">
        <ele>239</ele>
        <time>2020-02-05T11:13:11.000Z</time>
      </trkpt>
      <trkpt lat="43.94385" lon="1.90212">
        <ele>238.4</ele>
        <time>2020-02-05T11:13:18.000Z</time>
      </trkpt>
      <trkpt lat="43.94377" lon="1.90205">
        <ele>238</ele>
        <time>2020-02-05T11:13:27.000Z</time>
      </trkpt>
      <trkpt lat="43.94369" lon="1.90198">
        <ele>237.8</ele>
        <time>2020-02-05T11:13:37.000Z</time>
      </trkpt>
      <trkpt lat="43.94361" lon="1.90192">
        <ele>237.8</ele>
        <time>2020-02-05T11:13:42.000Z</time>
      </trkpt>
      <trkpt lat="43.94352" lon="1.90187">
        <ele>237.5</ele>
        <time>2020-02-05T11:13:54.000Z</time>
      </trkpt>
      <trkpt lat="43.94344" lon="1.90182">
        <ele>237.7</ele>
        <time>2020-02-05T11:14:04.000Z</time>
      </trkpt>
      <trkpt lat="43.94335" lon="1.90179">
        <ele>238.4</ele>
        <time>2020-02-05T11:14:13.000Z</time>
      </trkpt>
      <trkpt lat="43.94326" lon="1.90173">
        <ele>239</ele>
        <time>2020-02-05T11:14:20.000Z</time>
      </trkpt>
      <trkpt lat="43.94316" lon="1.90172">
        <ele>240</ele>
        <time>2020-02-05T11:14:30.000Z</time>
      </trkpt>
      <trkpt lat="43.94307" lon="1.90171">
        <ele>241</ele>
        <time>2020-02-05T11:14:42.000Z</time>
      </trkpt>
      <trkpt lat="43.94297" lon="1.90171">
        <ele>241.9</ele>
        <time>2020-02-05T11:14:53.000Z</time>
      </trkpt>
      <trkpt lat="43.94288" lon="1.90168">
        <ele>242.8</ele>
        <time>2020-02-05T11:15:03.000Z</time>
      </trkpt>
      <trkpt lat="43.94279" lon="1.90166">
        <ele>243.7</ele>
        <time>2020-02-05T11:15:14.000Z</time>
      </trkpt>
      <trkpt lat="43.9427" lon="1.90162">
        <ele>244.5</ele>
        <time>2020-02-05T11:15:22.000Z</time>
      </trkpt>
      <trkpt lat="43.94264" lon="1.90153">
        <ele>245.6</ele>
        <time>2020-02-05T11:15:31.000Z</time>
      </trkpt>
      <trkpt lat="43.94256" lon="1.90145">
        <ele>247.7</ele>
        <time>2020-02-05T11:15:45.000Z</time>
      </trkpt>
      <trkpt lat="43.94247" lon="1.90142">
        <ele>249</ele>
        <time>2020-02-05T11:15:57.000Z</time>
      </trkpt>
      <trkpt lat="43.94238" lon="1.90146">
        <ele>249.5</ele>
        <time>2020-02-05T11:16:08.000Z</time>
      </trkpt>
      <trkpt lat="43.94233" lon="1.90158">
        <ele>249.7</ele>
        <time>2020-02-05T11:16:17.000Z</time>
      </trkpt>
      <trkpt lat="43.94227" lon="1.90167">
        <ele>249.7</ele>
        <time>2020-02-05T11:16:25.000Z</time>
      </trkpt>
      <trkpt lat="43.94221" lon="1.90177">
        <ele>249.4</ele>
        <time>2020-02-05T11:16:33.000Z</time>
      </trkpt>
      <trkpt lat="43.94213" lon="1.90187">
        <ele>248.7</ele>
        <time>2020-02-05T11:16:44.000Z</time>
      </trkpt>
      <trkpt lat="43.94207" lon="1.90197">
        <ele>248.1</ele>
        <time>2020-02-05T11:16:56.000Z</time>
      </trkpt>
      <trkpt lat="43.94203" lon="1.90209">
        <ele>247.9</ele>
        <time>2020-02-05T11:17:11.000Z</time>
      </trkpt>
      <trkpt lat="43.94195" lon="1.90214">
        <ele>247.8</ele>
        <time>2020-02-05T11:17:17.000Z</time>
      </trkpt>
      <trkpt lat="43.9419" lon="1.90226">
        <ele>247.6</ele>
        <time>2020-02-05T11:17:25.000Z</time>
      </trkpt>
      <trkpt lat="43.94181" lon="1.90233">
        <ele>247.4</ele>
        <time>2020-02-05T11:17:31.000Z</time>
      </trkpt>
      <trkpt lat="43.94173" lon="1.90243">
        <ele>247.3</ele>
        <time>2020-02-05T11:17:37.000Z</time>
      </trkpt>
      <trkpt lat="43.94167" lon="1.90253">
        <ele>247.2</ele>
        <time>2020-02-05T11:17:45.000Z</time>
      </trkpt>
      <trkpt lat="43.94161" lon="1.90262">
        <ele>247.1</ele>
        <time>2020-02-05T11:17:56.000Z</time>
      </trkpt>
      <trkpt lat="43.94154" lon="1.90271">
        <ele>246.9</ele>
        <time>2020-02-05T11:18:03.000Z</time>
      </trkpt>
      <trkpt lat="43.94148" lon="1.90281">
        <ele>246.7</ele>
        <time>2020-02-05T11:18:11.000Z</time>
      </trkpt>
      <trkpt lat="43.9414" lon="1.90289">
        <ele>246.7</ele>
        <time>2020-02-05T11:18:20.000Z</time>
      </trkpt>
      <trkpt lat="43.94134" lon="1.90298">
        <ele>246.8</ele>
        <time>2020-02-05T11:18:33.000Z</time>
      </trkpt>
      <trkpt lat="43.94126" lon="1.90307">
        <ele>246.6</ele>
        <time>2020-02-05T11:18:41.000Z</time>
      </trkpt>
      <trkpt lat="43.94118" lon="1.90315">
        <ele>246.4</ele>
        <time>2020-02-05T11:18:49.000Z</time>
      </trkpt>
      <trkpt lat="43.94112" lon="1.90325">
        <ele>245.9</ele>
        <time>2020-02-05T11:18:56.000Z</time>
      </trkpt>
      <trkpt lat="43.94106" lon="1.90335">
        <ele>245.3</ele>
        <time>2020-02-05T11:19:05.000Z</time>
      </trkpt>
      <trkpt lat="43.94102" lon="1.90348">
        <ele>244</ele>
        <time>2020-02-05T11:19:16.000Z</time>
      </trkpt>
      <trkpt lat="43.94103" lon="1.90362">
        <ele>243.2</ele>
        <time>2020-02-05T11:19:23.000Z</time>
      </trkpt>
      <trkpt lat="43.94102" lon="1.90375">
        <ele>242.4</ele>
        <time>2020-02-05T11:19:31.000Z</time>
      </trkpt>
      <trkpt lat="43.94094" lon="1.90384">
        <ele>241.4</ele>
        <time>2020-02-05T11:19:39.000Z</time>
      </trkpt>
      <trkpt lat="43.94087" lon="1.90392">
        <ele>240.2</ele>
        <time>2020-02-05T11:19:49.000Z</time>
      </trkpt>
      <trkpt lat="43.94079" lon="1.90399">
        <ele>239</ele>
        <time>2020-02-05T11:20:00.000Z</time>
      </trkpt>
      <trkpt lat="43.94071" lon="1.90407">
        <ele>238.2</ele>
        <time>2020-02-05T11:20:09.000Z</time>
      </trkpt>
      <trkpt lat="43.94065" lon="1.90416">
        <ele>237</ele>
        <time>2020-02-05T11:20:17.000Z</time>
      </trkpt>
      <trkpt lat="43.94059" lon="1.90426">
        <ele>236.1</ele>
        <time>2020-02-05T11:20:24.000Z</time>
      </trkpt>
      <trkpt lat="43.94055" lon="1.90437">
        <ele>235.3</ele>
        <time>2020-02-05T11:20:32.000Z</time>
      </trkpt>
      <trkpt lat="43.94051" lon="1.9045">
        <ele>233.9</ele>
        <time>2020-02-05T11:20:43.000Z</time>
      </trkpt>
      <trkpt lat="43.94046" lon="1.90462">
        <ele>232.9</ele>
        <time>2020-02-05T11:20:53.000Z</time>
      </trkpt>
      <trkpt lat="43.94041" lon="1.90473">
        <ele>231.5</ele>
        <time>2020-02-05T11:21:02.000Z</time>
      </trkpt>
      <trkpt lat="43.94033" lon="1.90482">
        <ele>230.2</ele>
        <time>2020-02-05T11:21:11.000Z</time>
      </trkpt>
      <trkpt lat="43.94027" lon="1.90492">
        <ele>228.8</ele>
        <time>2020-02-05T11:21:22.000Z</time>
      </trkpt>
      <trkpt lat="43.94022" lon="1.90503">
        <ele>227.7</ele>
        <time>2020-02-05T11:21:32.000Z</time>
      </trkpt>
      <trkpt lat="43.94016" lon="1.90515">
        <ele>226.1</ele>
        <time>2020-02-05T11:21:42.000Z</time>
      </trkpt>
      <trkpt lat="43.94009" lon="1.90525">
        <ele>224.6</ele>
        <time>2020-02-05T11:21:52.000Z</time>
      </trkpt>
      <trkpt lat="43.94002" lon="1.90533">
        <ele>223.4</ele>
        <time>2020-02-05T11:22:00.000Z</time>
      </trkpt>
      <trkpt lat="43.93997" lon="1.90544">
        <ele>222.5</ele>
        <time>2020-02-05T11:22:08.000Z</time>
      </trkpt>
      <trkpt lat="43.93999" lon="1.90556">
        <ele>220.6</ele>
        <time>2020-02-05T11:22:21.000Z</time>
      </trkpt>
      <trkpt lat="43.93991" lon="1.90563">
        <ele>217.5</ele>
        <time>2020-02-05T11:22:45.000Z</time>
      </trkpt>
      <trkpt lat="43.93983" lon="1.9057">
        <ele>216.5</ele>
        <time>2020-02-05T11:22:54.000Z</time>
      </trkpt>
      <trkpt lat="43.93977" lon="1.9058">
        <ele>214.4</ele>
        <time>2020-02-05T11:23:06.000Z</time>
      </trkpt>
      <trkpt lat="43.93972" lon="1.90591">
        <ele>212.1</ele>
        <time>2020-02-05T11:23:19.000Z</time>
      </trkpt>
      <trkpt lat="43.93965" lon="1.90599">
        <ele>210.4</ele>
        <time>2020-02-05T11:23:28.000Z</time>
      </trkpt>
      <trkpt lat="43.93959" lon="1.90608">
        <ele>208.3</ele>
        <time>2020-02-05T11:23:38.000Z</time>
      </trkpt>
      <trkpt lat="43.93952" lon="1.9062">
        <ele>206.6</ele>
        <time>2020-02-05T11:23:47.000Z</time>
      </trkpt>
      <trkpt lat="43.93946" lon="1.90631">
        <ele>204.8</ele>
        <time>2020-02-05T11:23:57.000Z</time>
      </trkpt>
      <trkpt lat="43.93938" lon="1.90638">
        <ele>203.3</ele>
        <time>2020-02-05T11:24:08.000Z</time>
      </trkpt>
      <trkpt lat="43.93933" lon="1.90649">
        <ele>202.3</ele>
        <time>2020-02-05T11:24:16.000Z</time>
      </trkpt>
      <trkpt lat="43.93928" lon="1.9066">
        <ele>201.1</ele>
        <time>2020-02-05T11:24:23.000Z</time>
      </trkpt>
      <trkpt lat="43.93922" lon="1.90671">
        <ele>200.1</ele>
        <time>2020-02-05T11:24:31.000Z</time>
      </trkpt>
      <trkpt lat="43.93918" lon="1.90682">
        <ele>199.1</ele>
        <time>2020-02-05T11:24:42.000Z</time>
      </trkpt>
      <trkpt lat="43.93908" lon="1.90692">
        <ele>198.1</ele>
        <time>2020-02-05T11:24:49.000Z</time>
      </trkpt>
      <trkpt lat="43.93901" lon="1.90703">
        <ele>196.8</ele>
        <time>2020-02-05T11:24:59.000Z</time>
      </trkpt>
      <trkpt lat="43.93892" lon="1.90709">
        <ele>196.1</ele>
        <time>2020-02-05T11:25:06.000Z</time>
      </trkpt>
      <trkpt lat="43.93884" lon="1.90715">
        <ele>195.7</ele>
        <time>2020-02-05T11:25:13.000Z</time>
      </trkpt>
      <trkpt lat="43.93875" lon="1.90719">
        <ele>195.1</ele>
        <time>2020-02-05T11:25:23.000Z</time>
      </trkpt>
      <trkpt lat="43.93868" lon="1.90727">
        <ele>194.6</ele>
        <time>2020-02-05T11:25:33.000Z</time>
      </trkpt>
      <trkpt lat="43.93861" lon="1.90737">
        <ele>194.3</ele>
        <time>2020-02-05T11:25:44.000Z</time>
      </trkpt>
      <trkpt lat="43.93855" lon="1.90748">
        <ele>194.3</ele>
        <time>2020-02-05T11:25:54.000Z</time>
      </trkpt>
      <trkpt lat="43.93847" lon="1.90755">
        <ele>194.3</ele>
        <time>2020-02-05T11:25:59.000Z</time>
      </trkpt>
      <trkpt lat="43.93839" lon="1.90763">
        <ele>194.5</ele>
        <time>2020-02-05T11:26:08.000Z</time>
      </trkpt>
      <trkpt lat="43.9383" lon="1.9077">
        <ele>194.8</ele>
        <time>2020-02-05T11:26:15.000Z</time>
      </trkpt>
      <trkpt lat="43.93824" lon="1.90779">
        <ele>195.2</ele>
        <time>2020-02-05T11:26:23.000Z</time>
      </trkpt>
      <trkpt lat="43.93821" lon="1.90791">
        <ele>195.6</ele>
        <time>2020-02-05T11:26:33.000Z</time>
      </trkpt>
      <trkpt lat="43.93816" lon="1.90802">
        <ele>196.7</ele>
        <time>2020-02-05T11:26:46.000Z</time>
      </trkpt>
      <trkpt lat="43.93809" lon="1.90809">
        <ele>197.3</ele>
        <time>2020-02-05T11:26:56.000Z</time>
      </trkpt>
      <trkpt lat="43.93801" lon="1.90818">
        <ele>198.6</ele>
        <time>2020-02-05T11:27:13.000Z</time>
      </trkpt>
      <trkpt lat="43.93793" lon="1.90826">
        <ele>199.8</ele>
        <time>2020-02-05T11:27:23.000Z</time>
      </trkpt>
      <trkpt lat="43.93787" lon="1.90837">
        <ele>201</ele>
        <time>2020-02-05T11:27:34.000Z</time>
      </trkpt>
      <trkpt lat="43.93784" lon="1.90849">
        <ele>202.1</ele>
        <time>2020-02-05T11:27:47.000Z</time>
      </trkpt>
      <trkpt lat="43.93778" lon="1.90859">
        <ele>203.4</ele>
        <time>2020-02-05T11:28:00.000Z</time>
      </trkpt>
      <trkpt lat="43.93771" lon="1.90869">
        <ele>204.5</ele>
        <time>2020-02-05T11:28:09.000Z</time>
      </trkpt>
      <trkpt lat="43.93764" lon="1.90878">
        <ele>206.2</ele>
        <time>2020-02-05T11:28:21.000Z</time>
      </trkpt>
      <trkpt lat="43.93756" lon="1.90884">
        <ele>207.2</ele>
        <time>2020-02-05T11:28:31.000Z</time>
      </trkpt>
      <trkpt lat="43.9375" lon="1.90894">
        <ele>208.4</ele>
        <time>2020-02-05T11:28:43.000Z</time>
      </trkpt>
      <trkpt lat="43.93744" lon="1.90904">
        <ele>209</ele>
        <time>2020-02-05T11:28:51.000Z</time>
      </trkpt>
      <trkpt lat="43.93738" lon="1.90914">
        <ele>209.4</ele>
        <time>2020-02-05T11:29:00.000Z</time>
      </trkpt>
      <trkpt lat="43.93731" lon="1.90928">
        <ele>209.5</ele>
        <time>2020-02-05T11:29:07.000Z</time>
      </trkpt>
      <trkpt lat="43.93726" lon="1.90938">
        <ele>209.5</ele>
        <time>2020-02-05T11:29:14.000Z</time>
      </trkpt>
      <trkpt lat="43.93719" lon="1.90949">
        <ele>209</ele>
        <time>2020-02-05T11:29:21.000Z</time>
      </trkpt>
      <trkpt lat="43.93714" lon="1.90961">
        <ele>208.6</ele>
        <time>2020-02-05T11:29:29.000Z</time>
      </trkpt>
      <trkpt lat="43.93708" lon="1.90972">
        <ele>207.9</ele>
        <time>2020-02-05T11:29:37.000Z</time>
      </trkpt>
      <trkpt lat="43.93703" lon="1.90984">
        <ele>207.5</ele>
        <time>2020-02-05T11:29:45.000Z</time>
      </trkpt>
      <trkpt lat="43.93698" lon="1.90996">
        <ele>207.1</ele>
        <time>2020-02-05T11:29:54.000Z</time>
      </trkpt>
      <trkpt lat="43.93691" lon="1.91005">
        <ele>206.5</ele>
        <time>2020-02-05T11:30:03.000Z</time>
      </trkpt>
      <trkpt lat="43.93683" lon="1.91012">
        <ele>205.7</ele>
        <time>2020-02-05T11:30:12.000Z</time>
      </trkpt>
      <trkpt lat="43.93675" lon="1.91019">
        <ele>204.9</ele>
        <time>2020-02-05T11:30:22.000Z</time>
      </trkpt>
      <trkpt lat="43.93667" lon="1.91027">
        <ele>204.2</ele>
        <time>2020-02-05T11:30:33.000Z</time>
      </trkpt>
      <trkpt lat="43.93661" lon="1.91038">
        <ele>203.4</ele>
        <time>2020-02-05T11:30:43.000Z</time>
      </trkpt>
      <trkpt lat="43.93654" lon="1.91047">
        <ele>202.7</ele>
        <time>2020-02-05T11:30:51.000Z</time>
      </trkpt>
      <trkpt lat="43.93647" lon="1.91056">
        <ele>202.2</ele>
        <time>2020-02-05T11:31:00.000Z</time>
      </trkpt>
      <trkpt lat="43.93637" lon="1.91055">
        <ele>201.8</ele>
        <time>2020-02-05T11:31:09.000Z</time>
      </trkpt>
      <trkpt lat="43.93628" lon="1.9105">
        <ele>201.3</ele>
        <time>2020-02-05T11:31:16.000Z</time>
      </trkpt>
      <trkpt lat="43.9362" lon="1.91041">
        <ele>200.9</ele>
        <time>2020-02-05T11:31:26.000Z</time>
      </trkpt>
      <trkpt lat="43.93613" lon="1.91033">
        <ele>200.8</ele>
        <time>2020-02-05T11:31:35.000Z</time>
      </trkpt>
      <trkpt lat="43.93605" lon="1.91043">
        <ele>200.9</ele>
        <time>2020-02-05T11:31:42.000Z</time>
      </trkpt>
      <trkpt lat="43.936" lon="1.91054">
        <ele>200.9</ele>
        <time>2020-02-05T11:31:47.000Z</time>
      </trkpt>
      <trkpt lat="43.93597" lon="1.91067">
        <ele>200.9</ele>
        <time>2020-02-05T11:31:56.000Z</time>
      </trkpt>
      <trkpt lat="43.93592" lon="1.91078">
        <ele>200.3</ele>
        <time>2020-02-05T11:32:05.000Z</time>
      </trkpt>
      <trkpt lat="43.93586" lon="1.91088">
        <ele>199.5</ele>
        <time>2020-02-05T11:32:17.000Z</time>
      </trkpt>
      <trkpt lat="43.93578" lon="1.91095">
        <ele>199.1</ele>
        <time>2020-02-05T11:32:25.000Z</time>
      </trkpt>
      <trkpt lat="43.93572" lon="1.91106">
        <ele>198.1</ele>
        <time>2020-02-05T11:32:34.000Z</time>
      </trkpt>
      <trkpt lat="43.9357" lon="1.91119">
        <ele>197.4</ele>
        <time>2020-02-05T11:32:43.000Z</time>
      </trkpt>
      <trkpt lat="43.93573" lon="1.91131">
        <ele>196.8</ele>
        <time>2020-02-05T11:32:50.000Z</time>
      </trkpt>
      <trkpt lat="43.93567" lon="1.91143">
        <ele>196.3</ele>
        <time>2020-02-05T11:32:56.000Z</time>
      </trkpt>
      <trkpt lat="43.93562" lon="1.91154">
        <ele>195.4</ele>
        <time>2020-02-05T11:33:08.000Z</time>
      </trkpt>
      <trkpt lat="43.9355" lon="1.91155">
        <ele>194.9</ele>
        <time>2020-02-05T11:33:20.000Z</time>
      </trkpt>
      <trkpt lat="43.9356" lon="1.91156">
        <ele>195.1</ele>
        <time>2020-02-05T12:09:13.000Z</time>
      </trkpt>
      <trkpt lat="43.93569" lon="1.91153">
        <ele>195</ele>
        <time>2020-02-05T12:09:23.000Z</time>
      </trkpt>
      <trkpt lat="43.93574" lon="1.9114">
        <ele>195</ele>
        <time>2020-02-05T12:09:31.000Z</time>
      </trkpt>
      <trkpt lat="43.93578" lon="1.91128">
        <ele>195.4</ele>
        <time>2020-02-05T12:09:39.000Z</time>
      </trkpt>
      <trkpt lat="43.93585" lon="1.91119">
        <ele>195.9</ele>
        <time>2020-02-05T12:09:46.000Z</time>
      </trkpt>
      <trkpt lat="43.93586" lon="1.91107">
        <ele>196.8</ele>
        <time>2020-02-05T12:09:55.000Z</time>
      </trkpt>
      <trkpt lat="43.93591" lon="1.91096">
        <ele>198.2</ele>
        <time>2020-02-05T12:10:09.000Z</time>
      </trkpt>
      <trkpt lat="43.93599" lon="1.91088">
        <ele>199.4</ele>
        <time>2020-02-05T12:10:20.000Z</time>
      </trkpt>
      <trkpt lat="43.93602" lon="1.91075">
        <ele>200.2</ele>
        <time>2020-02-05T12:10:28.000Z</time>
      </trkpt>
      <trkpt lat="43.93604" lon="1.91063">
        <ele>201.3</ele>
        <time>2020-02-05T12:10:38.000Z</time>
      </trkpt>
      <trkpt lat="43.93606" lon="1.9105">
        <ele>202.1</ele>
        <time>2020-02-05T12:10:48.000Z</time>
      </trkpt>
      <trkpt lat="43.93616" lon="1.91054">
        <ele>202.8</ele>
        <time>2020-02-05T12:10:59.000Z</time>
      </trkpt>
      <trkpt lat="43.93623" lon="1.91062">
        <ele>203</ele>
        <time>2020-02-05T12:11:08.000Z</time>
      </trkpt>
      <trkpt lat="43.93628" lon="1.91073">
        <ele>203.2</ele>
        <time>2020-02-05T12:11:21.000Z</time>
      </trkpt>
      <trkpt lat="43.93621" lon="1.91083">
        <ele>203</ele>
        <time>2020-02-05T12:11:32.000Z</time>
      </trkpt>
      <trkpt lat="43.93615" lon="1.91093">
        <ele>202.2</ele>
        <time>2020-02-05T12:11:42.000Z</time>
      </trkpt>
      <trkpt lat="43.9361" lon="1.91103">
        <ele>201.5</ele>
        <time>2020-02-05T12:11:51.000Z</time>
      </trkpt>
      <trkpt lat="43.93609" lon="1.91116">
        <ele>201</ele>
        <time>2020-02-05T12:11:58.000Z</time>
      </trkpt>
      <trkpt lat="43.9361" lon="1.91129">
        <ele>200.1</ele>
        <time>2020-02-05T12:12:06.000Z</time>
      </trkpt>
      <trkpt lat="43.93611" lon="1.91143">
        <ele>199.5</ele>
        <time>2020-02-05T12:12:14.000Z</time>
      </trkpt>
      <trkpt lat="43.93612" lon="1.91157">
        <ele>198.9</ele>
        <time>2020-02-05T12:12:22.000Z</time>
      </trkpt>
      <trkpt lat="43.93612" lon="1.9117">
        <ele>198.4</ele>
        <time>2020-02-05T12:12:31.000Z</time>
      </trkpt>
      <trkpt lat="43.93609" lon="1.91183">
        <ele>197.8</ele>
        <time>2020-02-05T12:12:40.000Z</time>
      </trkpt>
      <trkpt lat="43.93611" lon="1.91196">
        <ele>197.1</ele>
        <time>2020-02-05T12:12:49.000Z</time>
      </trkpt>
      <trkpt lat="43.93614" lon="1.91208">
        <ele>196.1</ele>
        <time>2020-02-05T12:12:57.000Z</time>
      </trkpt>
      <trkpt lat="43.93616" lon="1.91221">
        <ele>195</ele>
        <time>2020-02-05T12:13:06.000Z</time>
      </trkpt>
      <trkpt lat="43.93618" lon="1.91233">
        <ele>193.8</ele>
        <time>2020-02-05T12:13:14.000Z</time>
      </trkpt>
      <trkpt lat="43.93621" lon="1.91246">
        <ele>192.6</ele>
        <time>2020-02-05T12:13:22.000Z</time>
      </trkpt>
      <trkpt lat="43.93623" lon="1.91259">
        <ele>191.9</ele>
        <time>2020-02-05T12:13:30.000Z</time>
      </trkpt>
      <trkpt lat="43.93625" lon="1.91272">
        <ele>191</ele>
        <time>2020-02-05T12:13:39.000Z</time>
      </trkpt>
      <trkpt lat="43.93626" lon="1.91286">
        <ele>190.3</ele>
        <time>2020-02-05T12:13:49.000Z</time>
      </trkpt>
      <trkpt lat="43.93628" lon="1.91299">
        <ele>189.5</ele>
        <time>2020-02-05T12:13:59.000Z</time>
      </trkpt>
      <trkpt lat="43.9363" lon="1.91312">
        <ele>188.5</ele>
        <time>2020-02-05T12:14:09.000Z</time>
      </trkpt>
      <trkpt lat="43.93631" lon="1.91325">
        <ele>187.1</ele>
        <time>2020-02-05T12:14:18.000Z</time>
      </trkpt>
      <trkpt lat="43.93635" lon="1.91338">
        <ele>186.1</ele>
        <time>2020-02-05T12:14:25.000Z</time>
      </trkpt>
      <trkpt lat="43.9364" lon="1.91349">
        <ele>185</ele>
        <time>2020-02-05T12:14:34.000Z</time>
      </trkpt>
      <trkpt lat="43.93645" lon="1.9136">
        <ele>184.2</ele>
        <time>2020-02-05T12:14:42.000Z</time>
      </trkpt>
      <trkpt lat="43.93649" lon="1.91372">
        <ele>183.1</ele>
        <time>2020-02-05T12:14:50.000Z</time>
      </trkpt>
      <trkpt lat="43.93653" lon="1.91383">
        <ele>182.2</ele>
        <time>2020-02-05T12:14:58.000Z</time>
      </trkpt>
      <trkpt lat="43.93657" lon="1.91395">
        <ele>181.3</ele>
        <time>2020-02-05T12:15:07.000Z</time>
      </trkpt>
      <trkpt lat="43.93662" lon="1.91407">
        <ele>180.7</ele>
        <time>2020-02-05T12:15:15.000Z</time>
      </trkpt>
      <trkpt lat="43.93666" lon="1.91418">
        <ele>180</ele>
        <time>2020-02-05T12:15:23.000Z</time>
      </trkpt>
      <trkpt lat="43.93673" lon="1.91429">
        <ele>179.4</ele>
        <time>2020-02-05T12:15:33.000Z</time>
      </trkpt>
      <trkpt lat="43.9368" lon="1.91438">
        <ele>179.2</ele>
        <time>2020-02-05T12:15:43.000Z</time>
      </trkpt>
      <trkpt lat="43.93682" lon="1.91451">
        <ele>179.1</ele>
        <time>2020-02-05T12:15:54.000Z</time>
      </trkpt>
      <trkpt lat="43.93683" lon="1.91466">
        <ele>179.1</ele>
        <time>2020-02-05T12:16:05.000Z</time>
      </trkpt>
      <trkpt lat="43.93684" lon="1.91478">
        <ele>179.1</ele>
        <time>2020-02-05T12:16:14.000Z</time>
      </trkpt>
      <trkpt lat="43.93681" lon="1.91491">
        <ele>179.3</ele>
        <time>2020-02-05T12:16:24.000Z</time>
      </trkpt>
      <trkpt lat="43.93675" lon="1.91501">
        <ele>179.5</ele>
        <time>2020-02-05T12:16:34.000Z</time>
      </trkpt>
      <trkpt lat="43.93671" lon="1.91514">
        <ele>179.9</ele>
        <time>2020-02-05T12:16:42.000Z</time>
      </trkpt>
      <trkpt lat="43.93663" lon="1.9152">
        <ele>180.3</ele>
        <time>2020-02-05T12:16:51.000Z</time>
      </trkpt>
      <trkpt lat="43.93657" lon="1.9153">
        <ele>180.3</ele>
        <time>2020-02-05T12:17:03.000Z</time>
      </trkpt>
      <trkpt lat="43.93649" lon="1.91537">
        <ele>180.6</ele>
        <time>2020-02-05T12:17:13.000Z</time>
      </trkpt>
      <trkpt lat="43.93642" lon="1.91545">
        <ele>180.8</ele>
        <time>2020-02-05T12:17:20.000Z</time>
      </trkpt>
      <trkpt lat="43.93635" lon="1.91554">
        <ele>180.6</ele>
        <time>2020-02-05T12:17:27.000Z</time>
      </trkpt>
      <trkpt lat="43.93626" lon="1.91563">
        <ele>180.3</ele>
        <time>2020-02-05T12:17:33.000Z</time>
      </trkpt>
      <trkpt lat="43.9362" lon="1.91573">
        <ele>180.3</ele>
        <time>2020-02-05T12:17:41.000Z</time>
      </trkpt>
      <trkpt lat="43.93616" lon="1.91585">
        <ele>180.3</ele>
        <time>2020-02-05T12:17:48.000Z</time>
      </trkpt>
      <trkpt lat="43.93612" lon="1.91597">
        <ele>180.2</ele>
        <time>2020-02-05T12:17:57.000Z</time>
      </trkpt>
      <trkpt lat="43.93607" lon="1.91586">
        <ele>179.8</ele>
        <time>2020-02-05T12:18:22.000Z</time>
      </trkpt>
      <trkpt lat="43.93598" lon="1.91586">
        <ele>179.7</ele>
        <time>2020-02-05T12:18:37.000Z</time>
      </trkpt>
      <trkpt lat="43.93588" lon="1.91592">
        <ele>179.7</ele>
        <time>2020-02-05T12:18:44.000Z</time>
      </trkpt>
      <trkpt lat="43.93578" lon="1.91594">
        <ele>179.7</ele>
        <time>2020-02-05T12:18:47.000Z</time>
      </trkpt>
      <trkpt lat="43.93569" lon="1.91596">
        <ele>179.6</ele>
        <time>2020-02-05T12:18:53.000Z</time>
      </trkpt>
      <trkpt lat="43.93559" lon="1.91595">
        <ele>179.7</ele>
        <time>2020-02-05T12:19:01.000Z</time>
      </trkpt>
      <trkpt lat="43.93549" lon="1.91595">
        <ele>179.7</ele>
        <time>2020-02-05T12:19:12.000Z</time>
      </trkpt>
      <trkpt lat="43.93539" lon="1.91594">
        <ele>179.7</ele>
        <time>2020-02-05T12:19:20.000Z</time>
      </trkpt>
      <trkpt lat="43.9353" lon="1.91591">
        <ele>179.7</ele>
        <time>2020-02-05T12:19:27.000Z</time>
      </trkpt>
      <trkpt lat="43.9352" lon="1.91593">
        <ele>179.7</ele>
        <time>2020-02-05T12:19:37.000Z</time>
      </trkpt>
      <trkpt lat="43.9351" lon="1.91593">
        <ele>179.4</ele>
        <time>2020-02-05T12:19:44.000Z</time>
      </trkpt>
      <trkpt lat="43.93501" lon="1.91595">
        <ele>179.2</ele>
        <time>2020-02-05T12:19:53.000Z</time>
      </trkpt>
      <trkpt lat="43.93492" lon="1.91597">
        <ele>179.1</ele>
        <time>2020-02-05T12:20:00.000Z</time>
      </trkpt>
      <trkpt lat="43.93483" lon="1.91601">
        <ele>178.8</ele>
        <time>2020-02-05T12:20:09.000Z</time>
      </trkpt>
      <trkpt lat="43.93473" lon="1.91604">
        <ele>178.6</ele>
        <time>2020-02-05T12:20:18.000Z</time>
      </trkpt>
      <trkpt lat="43.93463" lon="1.91605">
        <ele>178.5</ele>
        <time>2020-02-05T12:20:25.000Z</time>
      </trkpt>
      <trkpt lat="43.93454" lon="1.9161">
        <ele>178.1</ele>
        <time>2020-02-05T12:20:40.000Z</time>
      </trkpt>
      <trkpt lat="43.93445" lon="1.91614">
        <ele>178</ele>
        <time>2020-02-05T12:20:46.000Z</time>
      </trkpt>
      <trkpt lat="43.93437" lon="1.91619">
        <ele>177.8</ele>
        <time>2020-02-05T12:20:50.000Z</time>
      </trkpt>
      <trkpt lat="43.93427" lon="1.91623">
        <ele>177.7</ele>
        <time>2020-02-05T12:20:55.000Z</time>
      </trkpt>
      <trkpt lat="43.93418" lon="1.91626">
        <ele>177.7</ele>
        <time>2020-02-05T12:21:03.000Z</time>
      </trkpt>
      <trkpt lat="43.93413" lon="1.91639">
        <ele>177.7</ele>
        <time>2020-02-05T12:21:16.000Z</time>
      </trkpt>
      <trkpt lat="43.93406" lon="1.9165">
        <ele>177.4</ele>
        <time>2020-02-05T12:21:23.000Z</time>
      </trkpt>
      <trkpt lat="43.93395" lon="1.91653">
        <ele>177.3</ele>
        <time>2020-02-05T12:21:31.000Z</time>
      </trkpt>
      <trkpt lat="43.93386" lon="1.91655">
        <ele>177.4</ele>
        <time>2020-02-05T12:21:36.000Z</time>
      </trkpt>
      <trkpt lat="43.93379" lon="1.91665">
        <ele>177.3</ele>
        <time>2020-02-05T12:21:44.000Z</time>
      </trkpt>
      <trkpt lat="43.93371" lon="1.91673">
        <ele>177.3</ele>
        <time>2020-02-05T12:21:50.000Z</time>
      </trkpt>
      <trkpt lat="43.9337" lon="1.91687">
        <ele>177.3</ele>
        <time>2020-02-05T12:22:02.000Z</time>
      </trkpt>
      <trkpt lat="43.93369" lon="1.917">
        <ele>177.3</ele>
        <time>2020-02-05T12:22:09.000Z</time>
      </trkpt>
      <trkpt lat="43.93373" lon="1.91712">
        <ele>177.4</ele>
        <time>2020-02-05T12:22:16.000Z</time>
      </trkpt>
      <trkpt lat="43.93378" lon="1.91722">
        <ele>177.5</ele>
        <time>2020-02-05T12:22:23.000Z</time>
      </trkpt>
      <trkpt lat="43.93384" lon="1.91732">
        <ele>177.7</ele>
        <time>2020-02-05T12:22:30.000Z</time>
      </trkpt>
      <trkpt lat="43.93391" lon="1.9174">
        <ele>177.9</ele>
        <time>2020-02-05T12:22:40.000Z</time>
      </trkpt>
      <trkpt lat="43.93398" lon="1.91749">
        <ele>178</ele>
        <time>2020-02-05T12:22:48.000Z</time>
      </trkpt>
      <trkpt lat="43.93403" lon="1.9176">
        <ele>177.8</ele>
        <time>2020-02-05T12:22:57.000Z</time>
      </trkpt>
      <trkpt lat="43.9341" lon="1.9177">
        <ele>177.7</ele>
        <time>2020-02-05T12:23:03.000Z</time>
      </trkpt>
      <trkpt lat="43.93414" lon="1.91782">
        <ele>177.6</ele>
        <time>2020-02-05T12:23:11.000Z</time>
      </trkpt>
      <trkpt lat="43.93421" lon="1.91791">
        <ele>177.6</ele>
        <time>2020-02-05T12:23:18.000Z</time>
      </trkpt>
      <trkpt lat="43.93431" lon="1.91795">
        <ele>177.5</ele>
        <time>2020-02-05T12:23:26.000Z</time>
      </trkpt>
      <trkpt lat="43.93441" lon="1.91796">
        <ele>177.5</ele>
        <time>2020-02-05T12:23:32.000Z</time>
      </trkpt>
      <trkpt lat="43.93451" lon="1.91794">
        <ele>177.4</ele>
        <time>2020-02-05T12:23:40.000Z</time>
      </trkpt>
      <trkpt lat="43.9346" lon="1.91786">
        <ele>177.2</ele>
        <time>2020-02-05T12:23:47.000Z</time>
      </trkpt>
      <trkpt lat="43.93468" lon="1.91779">
        <ele>177.1</ele>
        <time>2020-02-05T12:23:53.000Z</time>
      </trkpt>
      <trkpt lat="43.93477" lon="1.91772">
        <ele>177.2</ele>
        <time>2020-02-05T12:23:59.000Z</time>
      </trkpt>
      <trkpt lat="43.93486" lon="1.91769">
        <ele>177.5</ele>
        <time>2020-02-05T12:24:08.000Z</time>
      </trkpt>
      <trkpt lat="43.93495" lon="1.91768">
        <ele>178</ele>
        <time>2020-02-05T12:24:17.000Z</time>
      </trkpt>
      <trkpt lat="43.93505" lon="1.91774">
        <ele>178.4</ele>
        <time>2020-02-05T12:24:30.000Z</time>
      </trkpt>
      <trkpt lat="43.93512" lon="1.91784">
        <ele>178.5</ele>
        <time>2020-02-05T12:24:41.000Z</time>
      </trkpt>
      <trkpt lat="43.93518" lon="1.91794">
        <ele>178.7</ele>
        <time>2020-02-05T12:24:50.000Z</time>
      </trkpt>
      <trkpt lat="43.93526" lon="1.91804">
        <ele>179</ele>
        <time>2020-02-05T12:25:00.000Z</time>
      </trkpt>
      <trkpt lat="43.93533" lon="1.91812">
        <ele>179.2</ele>
        <time>2020-02-05T12:25:09.000Z</time>
      </trkpt>
      <trkpt lat="43.93539" lon="1.91822">
        <ele>179.5</ele>
        <time>2020-02-05T12:25:17.000Z</time>
      </trkpt>
      <trkpt lat="43.93545" lon="1.91832">
        <ele>179.8</ele>
        <time>2020-02-05T12:25:25.000Z</time>
      </trkpt>
      <trkpt lat="43.9355" lon="1.91843">
        <ele>180</ele>
        <time>2020-02-05T12:25:33.000Z</time>
      </trkpt>
      <trkpt lat="43.93554" lon="1.91855">
        <ele>180.2</ele>
        <time>2020-02-05T12:25:44.000Z</time>
      </trkpt>
      <trkpt lat="43.93559" lon="1.91865">
        <ele>180.4</ele>
        <time>2020-02-05T12:25:53.000Z</time>
      </trkpt>
      <trkpt lat="43.93565" lon="1.91876">
        <ele>180.6</ele>
        <time>2020-02-05T12:26:02.000Z</time>
      </trkpt>
      <trkpt lat="43.9357" lon="1.91887">
        <ele>180.9</ele>
        <time>2020-02-05T12:26:11.000Z</time>
      </trkpt>
      <trkpt lat="43.93573" lon="1.91899">
        <ele>181.1</ele>
        <time>2020-02-05T12:26:20.000Z</time>
      </trkpt>
      <trkpt lat="43.93576" lon="1.91912">
        <ele>181.5</ele>
        <time>2020-02-05T12:26:30.000Z</time>
      </trkpt>
      <trkpt lat="43.93579" lon="1.91924">
        <ele>181.9</ele>
        <time>2020-02-05T12:26:39.000Z</time>
      </trkpt>
      <trkpt lat="43.93582" lon="1.91936">
        <ele>182.3</ele>
        <time>2020-02-05T12:26:48.000Z</time>
      </trkpt>
      <trkpt lat="43.93588" lon="1.91947">
        <ele>182.7</ele>
        <time>2020-02-05T12:26:58.000Z</time>
      </trkpt>
      <trkpt lat="43.93595" lon="1.91956">
        <ele>183</ele>
        <time>2020-02-05T12:27:06.000Z</time>
      </trkpt>
      <trkpt lat="43.93601" lon="1.91967">
        <ele>183.3</ele>
        <time>2020-02-05T12:27:17.000Z</time>
      </trkpt>
      <trkpt lat="43.93608" lon="1.91976">
        <ele>183.6</ele>
        <time>2020-02-05T12:27:27.000Z</time>
      </trkpt>
      <trkpt lat="43.93618" lon="1.91974">
        <ele>183.7</ele>
        <time>2020-02-05T12:27:37.000Z</time>
      </trkpt>
      <trkpt lat="43.93627" lon="1.91972">
        <ele>183.6</ele>
        <time>2020-02-05T12:27:45.000Z</time>
      </trkpt>
      <trkpt lat="43.93636" lon="1.9197">
        <ele>183.5</ele>
        <time>2020-02-05T12:27:54.000Z</time>
      </trkpt>
      <trkpt lat="43.93645" lon="1.91969">
        <ele>183.9</ele>
        <time>2020-02-05T12:28:03.000Z</time>
      </trkpt>
      <trkpt lat="43.93654" lon="1.91971">
        <ele>184.5</ele>
        <time>2020-02-05T12:28:13.000Z</time>
      </trkpt>
      <trkpt lat="43.93663" lon="1.91976">
        <ele>185</ele>
        <time>2020-02-05T12:28:23.000Z</time>
      </trkpt>
      <trkpt lat="43.93672" lon="1.91981">
        <ele>185.1</ele>
        <time>2020-02-05T12:28:32.000Z</time>
      </trkpt>
      <trkpt lat="43.93681" lon="1.91984">
        <ele>185.4</ele>
        <time>2020-02-05T12:28:40.000Z</time>
      </trkpt>
      <trkpt lat="43.9369" lon="1.91987">
        <ele>185.5</ele>
        <time>2020-02-05T12:28:48.000Z</time>
      </trkpt>
      <trkpt lat="43.93699" lon="1.9199">
        <ele>186.1</ele>
        <time>2020-02-05T12:28:57.000Z</time>
      </trkpt>
      <trkpt lat="43.93708" lon="1.91995">
        <ele>186.7</ele>
        <time>2020-02-05T12:29:07.000Z</time>
      </trkpt>
      <trkpt lat="43.93717" lon="1.91998">
        <ele>187.3</ele>
        <time>2020-02-05T12:29:18.000Z</time>
      </trkpt>
      <trkpt lat="43.93727" lon="1.92">
        <ele>187.9</ele>
        <time>2020-02-05T12:29:29.000Z</time>
      </trkpt>
      <trkpt lat="43.93736" lon="1.92002">
        <ele>188.3</ele>
        <time>2020-02-05T12:29:38.000Z</time>
      </trkpt>
      <trkpt lat="43.93745" lon="1.92002">
        <ele>188.8</ele>
        <time>2020-02-05T12:29:45.000Z</time>
      </trkpt>
      <trkpt lat="43.93754" lon="1.92004">
        <ele>189.3</ele>
        <time>2020-02-05T12:29:55.000Z</time>
      </trkpt>
      <trkpt lat="43.93763" lon="1.92004">
        <ele>189.9</ele>
        <time>2020-02-05T12:30:04.000Z</time>
      </trkpt>
      <trkpt lat="43.93773" lon="1.92003">
        <ele>190.5</ele>
        <time>2020-02-05T12:30:15.000Z</time>
      </trkpt>
      <trkpt lat="43.93782" lon="1.92">
        <ele>190.9</ele>
        <time>2020-02-05T12:30:24.000Z</time>
      </trkpt>
      <trkpt lat="43.93791" lon="1.91997">
        <ele>191.4</ele>
        <time>2020-02-05T12:30:34.000Z</time>
      </trkpt>
      <trkpt lat="43.938" lon="1.91994">
        <ele>191.8</ele>
        <time>2020-02-05T12:30:43.000Z</time>
      </trkpt>
      <trkpt lat="43.93809" lon="1.91992">
        <ele>192.2</ele>
        <time>2020-02-05T12:30:53.000Z</time>
      </trkpt>
      <trkpt lat="43.93818" lon="1.91989">
        <ele>192.8</ele>
        <time>2020-02-05T12:31:02.000Z</time>
      </trkpt>
      <trkpt lat="43.93828" lon="1.91986">
        <ele>193.5</ele>
        <time>2020-02-05T12:31:12.000Z</time>
      </trkpt>
      <trkpt lat="43.93838" lon="1.91984">
        <ele>194.2</ele>
        <time>2020-02-05T12:31:21.000Z</time>
      </trkpt>
      <trkpt lat="43.93847" lon="1.91979">
        <ele>194.8</ele>
        <time>2020-02-05T12:31:31.000Z</time>
      </trkpt>
      <trkpt lat="43.93856" lon="1.91976">
        <ele>195.4</ele>
        <time>2020-02-05T12:31:40.000Z</time>
      </trkpt>
      <trkpt lat="43.93866" lon="1.91972">
        <ele>196.2</ele>
        <time>2020-02-05T12:31:50.000Z</time>
      </trkpt>
      <trkpt lat="43.93876" lon="1.91968">
        <ele>196.6</ele>
        <time>2020-02-05T12:32:01.000Z</time>
      </trkpt>
      <trkpt lat="43.93885" lon="1.91968">
        <ele>196.8</ele>
        <time>2020-02-05T12:32:11.000Z</time>
      </trkpt>
      <trkpt lat="43.93894" lon="1.91966">
        <ele>197.2</ele>
        <time>2020-02-05T12:32:21.000Z</time>
      </trkpt>
      <trkpt lat="43.93904" lon="1.91963">
        <ele>197.5</ele>
        <time>2020-02-05T12:32:31.000Z</time>
      </trkpt>
      <trkpt lat="43.93913" lon="1.9196">
        <ele>197.9</ele>
        <time>2020-02-05T12:32:40.000Z</time>
      </trkpt>
      <trkpt lat="43.93922" lon="1.91958">
        <ele>198.1</ele>
        <time>2020-02-05T12:32:50.000Z</time>
      </trkpt>
      <trkpt lat="43.93932" lon="1.91957">
        <ele>198.4</ele>
        <time>2020-02-05T12:32:59.000Z</time>
      </trkpt>
      <trkpt lat="43.93942" lon="1.91957">
        <ele>198.7</ele>
        <time>2020-02-05T12:33:09.000Z</time>
      </trkpt>
      <trkpt lat="43.93952" lon="1.91957">
        <ele>199.1</ele>
        <time>2020-02-05T12:33:20.000Z</time>
      </trkpt>
      <trkpt lat="43.93961" lon="1.91957">
        <ele>199.3</ele>
        <time>2020-02-05T12:33:31.000Z</time>
      </trkpt>
      <trkpt lat="43.93971" lon="1.91958">
        <ele>199.3</ele>
        <time>2020-02-05T12:33:40.000Z</time>
      </trkpt>
      <trkpt lat="43.9398" lon="1.91958">
        <ele>199.4</ele>
        <time>2020-02-05T12:33:50.000Z</time>
      </trkpt>
      <trkpt lat="43.93989" lon="1.91956">
        <ele>200.4</ele>
        <time>2020-02-05T12:34:39.000Z</time>
      </trkpt>
      <trkpt lat="43.93998" lon="1.91959">
        <ele>200.4</ele>
        <time>2020-02-05T12:34:52.000Z</time>
      </trkpt>
      <trkpt lat="43.94001" lon="1.91972">
        <ele>200.2</ele>
        <time>2020-02-05T12:35:05.000Z</time>
      </trkpt>
      <trkpt lat="43.94004" lon="1.91984">
        <ele>200</ele>
        <time>2020-02-05T12:35:16.000Z</time>
      </trkpt>
      <trkpt lat="43.94008" lon="1.91996">
        <ele>199.9</ele>
        <time>2020-02-05T12:35:28.000Z</time>
      </trkpt>
      <trkpt lat="43.94012" lon="1.92007">
        <ele>199.9</ele>
        <time>2020-02-05T12:35:39.000Z</time>
      </trkpt>
      <trkpt lat="43.94015" lon="1.92019">
        <ele>200.2</ele>
        <time>2020-02-05T12:35:50.000Z</time>
      </trkpt>
      <trkpt lat="43.94021" lon="1.92029">
        <ele>200.6</ele>
        <time>2020-02-05T12:36:00.000Z</time>
      </trkpt>
      <trkpt lat="43.94028" lon="1.92038">
        <ele>201</ele>
        <time>2020-02-05T12:36:08.000Z</time>
      </trkpt>
      <trkpt lat="43.94035" lon="1.92047">
        <ele>201.4</ele>
        <time>2020-02-05T12:36:18.000Z</time>
      </trkpt>
      <trkpt lat="43.94041" lon="1.92055">
        <ele>201.9</ele>
        <time>2020-02-05T12:36:30.000Z</time>
      </trkpt>
      <trkpt lat="43.94048" lon="1.92065">
        <ele>202.3</ele>
        <time>2020-02-05T12:36:42.000Z</time>
      </trkpt>
      <trkpt lat="43.94054" lon="1.92075">
        <ele>202.7</ele>
        <time>2020-02-05T12:36:53.000Z</time>
      </trkpt>
      <trkpt lat="43.9406" lon="1.92085">
        <ele>203.2</ele>
        <time>2020-02-05T12:37:04.000Z</time>
      </trkpt>
      <trkpt lat="43.94068" lon="1.92093">
        <ele>203.9</ele>
        <time>2020-02-05T12:37:16.000Z</time>
      </trkpt>
      <trkpt lat="43.94075" lon="1.92101">
        <ele>204.8</ele>
        <time>2020-02-05T12:37:31.000Z</time>
      </trkpt>
      <trkpt lat="43.94084" lon="1.92107">
        <ele>206.2</ele>
        <time>2020-02-05T12:37:47.000Z</time>
      </trkpt>
      <trkpt lat="43.94092" lon="1.92113">
        <ele>207.3</ele>
        <time>2020-02-05T12:38:01.000Z</time>
      </trkpt>
      <trkpt lat="43.941" lon="1.9212">
        <ele>208.6</ele>
        <time>2020-02-05T12:38:17.000Z</time>
      </trkpt>
      <trkpt lat="43.94108" lon="1.92127">
        <ele>210.5</ele>
        <time>2020-02-05T12:38:35.000Z</time>
      </trkpt>
      <trkpt lat="43.94115" lon="1.92134">
        <ele>212.3</ele>
        <time>2020-02-05T12:38:52.000Z</time>
      </trkpt>
      <trkpt lat="43.94123" lon="1.92141">
        <ele>213.7</ele>
        <time>2020-02-05T12:39:09.000Z</time>
      </trkpt>
      <trkpt lat="43.94131" lon="1.92148">
        <ele>215.6</ele>
        <time>2020-02-05T12:39:27.000Z</time>
      </trkpt>
      <trkpt lat="43.94139" lon="1.92155">
        <ele>217.2</ele>
        <time>2020-02-05T12:39:45.000Z</time>
      </trkpt>
      <trkpt lat="43.94147" lon="1.92162">
        <ele>218.8</ele>
        <time>2020-02-05T12:40:02.000Z</time>
      </trkpt>
      <trkpt lat="43.94156" lon="1.92167">
        <ele>220.3</ele>
        <time>2020-02-05T12:40:19.000Z</time>
      </trkpt>
      <trkpt lat="43.94165" lon="1.92169">
        <ele>222</ele>
        <time>2020-02-05T12:40:35.000Z</time>
      </trkpt>
      <trkpt lat="43.94174" lon="1.9217">
        <ele>223.8</ele>
        <time>2020-02-05T12:40:51.000Z</time>
      </trkpt>
      <trkpt lat="43.94183" lon="1.92174">
        <ele>225.6</ele>
        <time>2020-02-05T12:41:09.000Z</time>
      </trkpt>
      <trkpt lat="43.94192" lon="1.92179">
        <ele>227.2</ele>
        <time>2020-02-05T12:41:24.000Z</time>
      </trkpt>
      <trkpt lat="43.94201" lon="1.92185">
        <ele>228.6</ele>
        <time>2020-02-05T12:41:38.000Z</time>
      </trkpt>
      <trkpt lat="43.9421" lon="1.9219">
        <ele>229.9</ele>
        <time>2020-02-05T12:41:53.000Z</time>
      </trkpt>
      <trkpt lat="43.94219" lon="1.92192">
        <ele>231.2</ele>
        <time>2020-02-05T12:42:07.000Z</time>
      </trkpt>
      <trkpt lat="43.94228" lon="1.92195">
        <ele>232.2</ele>
        <time>2020-02-05T12:42:19.000Z</time>
      </trkpt>
      <trkpt lat="43.94238" lon="1.92197">
        <ele>233.4</ele>
        <time>2020-02-05T12:42:33.000Z</time>
      </trkpt>
      <trkpt lat="43.94247" lon="1.922">
        <ele>234.6</ele>
        <time>2020-02-05T12:42:46.000Z</time>
      </trkpt>
      <trkpt lat="43.94255" lon="1.92206">
        <ele>236</ele>
        <time>2020-02-05T12:43:01.000Z</time>
      </trkpt>
      <trkpt lat="43.9426" lon="1.92217">
        <ele>237.3</ele>
        <time>2020-02-05T12:43:18.000Z</time>
      </trkpt>
      <trkpt lat="43.94261" lon="1.9223">
        <ele>238.6</ele>
        <time>2020-02-05T12:43:32.000Z</time>
      </trkpt>
      <trkpt lat="43.94263" lon="1.92243">
        <ele>239.7</ele>
        <time>2020-02-05T12:43:45.000Z</time>
      </trkpt>
      <trkpt lat="43.94264" lon="1.92255">
        <ele>240.1</ele>
        <time>2020-02-05T12:43:54.000Z</time>
      </trkpt>
      <trkpt lat="43.94266" lon="1.92269">
        <ele>240.3</ele>
        <time>2020-02-05T12:44:04.000Z</time>
      </trkpt>
      <trkpt lat="43.94269" lon="1.92281">
        <ele>240.2</ele>
        <time>2020-02-05T12:44:14.000Z</time>
      </trkpt>
      <trkpt lat="43.94275" lon="1.92291">
        <ele>239.8</ele>
        <time>2020-02-05T12:44:23.000Z</time>
      </trkpt>
      <trkpt lat="43.94281" lon="1.92301">
        <ele>239.4</ele>
        <time>2020-02-05T12:44:34.000Z</time>
      </trkpt>
      <trkpt lat="43.94288" lon="1.9231">
        <ele>239.2</ele>
        <time>2020-02-05T12:44:44.000Z</time>
      </trkpt>
      <trkpt lat="43.94294" lon="1.9232">
        <ele>239.3</ele>
        <time>2020-02-05T12:44:56.000Z</time>
      </trkpt>
      <trkpt lat="43.943" lon="1.92331">
        <ele>239.6</ele>
        <time>2020-02-05T12:45:07.000Z</time>
      </trkpt>
      <trkpt lat="43.94306" lon="1.9234">
        <ele>239.8</ele>
        <time>2020-02-05T12:45:15.000Z</time>
      </trkpt>
      <trkpt lat="43.94312" lon="1.92349">
        <ele>240.1</ele>
        <time>2020-02-05T12:45:24.000Z</time>
      </trkpt>
      <trkpt lat="43.94319" lon="1.92357">
        <ele>240.3</ele>
        <time>2020-02-05T12:45:32.000Z</time>
      </trkpt>
      <trkpt lat="43.94327" lon="1.92365">
        <ele>240.3</ele>
        <time>2020-02-05T12:45:41.000Z</time>
      </trkpt>
      <trkpt lat="43.94334" lon="1.92372">
        <ele>240.3</ele>
        <time>2020-02-05T12:45:50.000Z</time>
      </trkpt>
      <trkpt lat="43.94343" lon="1.92379">
        <ele>240.2</ele>
        <time>2020-02-05T12:45:58.000Z</time>
      </trkpt>
      <trkpt lat="43.9435" lon="1.92388">
        <ele>240</ele>
        <time>2020-02-05T12:46:08.000Z</time>
      </trkpt>
      <trkpt lat="43.94358" lon="1.92396">
        <ele>239.8</ele>
        <time>2020-02-05T12:46:18.000Z</time>
      </trkpt>
      <trkpt lat="43.94367" lon="1.92399">
        <ele>239.7</ele>
        <time>2020-02-05T12:46:30.000Z</time>
      </trkpt>
      <trkpt lat="43.94376" lon="1.92401">
        <ele>239.5</ele>
        <time>2020-02-05T12:46:39.000Z</time>
      </trkpt>
      <trkpt lat="43.94385" lon="1.92404">
        <ele>239.4</ele>
        <time>2020-02-05T12:46:48.000Z</time>
      </trkpt>
      <trkpt lat="43.94393" lon="1.9241">
        <ele>239.2</ele>
        <time>2020-02-05T12:46:57.000Z</time>
      </trkpt>
      <trkpt lat="43.94401" lon="1.92415">
        <ele>239</ele>
        <time>2020-02-05T12:47:07.000Z</time>
      </trkpt>
      <trkpt lat="43.9441" lon="1.92421">
        <ele>239</ele>
        <time>2020-02-05T12:47:18.000Z</time>
      </trkpt>
      <trkpt lat="43.94418" lon="1.92426">
        <ele>239.1</ele>
        <time>2020-02-05T12:47:29.000Z</time>
      </trkpt>
      <trkpt lat="43.94427" lon="1.92432">
        <ele>239.2</ele>
        <time>2020-02-05T12:47:42.000Z</time>
      </trkpt>
      <trkpt lat="43.94435" lon="1.92438">
        <ele>239.6</ele>
        <time>2020-02-05T12:48:02.000Z</time>
      </trkpt>
      <trkpt lat="43.94444" lon="1.92443">
        <ele>239.3</ele>
        <time>2020-02-05T12:49:32.000Z</time>
      </trkpt>
      <trkpt lat="43.94451" lon="1.92452">
        <ele>239.3</ele>
        <time>2020-02-05T12:49:45.000Z</time>
      </trkpt>
      <trkpt lat="43.94458" lon="1.92461">
        <ele>239.3</ele>
        <time>2020-02-05T12:49:53.000Z</time>
      </trkpt>
      <trkpt lat="43.94466" lon="1.92468">
        <ele>239.4</ele>
        <time>2020-02-05T12:50:02.000Z</time>
      </trkpt>
      <trkpt lat="43.94473" lon="1.92477">
        <ele>239.7</ele>
        <time>2020-02-05T12:50:14.000Z</time>
      </trkpt>
      <trkpt lat="43.94479" lon="1.92486">
        <ele>239.9</ele>
        <time>2020-02-05T12:50:26.000Z</time>
      </trkpt>
      <trkpt lat="43.94486" lon="1.92496">
        <ele>240.6</ele>
        <time>2020-02-05T12:50:39.000Z</time>
      </trkpt>
      <trkpt lat="43.94494" lon="1.92503">
        <ele>241</ele>
        <time>2020-02-05T12:50:47.000Z</time>
      </trkpt>
      <trkpt lat="43.94501" lon="1.9251">
        <ele>241.4</ele>
        <time>2020-02-05T12:50:58.000Z</time>
      </trkpt>
      <trkpt lat="43.94508" lon="1.92518">
        <ele>241.8</ele>
        <time>2020-02-05T12:51:09.000Z</time>
      </trkpt>
      <trkpt lat="43.94516" lon="1.92526">
        <ele>242</ele>
        <time>2020-02-05T12:51:18.000Z</time>
      </trkpt>
      <trkpt lat="43.94524" lon="1.92531">
        <ele>242.1</ele>
        <time>2020-02-05T12:51:27.000Z</time>
      </trkpt>
      <trkpt lat="43.94532" lon="1.92538">
        <ele>242.3</ele>
        <time>2020-02-05T12:51:38.000Z</time>
      </trkpt>
      <trkpt lat="43.9454" lon="1.92545">
        <ele>242.7</ele>
        <time>2020-02-05T12:51:48.000Z</time>
      </trkpt>
      <trkpt lat="43.94548" lon="1.92553">
        <ele>243</ele>
        <time>2020-02-05T12:51:57.000Z</time>
      </trkpt>
      <trkpt lat="43.94555" lon="1.92561">
        <ele>243.1</ele>
        <time>2020-02-05T12:52:06.000Z</time>
      </trkpt>
      <trkpt lat="43.94563" lon="1.92568">
        <ele>243</ele>
        <time>2020-02-05T12:52:18.000Z</time>
      </trkpt>
      <trkpt lat="43.94572" lon="1.92572">
        <ele>242.5</ele>
        <time>2020-02-05T12:52:28.000Z</time>
      </trkpt>
      <trkpt lat="43.9458" lon="1.92578">
        <ele>241.8</ele>
        <time>2020-02-05T12:52:37.000Z</time>
      </trkpt>
      <trkpt lat="43.94588" lon="1.92585">
        <ele>241.1</ele>
        <time>2020-02-05T12:52:48.000Z</time>
      </trkpt>
      <trkpt lat="43.94596" lon="1.92592">
        <ele>240.4</ele>
        <time>2020-02-05T12:52:57.000Z</time>
      </trkpt>
      <trkpt lat="43.94606" lon="1.92596">
        <ele>239.3</ele>
        <time>2020-02-05T12:53:04.000Z</time>
      </trkpt>
      <trkpt lat="43.94616" lon="1.92595">
        <ele>238.2</ele>
        <time>2020-02-05T12:53:13.000Z</time>
      </trkpt>
      <trkpt lat="43.94624" lon="1.92588">
        <ele>237.2</ele>
        <time>2020-02-05T12:53:22.000Z</time>
      </trkpt>
      <trkpt lat="43.94633" lon="1.92584">
        <ele>236.2</ele>
        <time>2020-02-05T12:53:33.000Z</time>
      </trkpt>
      <trkpt lat="43.94641" lon="1.92577">
        <ele>235.3</ele>
        <time>2020-02-05T12:53:41.000Z</time>
      </trkpt>
      <trkpt lat="43.9465" lon="1.92582">
        <ele>234.1</ele>
        <time>2020-02-05T12:53:56.000Z</time>
      </trkpt>
      <trkpt lat="43.94658" lon="1.92588">
        <ele>232.8</ele>
        <time>2020-02-05T12:54:08.000Z</time>
      </trkpt>
      <trkpt lat="43.94667" lon="1.92588">
        <ele>231.4</ele>
        <time>2020-02-05T12:54:18.000Z</time>
      </trkpt>
      <trkpt lat="43.94677" lon="1.92585">
        <ele>230.1</ele>
        <time>2020-02-05T12:54:28.000Z</time>
      </trkpt>
      <trkpt lat="43.94685" lon="1.9258">
        <ele>228.9</ele>
        <time>2020-02-05T12:54:40.000Z</time>
      </trkpt>
      <trkpt lat="43.94694" lon="1.92582">
        <ele>227.6</ele>
        <time>2020-02-05T12:54:52.000Z</time>
      </trkpt>
      <trkpt lat="43.94703" lon="1.92584">
        <ele>226.2</ele>
        <time>2020-02-05T12:55:05.000Z</time>
      </trkpt>
      <trkpt lat="43.94712" lon="1.92589">
        <ele>224.8</ele>
        <time>2020-02-05T12:55:18.000Z</time>
      </trkpt>
      <trkpt lat="43.94721" lon="1.92593">
        <ele>223.3</ele>
        <time>2020-02-05T12:55:29.000Z</time>
      </trkpt>
      <trkpt lat="43.9473" lon="1.92597">
        <ele>221.7</ele>
        <time>2020-02-05T12:55:42.000Z</time>
      </trkpt>
      <trkpt lat="43.94739" lon="1.92602">
        <ele>220.3</ele>
        <time>2020-02-05T12:55:52.000Z</time>
      </trkpt>
      <trkpt lat="43.94748" lon="1.92606">
        <ele>219</ele>
        <time>2020-02-05T12:56:05.000Z</time>
      </trkpt>
      <trkpt lat="43.94757" lon="1.92607">
        <ele>217.6</ele>
        <time>2020-02-05T12:56:16.000Z</time>
      </trkpt>
      <trkpt lat="43.94766" lon="1.9261">
        <ele>215.9</ele>
        <time>2020-02-05T12:56:27.000Z</time>
      </trkpt>
      <trkpt lat="43.94773" lon="1.92618">
        <ele>213.3</ele>
        <time>2020-02-05T12:56:44.000Z</time>
      </trkpt>
      <trkpt lat="43.9478" lon="1.92628">
        <ele>210.9</ele>
        <time>2020-02-05T12:56:58.000Z</time>
      </trkpt>
      <trkpt lat="43.94787" lon="1.92636">
        <ele>209.4</ele>
        <time>2020-02-05T12:57:08.000Z</time>
      </trkpt>
      <trkpt lat="43.94793" lon="1.92646">
        <ele>208</ele>
        <time>2020-02-05T12:57:19.000Z</time>
      </trkpt>
      <trkpt lat="43.94799" lon="1.92657">
        <ele>207</ele>
        <time>2020-02-05T12:57:28.000Z</time>
      </trkpt>
      <trkpt lat="43.94803" lon="1.92668">
        <ele>206</ele>
        <time>2020-02-05T12:57:37.000Z</time>
      </trkpt>
      <trkpt lat="43.94807" lon="1.9268">
        <ele>204.8</ele>
        <time>2020-02-05T12:57:47.000Z</time>
      </trkpt>
      <trkpt lat="43.94814" lon="1.92688">
        <ele>203.9</ele>
        <time>2020-02-05T12:57:55.000Z</time>
      </trkpt>
      <trkpt lat="43.9482" lon="1.92698">
        <ele>202.6</ele>
        <time>2020-02-05T12:58:05.000Z</time>
      </trkpt>
      <trkpt lat="43.94827" lon="1.92707">
        <ele>201.6</ele>
        <time>2020-02-05T12:58:18.000Z</time>
      </trkpt>
      <trkpt lat="43.94835" lon="1.92716">
        <ele>201.1</ele>
        <time>2020-02-05T12:58:27.000Z</time>
      </trkpt>
      <trkpt lat="43.9484" lon="1.92726">
        <ele>200.6</ele>
        <time>2020-02-05T12:58:36.000Z</time>
      </trkpt>
      <trkpt lat="43.94847" lon="1.92736">
        <ele>200</ele>
        <time>2020-02-05T12:58:45.000Z</time>
      </trkpt>
      <trkpt lat="43.94854" lon="1.92745">
        <ele>199.2</ele>
        <time>2020-02-05T12:58:54.000Z</time>
      </trkpt>
      <trkpt lat="43.94861" lon="1.92754">
        <ele>198.3</ele>
        <time>2020-02-05T12:59:03.000Z</time>
      </trkpt>
      <trkpt lat="43.94868" lon="1.92763">
        <ele>197.6</ele>
        <time>2020-02-05T12:59:11.000Z</time>
      </trkpt>
      <trkpt lat="43.94874" lon="1.92772">
        <ele>197.2</ele>
        <time>2020-02-05T12:59:19.000Z</time>
      </trkpt>
      <trkpt lat="43.94882" lon="1.92782">
        <ele>195.3</ele>
        <time>2020-02-05T13:00:13.000Z</time>
      </trkpt>
      <trkpt lat="43.94891" lon="1.92786">
        <ele>195</ele>
        <time>2020-02-05T13:00:22.000Z</time>
      </trkpt>
      <trkpt lat="43.94899" lon="1.92782">
        <ele>194.7</ele>
        <time>2020-02-05T13:00:33.000Z</time>
      </trkpt>
      <trkpt lat="43.94908" lon="1.92779">
        <ele>195.8</ele>
        <time>2020-02-05T13:00:43.000Z</time>
      </trkpt>
      <trkpt lat="43.94918" lon="1.92782">
        <ele>196.1</ele>
        <time>2020-02-05T13:00:56.000Z</time>
      </trkpt>
      <trkpt lat="43.94926" lon="1.92788">
        <ele>196.1</ele>
        <time>2020-02-05T13:01:08.000Z</time>
      </trkpt>
      <trkpt lat="43.94934" lon="1.92794">
        <ele>196.7</ele>
        <time>2020-02-05T13:01:19.000Z</time>
      </trkpt>
      <trkpt lat="43.94943" lon="1.928">
        <ele>197.4</ele>
        <time>2020-02-05T13:01:32.000Z</time>
      </trkpt>
      <trkpt lat="43.94951" lon="1.92805">
        <ele>198.5</ele>
        <time>2020-02-05T13:01:44.000Z</time>
      </trkpt>
      <trkpt lat="43.9496" lon="1.92808">
        <ele>199.9</ele>
        <time>2020-02-05T13:02:24.000Z</time>
      </trkpt>
      <trkpt lat="43.9497" lon="1.92809">
        <ele>200.4</ele>
        <time>2020-02-05T13:02:34.000Z</time>
      </trkpt>
      <trkpt lat="43.9498" lon="1.9281">
        <ele>200.6</ele>
        <time>2020-02-05T13:02:48.000Z</time>
      </trkpt>
      <trkpt lat="43.94989" lon="1.92805">
        <ele>202.1</ele>
        <time>2020-02-05T13:02:58.000Z</time>
      </trkpt>
      <trkpt lat="43.94998" lon="1.92801">
        <ele>202.7</ele>
        <time>2020-02-05T13:03:07.000Z</time>
      </trkpt>
      <trkpt lat="43.95007" lon="1.92799">
        <ele>203</ele>
        <time>2020-02-05T13:03:17.000Z</time>
      </trkpt>
      <trkpt lat="43.95015" lon="1.92792">
        <ele>203.6</ele>
        <time>2020-02-05T13:03:29.000Z</time>
      </trkpt>
      <trkpt lat="43.95024" lon="1.92787">
        <ele>204.2</ele>
        <time>2020-02-05T13:03:38.000Z</time>
      </trkpt>
      <trkpt lat="43.9503" lon="1.92778">
        <ele>204.6</ele>
        <time>2020-02-05T13:03:48.000Z</time>
      </trkpt>
      <trkpt lat="43.95036" lon="1.92769">
        <ele>205.1</ele>
        <time>2020-02-05T13:04:01.000Z</time>
      </trkpt>
      <trkpt lat="43.95044" lon="1.92762">
        <ele>205.1</ele>
        <time>2020-02-05T13:04:19.000Z</time>
      </trkpt>
      <trkpt lat="43.95053" lon="1.92755">
        <ele>205.5</ele>
        <time>2020-02-05T13:04:33.000Z</time>
      </trkpt>
      <trkpt lat="43.9506" lon="1.92744">
        <ele>208.3</ele>
        <time>2020-02-05T13:05:21.000Z</time>
      </trkpt>
      <trkpt lat="43.95064" lon="1.92757">
        <ele>208</ele>
        <time>2020-02-05T13:05:50.000Z</time>
      </trkpt>
      <trkpt lat="43.95066" lon="1.92769">
        <ele>207.4</ele>
        <time>2020-02-05T13:06:01.000Z</time>
      </trkpt>
      <trkpt lat="43.9507" lon="1.9278">
        <ele>206.8</ele>
        <time>2020-02-05T13:06:10.000Z</time>
      </trkpt>
      <trkpt lat="43.95073" lon="1.92793">
        <ele>206.2</ele>
        <time>2020-02-05T13:06:19.000Z</time>
      </trkpt>
      <trkpt lat="43.95077" lon="1.92804">
        <ele>205.4</ele>
        <time>2020-02-05T13:06:26.000Z</time>
      </trkpt>
      <trkpt lat="43.9508" lon="1.92816">
        <ele>204.6</ele>
        <time>2020-02-05T13:06:34.000Z</time>
      </trkpt>
      <trkpt lat="43.95085" lon="1.92829">
        <ele>203.6</ele>
        <time>2020-02-05T13:06:44.000Z</time>
      </trkpt>
      <trkpt lat="43.95089" lon="1.92842">
        <ele>202.8</ele>
        <time>2020-02-05T13:06:54.000Z</time>
      </trkpt>
      <trkpt lat="43.95095" lon="1.92854">
        <ele>201.9</ele>
        <time>2020-02-05T13:07:02.000Z</time>
      </trkpt>
      <trkpt lat="43.95099" lon="1.92866">
        <ele>200.7</ele>
        <time>2020-02-05T13:07:11.000Z</time>
      </trkpt>
      <trkpt lat="43.95102" lon="1.92878">
        <ele>199.3</ele>
        <time>2020-02-05T13:07:22.000Z</time>
      </trkpt>
      <trkpt lat="43.95106" lon="1.92891">
        <ele>198.2</ele>
        <time>2020-02-05T13:07:32.000Z</time>
      </trkpt>
      <trkpt lat="43.9511" lon="1.92903">
        <ele>197.1</ele>
        <time>2020-02-05T13:07:41.000Z</time>
      </trkpt>
      <trkpt lat="43.95114" lon="1.92915">
        <ele>195.8</ele>
        <time>2020-02-05T13:07:49.000Z</time>
      </trkpt>
      <trkpt lat="43.95117" lon="1.92927">
        <ele>194.9</ele>
        <time>2020-02-05T13:07:57.000Z</time>
      </trkpt>
      <trkpt lat="43.95121" lon="1.9294">
        <ele>194.4</ele>
        <time>2020-02-05T13:08:05.000Z</time>
      </trkpt>
      <trkpt lat="43.95126" lon="1.92951">
        <ele>193.8</ele>
        <time>2020-02-05T13:08:13.000Z</time>
      </trkpt>
      <trkpt lat="43.9513" lon="1.92963">
        <ele>193.1</ele>
        <time>2020-02-05T13:08:22.000Z</time>
      </trkpt>
      <trkpt lat="43.95133" lon="1.92976">
        <ele>191.8</ele>
        <time>2020-02-05T13:08:32.000Z</time>
      </trkpt>
      <trkpt lat="43.95137" lon="1.92988">
        <ele>190.8</ele>
        <time>2020-02-05T13:08:41.000Z</time>
      </trkpt>
      <trkpt lat="43.95141" lon="1.92999">
        <ele>189.5</ele>
        <time>2020-02-05T13:08:50.000Z</time>
      </trkpt>
      <trkpt lat="43.95146" lon="1.93011">
        <ele>188.7</ele>
        <time>2020-02-05T13:08:58.000Z</time>
      </trkpt>
      <trkpt lat="43.95151" lon="1.93022">
        <ele>187.7</ele>
        <time>2020-02-05T13:09:06.000Z</time>
      </trkpt>
      <trkpt lat="43.95154" lon="1.93034">
        <ele>186.7</ele>
        <time>2020-02-05T13:09:18.000Z</time>
      </trkpt>
      <trkpt lat="43.95158" lon="1.93046">
        <ele>186.1</ele>
        <time>2020-02-05T13:09:28.000Z</time>
      </trkpt>
      <trkpt lat="43.95162" lon="1.93058">
        <ele>184.9</ele>
        <time>2020-02-05T13:09:37.000Z</time>
      </trkpt>
      <trkpt lat="43.95164" lon="1.93071">
        <ele>184.1</ele>
        <time>2020-02-05T13:09:44.000Z</time>
      </trkpt>
      <trkpt lat="43.95168" lon="1.93083">
        <ele>183.4</ele>
        <time>2020-02-05T13:09:52.000Z</time>
      </trkpt>
      <trkpt lat="43.95176" lon="1.93089">
        <ele>182.5</ele>
        <time>2020-02-05T13:10:02.000Z</time>
      </trkpt>
      <trkpt lat="43.95184" lon="1.93095">
        <ele>182.1</ele>
        <time>2020-02-05T13:10:09.000Z</time>
      </trkpt>
      <trkpt lat="43.95193" lon="1.93103">
        <ele>181.4</ele>
        <time>2020-02-05T13:10:16.000Z</time>
      </trkpt>
      <trkpt lat="43.95201" lon="1.93107">
        <ele>180.9</ele>
        <time>2020-02-05T13:10:25.000Z</time>
      </trkpt>
      <trkpt lat="43.95208" lon="1.93116">
        <ele>180.5</ele>
        <time>2020-02-05T13:10:31.000Z</time>
      </trkpt>
      <trkpt lat="43.95217" lon="1.9312">
        <ele>180.2</ele>
        <time>2020-02-05T13:10:37.000Z</time>
      </trkpt>
      <trkpt lat="43.95225" lon="1.93127">
        <ele>180</ele>
        <time>2020-02-05T13:10:43.000Z</time>
      </trkpt>
      <trkpt lat="43.95233" lon="1.93135">
        <ele>179.7</ele>
        <time>2020-02-05T13:10:52.000Z</time>
      </trkpt>
      <trkpt lat="43.95241" lon="1.93143">
        <ele>179.6</ele>
        <time>2020-02-05T13:11:01.000Z</time>
      </trkpt>
      <trkpt lat="43.95248" lon="1.93151">
        <ele>179.3</ele>
        <time>2020-02-05T13:11:12.000Z</time>
      </trkpt>
      <trkpt lat="43.95257" lon="1.93158">
        <ele>178.9</ele>
        <time>2020-02-05T13:11:23.000Z</time>
      </trkpt>
      <trkpt lat="43.95263" lon="1.93167">
        <ele>178.9</ele>
        <time>2020-02-05T13:11:33.000Z</time>
      </trkpt>
      <trkpt lat="43.95271" lon="1.93175">
        <ele>179.1</ele>
        <time>2020-02-05T13:11:44.000Z</time>
      </trkpt>
      <trkpt lat="43.95279" lon="1.93181">
        <ele>179.3</ele>
        <time>2020-02-05T13:11:52.000Z</time>
      </trkpt>
      <trkpt lat="43.95286" lon="1.93191">
        <ele>179.3</ele>
        <time>2020-02-05T13:11:58.000Z</time>
      </trkpt>
      <trkpt lat="43.95293" lon="1.93199">
        <ele>179.4</ele>
        <time>2020-02-05T13:12:05.000Z</time>
      </trkpt>
      <trkpt lat="43.95301" lon="1.93206">
        <ele>179.7</ele>
        <time>2020-02-05T13:12:13.000Z</time>
      </trkpt>
      <trkpt lat="43.95309" lon="1.93216">
        <ele>179.9</ele>
        <time>2020-02-05T13:12:19.000Z</time>
      </trkpt>
      <trkpt lat="43.95317" lon="1.93225">
        <ele>180.2</ele>
        <time>2020-02-05T13:12:26.000Z</time>
      </trkpt>
      <trkpt lat="43.95325" lon="1.93232">
        <ele>180.4</ele>
        <time>2020-02-05T13:12:32.000Z</time>
      </trkpt>
      <trkpt lat="43.95334" lon="1.93236">
        <ele>181</ele>
        <time>2020-02-05T13:12:39.000Z</time>
      </trkpt>
      <trkpt lat="43.95343" lon="1.93241">
        <ele>181.7</ele>
        <time>2020-02-05T13:12:47.000Z</time>
      </trkpt>
      <trkpt lat="43.95352" lon="1.93245">
        <ele>182.6</ele>
        <time>2020-02-05T13:12:55.000Z</time>
      </trkpt>
      <trkpt lat="43.95361" lon="1.93249">
        <ele>183.2</ele>
        <time>2020-02-05T13:13:01.000Z</time>
      </trkpt>
      <trkpt lat="43.9537" lon="1.93252">
        <ele>184.4</ele>
        <time>2020-02-05T13:13:12.000Z</time>
      </trkpt>
      <trkpt lat="43.9538" lon="1.93253">
        <ele>185.8</ele>
        <time>2020-02-05T13:13:23.000Z</time>
      </trkpt>
      <trkpt lat="43.95389" lon="1.93257">
        <ele>187.4</ele>
        <time>2020-02-05T13:13:34.000Z</time>
      </trkpt>
      <trkpt lat="43.95398" lon="1.93259">
        <ele>188.9</ele>
        <time>2020-02-05T13:13:46.000Z</time>
      </trkpt>
      <trkpt lat="43.95407" lon="1.93262">
        <ele>189.8</ele>
        <time>2020-02-05T13:13:55.000Z</time>
      </trkpt>
      <trkpt lat="43.95416" lon="1.93263">
        <ele>190.7</ele>
        <time>2020-02-05T13:14:04.000Z</time>
      </trkpt>
      <trkpt lat="43.95425" lon="1.93268">
        <ele>192.1</ele>
        <time>2020-02-05T13:14:14.000Z</time>
      </trkpt>
      <trkpt lat="43.95434" lon="1.9327">
        <ele>193.6</ele>
        <time>2020-02-05T13:14:27.000Z</time>
      </trkpt>
      <trkpt lat="43.95444" lon="1.93271">
        <ele>194.6</ele>
        <time>2020-02-05T13:14:36.000Z</time>
      </trkpt>
      <trkpt lat="43.95452" lon="1.93276">
        <ele>195.6</ele>
        <time>2020-02-05T13:14:45.000Z</time>
      </trkpt>
      <trkpt lat="43.95461" lon="1.9328">
        <ele>196.3</ele>
        <time>2020-02-05T13:14:54.000Z</time>
      </trkpt>
      <trkpt lat="43.9547" lon="1.93284">
        <ele>197</ele>
        <time>2020-02-05T13:15:02.000Z</time>
      </trkpt>
      <trkpt lat="43.95479" lon="1.93289">
        <ele>197.9</ele>
        <time>2020-02-05T13:15:11.000Z</time>
      </trkpt>
      <trkpt lat="43.95487" lon="1.93295">
        <ele>198.6</ele>
        <time>2020-02-05T13:15:19.000Z</time>
      </trkpt>
      <trkpt lat="43.95494" lon="1.93302">
        <ele>199.5</ele>
        <time>2020-02-05T13:15:27.000Z</time>
      </trkpt>
      <trkpt lat="43.95502" lon="1.93311">
        <ele>200.4</ele>
        <time>2020-02-05T13:15:37.000Z</time>
      </trkpt>
      <trkpt lat="43.9551" lon="1.93318">
        <ele>201.3</ele>
        <time>2020-02-05T13:15:46.000Z</time>
      </trkpt>
      <trkpt lat="43.95518" lon="1.93325">
        <ele>202.1</ele>
        <time>2020-02-05T13:15:55.000Z</time>
      </trkpt>
      <trkpt lat="43.95526" lon="1.93332">
        <ele>202.6</ele>
        <time>2020-02-05T13:16:04.000Z</time>
      </trkpt>
      <trkpt lat="43.95534" lon="1.9334">
        <ele>203.5</ele>
        <time>2020-02-05T13:16:13.000Z</time>
      </trkpt>
      <trkpt lat="43.95543" lon="1.93346">
        <ele>204.2</ele>
        <time>2020-02-05T13:16:22.000Z</time>
      </trkpt>
      <trkpt lat="43.95551" lon="1.93351">
        <ele>205.1</ele>
        <time>2020-02-05T13:16:31.000Z</time>
      </trkpt>
      <trkpt lat="43.95561" lon="1.93356">
        <ele>206.1</ele>
        <time>2020-02-05T13:16:41.000Z</time>
      </trkpt>
      <trkpt lat="43.95569" lon="1.93361">
        <ele>207.1</ele>
        <time>2020-02-05T13:16:50.000Z</time>
      </trkpt>
      <trkpt lat="43.95578" lon="1.93367">
        <ele>207.8</ele>
        <time>2020-02-05T13:16:59.000Z</time>
      </trkpt>
      <trkpt lat="43.95587" lon="1.93373">
        <ele>208.2</ele>
        <time>2020-02-05T13:17:06.000Z</time>
      </trkpt>
      <trkpt lat="43.95596" lon="1.93375">
        <ele>208.4</ele>
        <time>2020-02-05T13:17:14.000Z</time>
      </trkpt>
      <trkpt lat="43.95605" lon="1.93378">
        <ele>208.9</ele>
        <time>2020-02-05T13:17:22.000Z</time>
      </trkpt>
      <trkpt lat="43.95615" lon="1.93378">
        <ele>209.3</ele>
        <time>2020-02-05T13:17:31.000Z</time>
      </trkpt>
      <trkpt lat="43.95624" lon="1.93379">
        <ele>210.1</ele>
        <time>2020-02-05T13:17:41.000Z</time>
      </trkpt>
      <trkpt lat="43.95634" lon="1.93378">
        <ele>210.8</ele>
        <time>2020-02-05T13:17:51.000Z</time>
      </trkpt>
      <trkpt lat="43.95644" lon="1.93374">
        <ele>211.6</ele>
        <time>2020-02-05T13:18:01.000Z</time>
      </trkpt>
      <trkpt lat="43.95653" lon="1.9337">
        <ele>212.4</ele>
        <time>2020-02-05T13:18:10.000Z</time>
      </trkpt>
      <trkpt lat="43.95661" lon="1.93363">
        <ele>213.2</ele>
        <time>2020-02-05T13:18:19.000Z</time>
      </trkpt>
      <trkpt lat="43.95668" lon="1.93355">
        <ele>214.2</ele>
        <time>2020-02-05T13:18:29.000Z</time>
      </trkpt>
      <trkpt lat="43.95675" lon="1.93347">
        <ele>215.1</ele>
        <time>2020-02-05T13:18:39.000Z</time>
      </trkpt>
      <trkpt lat="43.95683" lon="1.93341">
        <ele>216.3</ele>
        <time>2020-02-05T13:18:49.000Z</time>
      </trkpt>
      <trkpt lat="43.95692" lon="1.93342">
        <ele>217.4</ele>
        <time>2020-02-05T13:18:58.000Z</time>
      </trkpt>
      <trkpt lat="43.95699" lon="1.93352">
        <ele>218.7</ele>
        <time>2020-02-05T13:19:10.000Z</time>
      </trkpt>
      <trkpt lat="43.95699" lon="1.93365">
        <ele>219.4</ele>
        <time>2020-02-05T13:19:23.000Z</time>
      </trkpt>
      <trkpt lat="43.95698" lon="1.93378">
        <ele>220.1</ele>
        <time>2020-02-05T13:19:33.000Z</time>
      </trkpt>
      <trkpt lat="43.95698" lon="1.9339">
        <ele>221.2</ele>
        <time>2020-02-05T13:19:43.000Z</time>
      </trkpt>
      <trkpt lat="43.95707" lon="1.93394">
        <ele>222.4</ele>
        <time>2020-02-05T13:19:55.000Z</time>
      </trkpt>
      <trkpt lat="43.95713" lon="1.93384">
        <ele>223.6</ele>
        <time>2020-02-05T13:20:10.000Z</time>
      </trkpt>
      <trkpt lat="43.95718" lon="1.93373">
        <ele>224.4</ele>
        <time>2020-02-05T13:20:19.000Z</time>
      </trkpt>
      <trkpt lat="43.95719" lon="1.93359">
        <ele>224.9</ele>
        <time>2020-02-05T13:20:28.000Z</time>
      </trkpt>
      <trkpt lat="43.95719" lon="1.93345">
        <ele>225.2</ele>
        <time>2020-02-05T13:20:36.000Z</time>
      </trkpt>
      <trkpt lat="43.95718" lon="1.93332">
        <ele>225.5</ele>
        <time>2020-02-05T13:20:44.000Z</time>
      </trkpt>
      <trkpt lat="43.95718" lon="1.93319">
        <ele>226.1</ele>
        <time>2020-02-05T13:20:53.000Z</time>
      </trkpt>
      <trkpt lat="43.95716" lon="1.93306">
        <ele>226.6</ele>
        <time>2020-02-05T13:21:03.000Z</time>
      </trkpt>
      <trkpt lat="43.95713" lon="1.93293">
        <ele>227.2</ele>
        <time>2020-02-05T13:21:12.000Z</time>
      </trkpt>
      <trkpt lat="43.95711" lon="1.9328">
        <ele>227.6</ele>
        <time>2020-02-05T13:21:20.000Z</time>
      </trkpt>
      <trkpt lat="43.9571" lon="1.93266">
        <ele>228.2</ele>
        <time>2020-02-05T13:21:29.000Z</time>
      </trkpt>
      <trkpt lat="43.95713" lon="1.93253">
        <ele>229</ele>
        <time>2020-02-05T13:21:40.000Z</time>
      </trkpt>
      <trkpt lat="43.95715" lon="1.9324">
        <ele>229.6</ele>
        <time>2020-02-05T13:21:49.000Z</time>
      </trkpt>
      <trkpt lat="43.95719" lon="1.93227">
        <ele>230.1</ele>
        <time>2020-02-05T13:21:58.000Z</time>
      </trkpt>
      <trkpt lat="43.95723" lon="1.93214">
        <ele>230.4</ele>
        <time>2020-02-05T13:22:06.000Z</time>
      </trkpt>
      <trkpt lat="43.95724" lon="1.93201">
        <ele>230.7</ele>
        <time>2020-02-05T13:22:15.000Z</time>
      </trkpt>
      <trkpt lat="43.95722" lon="1.93188">
        <ele>231.8</ele>
        <time>2020-02-05T13:26:13.000Z</time>
      </trkpt>
      <trkpt lat="43.95727" lon="1.93177">
        <ele>231.5</ele>
        <time>2020-02-05T13:26:42.000Z</time>
      </trkpt>
      <trkpt lat="43.9573" lon="1.93165">
        <ele>231.5</ele>
        <time>2020-02-05T13:26:53.000Z</time>
      </trkpt>
      <trkpt lat="43.95734" lon="1.93152">
        <ele>231.6</ele>
        <time>2020-02-05T13:27:02.000Z</time>
      </trkpt>
      <trkpt lat="43.9574" lon="1.93142">
        <ele>231.7</ele>
        <time>2020-02-05T13:27:11.000Z</time>
      </trkpt>
      <trkpt lat="43.95745" lon="1.93131">
        <ele>231.7</ele>
        <time>2020-02-05T13:27:20.000Z</time>
      </trkpt>
      <trkpt lat="43.9575" lon="1.9312">
        <ele>231.3</ele>
        <time>2020-02-05T13:27:28.000Z</time>
      </trkpt>
      <trkpt lat="43.95756" lon="1.93109">
        <ele>231.2</ele>
        <time>2020-02-05T13:27:36.000Z</time>
      </trkpt>
      <trkpt lat="43.95761" lon="1.93098">
        <ele>231.1</ele>
        <time>2020-02-05T13:27:45.000Z</time>
      </trkpt>
      <trkpt lat="43.95769" lon="1.9309">
        <ele>230.4</ele>
        <time>2020-02-05T13:27:56.000Z</time>
      </trkpt>
      <trkpt lat="43.95776" lon="1.93083">
        <ele>229.4</ele>
        <time>2020-02-05T13:28:06.000Z</time>
      </trkpt>
      <trkpt lat="43.95783" lon="1.93072">
        <ele>228</ele>
        <time>2020-02-05T13:28:19.000Z</time>
      </trkpt>
      <trkpt lat="43.95792" lon="1.93074">
        <ele>226.3</ele>
        <time>2020-02-05T13:28:30.000Z</time>
      </trkpt>
      <trkpt lat="43.95801" lon="1.93069">
        <ele>224.7</ele>
        <time>2020-02-05T13:28:40.000Z</time>
      </trkpt>
      <trkpt lat="43.9581" lon="1.93063">
        <ele>223.6</ele>
        <time>2020-02-05T13:28:46.000Z</time>
      </trkpt>
      <trkpt lat="43.95815" lon="1.93052">
        <ele>222.5</ele>
        <time>2020-02-05T13:28:52.000Z</time>
      </trkpt>
      <trkpt lat="43.95821" lon="1.93041">
        <ele>221.3</ele>
        <time>2020-02-05T13:29:00.000Z</time>
      </trkpt>
      <trkpt lat="43.95826" lon="1.9303">
        <ele>220.4</ele>
        <time>2020-02-05T13:29:07.000Z</time>
      </trkpt>
      <trkpt lat="43.95831" lon="1.93018">
        <ele>219</ele>
        <time>2020-02-05T13:29:17.000Z</time>
      </trkpt>
      <trkpt lat="43.95833" lon="1.93005">
        <ele>217.6</ele>
        <time>2020-02-05T13:29:27.000Z</time>
      </trkpt>
      <trkpt lat="43.95838" lon="1.92994">
        <ele>216.6</ele>
        <time>2020-02-05T13:29:35.000Z</time>
      </trkpt>
      <trkpt lat="43.95842" lon="1.92982">
        <ele>215.9</ele>
        <time>2020-02-05T13:29:42.000Z</time>
      </trkpt>
      <trkpt lat="43.95847" lon="1.9297">
        <ele>215</ele>
        <time>2020-02-05T13:29:50.000Z</time>
      </trkpt>
      <trkpt lat="43.95853" lon="1.9296">
        <ele>214.4</ele>
        <time>2020-02-05T13:29:58.000Z</time>
      </trkpt>
      <trkpt lat="43.95857" lon="1.92948">
        <ele>213.7</ele>
        <time>2020-02-05T13:30:07.000Z</time>
      </trkpt>
      <trkpt lat="43.95862" lon="1.92935">
        <ele>213.1</ele>
        <time>2020-02-05T13:30:15.000Z</time>
      </trkpt>
      <trkpt lat="43.95866" lon="1.92924">
        <ele>212.5</ele>
        <time>2020-02-05T13:30:23.000Z</time>
      </trkpt>
      <trkpt lat="43.95871" lon="1.92913">
        <ele>211.8</ele>
        <time>2020-02-05T13:30:31.000Z</time>
      </trkpt>
      <trkpt lat="43.95875" lon="1.92901">
        <ele>211.3</ele>
        <time>2020-02-05T13:30:40.000Z</time>
      </trkpt>
      <trkpt lat="43.95878" lon="1.92888">
        <ele>210.9</ele>
        <time>2020-02-05T13:30:49.000Z</time>
      </trkpt>
      <trkpt lat="43.95882" lon="1.92875">
        <ele>210.2</ele>
        <time>2020-02-05T13:30:58.000Z</time>
      </trkpt>
      <trkpt lat="43.95886" lon="1.92864">
        <ele>209.8</ele>
        <time>2020-02-05T13:31:05.000Z</time>
      </trkpt>
      <trkpt lat="43.95889" lon="1.92852">
        <ele>209.1</ele>
        <time>2020-02-05T13:31:14.000Z</time>
      </trkpt>
      <trkpt lat="43.95893" lon="1.9284">
        <ele>208.6</ele>
        <time>2020-02-05T13:31:23.000Z</time>
      </trkpt>
      <trkpt lat="43.95899" lon="1.92829">
        <ele>208.3</ele>
        <time>2020-02-05T13:31:32.000Z</time>
      </trkpt>
      <trkpt lat="43.95905" lon="1.92817">
        <ele>207.5</ele>
        <time>2020-02-05T13:31:41.000Z</time>
      </trkpt>
      <trkpt lat="43.95911" lon="1.92805">
        <ele>206.7</ele>
        <time>2020-02-05T13:31:49.000Z</time>
      </trkpt>
      <trkpt lat="43.95915" lon="1.92794">
        <ele>206.1</ele>
        <time>2020-02-05T13:31:56.000Z</time>
      </trkpt>
      <trkpt lat="43.9592" lon="1.92783">
        <ele>205.4</ele>
        <time>2020-02-05T13:32:05.000Z</time>
      </trkpt>
      <trkpt lat="43.95924" lon="1.9277">
        <ele>205</ele>
        <time>2020-02-05T13:32:12.000Z</time>
      </trkpt>
      <trkpt lat="43.95927" lon="1.92757">
        <ele>204.4</ele>
        <time>2020-02-05T13:32:21.000Z</time>
      </trkpt>
      <trkpt lat="43.95931" lon="1.92745">
        <ele>204</ele>
        <time>2020-02-05T13:32:30.000Z</time>
      </trkpt>
      <trkpt lat="43.95934" lon="1.92731">
        <ele>203.7</ele>
        <time>2020-02-05T13:32:37.000Z</time>
      </trkpt>
      <trkpt lat="43.95939" lon="1.9272">
        <ele>203.3</ele>
        <time>2020-02-05T13:32:45.000Z</time>
      </trkpt>
      <trkpt lat="43.95944" lon="1.92708">
        <ele>203.1</ele>
        <time>2020-02-05T13:32:53.000Z</time>
      </trkpt>
      <trkpt lat="43.95949" lon="1.92695">
        <ele>202.7</ele>
        <time>2020-02-05T13:33:01.000Z</time>
      </trkpt>
      <trkpt lat="43.95954" lon="1.92683">
        <ele>202.4</ele>
        <time>2020-02-05T13:33:11.000Z</time>
      </trkpt>
      <trkpt lat="43.95955" lon="1.9267">
        <ele>202.4</ele>
        <time>2020-02-05T13:33:20.000Z</time>
      </trkpt>
      <trkpt lat="43.95951" lon="1.92657">
        <ele>202.4</ele>
        <time>2020-02-05T13:33:31.000Z</time>
      </trkpt>
      <trkpt lat="43.9595" lon="1.92644">
        <ele>202</ele>
        <time>2020-02-05T13:33:38.000Z</time>
      </trkpt>
      <trkpt lat="43.9595" lon="1.92631">
        <ele>201.8</ele>
        <time>2020-02-05T13:33:45.000Z</time>
      </trkpt>
      <trkpt lat="43.9595" lon="1.92618">
        <ele>201.4</ele>
        <time>2020-02-05T13:33:53.000Z</time>
      </trkpt>
      <trkpt lat="43.9595" lon="1.92606">
        <ele>201</ele>
        <time>2020-02-05T13:34:01.000Z</time>
      </trkpt>
      <trkpt lat="43.95951" lon="1.92593">
        <ele>200.5</ele>
        <time>2020-02-05T13:34:09.000Z</time>
      </trkpt>
      <trkpt lat="43.95952" lon="1.92579">
        <ele>200.2</ele>
        <time>2020-02-05T13:34:17.000Z</time>
      </trkpt>
      <trkpt lat="43.95954" lon="1.92565">
        <ele>199.9</ele>
        <time>2020-02-05T13:34:25.000Z</time>
      </trkpt>
      <trkpt lat="43.95955" lon="1.92553">
        <ele>199.7</ele>
        <time>2020-02-05T13:34:33.000Z</time>
      </trkpt>
      <trkpt lat="43.95959" lon="1.92539">
        <ele>199.5</ele>
        <time>2020-02-05T13:34:40.000Z</time>
      </trkpt>
      <trkpt lat="43.95961" lon="1.92527">
        <ele>199.3</ele>
        <time>2020-02-05T13:34:47.000Z</time>
      </trkpt>
      <trkpt lat="43.95962" lon="1.92514">
        <ele>199.1</ele>
        <time>2020-02-05T13:34:55.000Z</time>
      </trkpt>
      <trkpt lat="43.95963" lon="1.92501">
        <ele>198.9</ele>
        <time>2020-02-05T13:35:03.000Z</time>
      </trkpt>
      <trkpt lat="43.95963" lon="1.92488">
        <ele>198.6</ele>
        <time>2020-02-05T13:35:11.000Z</time>
      </trkpt>
      <trkpt lat="43.95964" lon="1.92475">
        <ele>198.4</ele>
        <time>2020-02-05T13:35:20.000Z</time>
      </trkpt>
      <trkpt lat="43.95965" lon="1.92462">
        <ele>198.3</ele>
        <time>2020-02-05T13:35:28.000Z</time>
      </trkpt>
      <trkpt lat="43.95965" lon="1.9245">
        <ele>198.3</ele>
        <time>2020-02-05T13:35:36.000Z</time>
      </trkpt>
      <trkpt lat="43.95966" lon="1.92436">
        <ele>198.1</ele>
        <time>2020-02-05T13:35:46.000Z</time>
      </trkpt>
      <trkpt lat="43.95966" lon="1.92422">
        <ele>198.2</ele>
        <time>2020-02-05T13:35:54.000Z</time>
      </trkpt>
      <trkpt lat="43.95966" lon="1.92409">
        <ele>198.4</ele>
        <time>2020-02-05T13:36:02.000Z</time>
      </trkpt>
      <trkpt lat="43.95966" lon="1.92396">
        <ele>198.4</ele>
        <time>2020-02-05T13:36:11.000Z</time>
      </trkpt>
      <trkpt lat="43.95967" lon="1.92382">
        <ele>198.3</ele>
        <time>2020-02-05T13:36:21.000Z</time>
      </trkpt>
      <trkpt lat="43.95974" lon="1.92372">
        <ele>198.1</ele>
        <time>2020-02-05T13:36:31.000Z</time>
      </trkpt>
      <trkpt lat="43.95981" lon="1.92362">
        <ele>198.2</ele>
        <time>2020-02-05T13:36:39.000Z</time>
      </trkpt>
      <trkpt lat="43.95987" lon="1.92352">
        <ele>198.3</ele>
        <time>2020-02-05T13:36:49.000Z</time>
      </trkpt>
      <trkpt lat="43.95989" lon="1.92338">
        <ele>201.2</ele>
        <time>2020-02-05T13:39:10.000Z</time>
      </trkpt>
      <trkpt lat="43.95994" lon="1.92327">
        <ele>201.1</ele>
        <time>2020-02-05T13:39:18.000Z</time>
      </trkpt>
      <trkpt lat="43.95997" lon="1.92315">
        <ele>201.1</ele>
        <time>2020-02-05T13:39:25.000Z</time>
      </trkpt>
      <trkpt lat="43.95999" lon="1.92301">
        <ele>201.1</ele>
        <time>2020-02-05T13:39:32.000Z</time>
      </trkpt>
      <trkpt lat="43.96001" lon="1.92288">
        <ele>201.3</ele>
        <time>2020-02-05T13:39:40.000Z</time>
      </trkpt>
      <trkpt lat="43.96" lon="1.92276">
        <ele>201.4</ele>
        <time>2020-02-05T13:39:48.000Z</time>
      </trkpt>
      <trkpt lat="43.96" lon="1.92263">
        <ele>201.4</ele>
        <time>2020-02-05T13:39:56.000Z</time>
      </trkpt>
      <trkpt lat="43.96" lon="1.92249">
        <ele>201.5</ele>
        <time>2020-02-05T13:40:04.000Z</time>
      </trkpt>
      <trkpt lat="43.96" lon="1.92235">
        <ele>201.6</ele>
        <time>2020-02-05T13:40:12.000Z</time>
      </trkpt>
      <trkpt lat="43.95999" lon="1.92222">
        <ele>202</ele>
        <time>2020-02-05T13:40:21.000Z</time>
      </trkpt>
      <trkpt lat="43.95999" lon="1.92208">
        <ele>202.3</ele>
        <time>2020-02-05T13:40:30.000Z</time>
      </trkpt>
      <trkpt lat="43.95998" lon="1.92195">
        <ele>202.5</ele>
        <time>2020-02-05T13:40:38.000Z</time>
      </trkpt>
      <trkpt lat="43.95996" lon="1.92182">
        <ele>202.6</ele>
        <time>2020-02-05T13:40:45.000Z</time>
      </trkpt>
      <trkpt lat="43.95994" lon="1.92169">
        <ele>203</ele>
        <time>2020-02-05T13:40:53.000Z</time>
      </trkpt>
      <trkpt lat="43.95992" lon="1.92156">
        <ele>203.5</ele>
        <time>2020-02-05T13:41:00.000Z</time>
      </trkpt>
      <trkpt lat="43.95989" lon="1.92143">
        <ele>203.8</ele>
        <time>2020-02-05T13:41:07.000Z</time>
      </trkpt>
      <trkpt lat="43.95985" lon="1.9213">
        <ele>204</ele>
        <time>2020-02-05T13:41:14.000Z</time>
      </trkpt>
      <trkpt lat="43.95982" lon="1.92118">
        <ele>204.7</ele>
        <time>2020-02-05T13:41:22.000Z</time>
      </trkpt>
      <trkpt lat="43.95978" lon="1.92105">
        <ele>205</ele>
        <time>2020-02-05T13:41:30.000Z</time>
      </trkpt>
      <trkpt lat="43.95974" lon="1.92093">
        <ele>205.4</ele>
        <time>2020-02-05T13:41:37.000Z</time>
      </trkpt>
      <trkpt lat="43.9597" lon="1.92081">
        <ele>205.7</ele>
        <time>2020-02-05T13:41:45.000Z</time>
      </trkpt>
      <trkpt lat="43.95966" lon="1.92068">
        <ele>205.9</ele>
        <time>2020-02-05T13:41:52.000Z</time>
      </trkpt>
      <trkpt lat="43.95962" lon="1.92057">
        <ele>206.1</ele>
        <time>2020-02-05T13:41:58.000Z</time>
      </trkpt>
      <trkpt lat="43.95959" lon="1.92044">
        <ele>206.4</ele>
        <time>2020-02-05T13:42:05.000Z</time>
      </trkpt>
      <trkpt lat="43.95955" lon="1.92033">
        <ele>206.8</ele>
        <time>2020-02-05T13:42:12.000Z</time>
      </trkpt>
      <trkpt lat="43.95952" lon="1.92021">
        <ele>207.2</ele>
        <time>2020-02-05T13:42:19.000Z</time>
      </trkpt>
      <trkpt lat="43.95948" lon="1.92008">
        <ele>207.4</ele>
        <time>2020-02-05T13:42:27.000Z</time>
      </trkpt>
      <trkpt lat="43.95946" lon="1.91994">
        <ele>207.8</ele>
        <time>2020-02-05T13:42:36.000Z</time>
      </trkpt>
      <trkpt lat="43.95954" lon="1.91986">
        <ele>208.5</ele>
        <time>2020-02-05T13:42:48.000Z</time>
      </trkpt>
      <trkpt lat="43.95963" lon="1.91983">
        <ele>208.9</ele>
        <time>2020-02-05T13:42:58.000Z</time>
      </trkpt>
      <trkpt lat="43.95973" lon="1.91981">
        <ele>209.6</ele>
        <time>2020-02-05T13:43:07.000Z</time>
      </trkpt>
      <trkpt lat="43.95982" lon="1.9198">
        <ele>210.3</ele>
        <time>2020-02-05T13:43:15.000Z</time>
      </trkpt>
      <trkpt lat="43.95992" lon="1.91978">
        <ele>210.8</ele>
        <time>2020-02-05T13:43:23.000Z</time>
      </trkpt>
      <trkpt lat="43.96001" lon="1.9198">
        <ele>211.5</ele>
        <time>2020-02-05T13:43:31.000Z</time>
      </trkpt>
      <trkpt lat="43.9601" lon="1.91982">
        <ele>212.4</ele>
        <time>2020-02-05T13:43:39.000Z</time>
      </trkpt>
      <trkpt lat="43.96019" lon="1.91986">
        <ele>213</ele>
        <time>2020-02-05T13:43:46.000Z</time>
      </trkpt>
      <trkpt lat="43.96028" lon="1.91988">
        <ele>213.9</ele>
        <time>2020-02-05T13:43:54.000Z</time>
      </trkpt>
      <trkpt lat="43.96038" lon="1.9199">
        <ele>214.7</ele>
        <time>2020-02-05T13:44:03.000Z</time>
      </trkpt>
      <trkpt lat="43.96047" lon="1.9199">
        <ele>215.4</ele>
        <time>2020-02-05T13:44:13.000Z</time>
      </trkpt>
      <trkpt lat="43.96056" lon="1.91989">
        <ele>215.5</ele>
        <time>2020-02-05T13:44:20.000Z</time>
      </trkpt>
      <trkpt lat="43.96066" lon="1.91989">
        <ele>215.2</ele>
        <time>2020-02-05T13:44:27.000Z</time>
      </trkpt>
      <trkpt lat="43.96075" lon="1.91985">
        <ele>214.9</ele>
        <time>2020-02-05T13:44:35.000Z</time>
      </trkpt>
      <trkpt lat="43.96084" lon="1.91983">
        <ele>214.7</ele>
        <time>2020-02-05T13:44:42.000Z</time>
      </trkpt>
      <trkpt lat="43.96094" lon="1.91983">
        <ele>214.1</ele>
        <time>2020-02-05T13:44:49.000Z</time>
      </trkpt>
      <trkpt lat="43.96103" lon="1.91981">
        <ele>213.7</ele>
        <time>2020-02-05T13:44:57.000Z</time>
      </trkpt>
      <trkpt lat="43.96112" lon="1.91984">
        <ele>213.2</ele>
        <time>2020-02-05T13:45:06.000Z</time>
      </trkpt>
      <trkpt lat="43.96122" lon="1.91984">
        <ele>212.8</ele>
        <time>2020-02-05T13:45:14.000Z</time>
      </trkpt>
      <trkpt lat="43.96131" lon="1.91984">
        <ele>212.5</ele>
        <time>2020-02-05T13:45:21.000Z</time>
      </trkpt>
      <trkpt lat="43.96141" lon="1.91989">
        <ele>212.4</ele>
        <time>2020-02-05T13:45:28.000Z</time>
      </trkpt>
      <trkpt lat="43.96151" lon="1.9199">
        <ele>212.4</ele>
        <time>2020-02-05T13:45:36.000Z</time>
      </trkpt>
      <trkpt lat="43.96159" lon="1.91995">
        <ele>212.3</ele>
        <time>2020-02-05T13:45:43.000Z</time>
      </trkpt>
      <trkpt lat="43.96168" lon="1.92">
        <ele>212.3</ele>
        <time>2020-02-05T13:45:50.000Z</time>
      </trkpt>
      <trkpt lat="43.96177" lon="1.92003">
        <ele>212.2</ele>
        <time>2020-02-05T13:45:58.000Z</time>
      </trkpt>
      <trkpt lat="43.96187" lon="1.92004">
        <ele>212.5</ele>
        <time>2020-02-05T13:46:06.000Z</time>
      </trkpt>
      <trkpt lat="43.96196" lon="1.92005">
        <ele>212.7</ele>
        <time>2020-02-05T13:46:14.000Z</time>
      </trkpt>
      <trkpt lat="43.96206" lon="1.92007">
        <ele>213.4</ele>
        <time>2020-02-05T13:46:23.000Z</time>
      </trkpt>
      <trkpt lat="43.96215" lon="1.9201">
        <ele>214</ele>
        <time>2020-02-05T13:46:31.000Z</time>
      </trkpt>
      <trkpt lat="43.96224" lon="1.92011">
        <ele>214.5</ele>
        <time>2020-02-05T13:46:40.000Z</time>
      </trkpt>
      <trkpt lat="43.96234" lon="1.92013">
        <ele>215.1</ele>
        <time>2020-02-05T13:46:49.000Z</time>
      </trkpt>
      <trkpt lat="43.96244" lon="1.92015">
        <ele>215.7</ele>
        <time>2020-02-05T13:46:58.000Z</time>
      </trkpt>
      <trkpt lat="43.96253" lon="1.92018">
        <ele>216.9</ele>
        <time>2020-02-05T13:47:10.000Z</time>
      </trkpt>
      <trkpt lat="43.96263" lon="1.92018">
        <ele>218</ele>
        <time>2020-02-05T13:47:24.000Z</time>
      </trkpt>
      <trkpt lat="43.96271" lon="1.92023">
        <ele>218.9</ele>
        <time>2020-02-05T13:47:34.000Z</time>
      </trkpt>
      <trkpt lat="43.9628" lon="1.92027">
        <ele>220.2</ele>
        <time>2020-02-05T13:47:45.000Z</time>
      </trkpt>
      <trkpt lat="43.96289" lon="1.92031">
        <ele>221.4</ele>
        <time>2020-02-05T13:47:55.000Z</time>
      </trkpt>
      <trkpt lat="43.96297" lon="1.92036">
        <ele>223</ele>
        <time>2020-02-05T13:48:08.000Z</time>
      </trkpt>
      <trkpt lat="43.96306" lon="1.92039">
        <ele>224.5</ele>
        <time>2020-02-05T13:48:21.000Z</time>
      </trkpt>
      <trkpt lat="43.96315" lon="1.92045">
        <ele>225.7</ele>
        <time>2020-02-05T13:48:31.000Z</time>
      </trkpt>
      <trkpt lat="43.96324" lon="1.92049">
        <ele>227</ele>
        <time>2020-02-05T13:48:41.000Z</time>
      </trkpt>
      <trkpt lat="43.96333" lon="1.92055">
        <ele>228.3</ele>
        <time>2020-02-05T13:48:51.000Z</time>
      </trkpt>
      <trkpt lat="43.96342" lon="1.9206">
        <ele>229.8</ele>
        <time>2020-02-05T13:49:02.000Z</time>
      </trkpt>
      <trkpt lat="43.96351" lon="1.92061">
        <ele>231.6</ele>
        <time>2020-02-05T13:49:16.000Z</time>
      </trkpt>
      <trkpt lat="43.96359" lon="1.92052">
        <ele>232.5</ele>
        <time>2020-02-05T13:49:25.000Z</time>
      </trkpt>
      <trkpt lat="43.96365" lon="1.92042">
        <ele>232.7</ele>
        <time>2020-02-05T13:49:32.000Z</time>
      </trkpt>
      <trkpt lat="43.96371" lon="1.92032">
        <ele>232.7</ele>
        <time>2020-02-05T13:49:39.000Z</time>
      </trkpt>
      <trkpt lat="43.96377" lon="1.92019">
        <ele>232.7</ele>
        <time>2020-02-05T13:49:46.000Z</time>
      </trkpt>
      <trkpt lat="43.96383" lon="1.92008">
        <ele>233.1</ele>
        <time>2020-02-05T13:49:54.000Z</time>
      </trkpt>
      <trkpt lat="43.96389" lon="1.91999">
        <ele>233.7</ele>
        <time>2020-02-05T13:50:01.000Z</time>
      </trkpt>
      <trkpt lat="43.96398" lon="1.91999">
        <ele>234.4</ele>
        <time>2020-02-05T13:50:10.000Z</time>
      </trkpt>
      <trkpt lat="43.96402" lon="1.92011">
        <ele>235.1</ele>
        <time>2020-02-05T13:50:16.000Z</time>
      </trkpt>
      <trkpt lat="43.96407" lon="1.92022">
        <ele>235.8</ele>
        <time>2020-02-05T13:50:24.000Z</time>
      </trkpt>
      <trkpt lat="43.96408" lon="1.92035">
        <ele>236.6</ele>
        <time>2020-02-05T13:50:35.000Z</time>
      </trkpt>
      <trkpt lat="43.96407" lon="1.92048">
        <ele>237.4</ele>
        <time>2020-02-05T13:50:46.000Z</time>
      </trkpt>
      <trkpt lat="43.96414" lon="1.92055">
        <ele>239.2</ele>
        <time>2020-02-05T13:51:04.000Z</time>
      </trkpt>
      <trkpt lat="43.96423" lon="1.92054">
        <ele>241.4</ele>
        <time>2020-02-05T13:51:18.000Z</time>
      </trkpt>
      <trkpt lat="43.9643" lon="1.92045">
        <ele>244</ele>
        <time>2020-02-05T13:51:34.000Z</time>
      </trkpt>
      <trkpt lat="43.96435" lon="1.92034">
        <ele>245.9</ele>
        <time>2020-02-05T13:51:47.000Z</time>
      </trkpt>
      <trkpt lat="43.96441" lon="1.92023">
        <ele>251.4</ele>
        <time>2020-02-05T13:53:40.000Z</time>
      </trkpt>
      <trkpt lat="43.96449" lon="1.92015">
        <ele>251.7</ele>
        <time>2020-02-05T13:53:47.000Z</time>
      </trkpt>
      <trkpt lat="43.96458" lon="1.92012">
        <ele>252.4</ele>
        <time>2020-02-05T13:53:59.000Z</time>
      </trkpt>
      <trkpt lat="43.96468" lon="1.92013">
        <ele>253</ele>
        <time>2020-02-05T13:54:09.000Z</time>
      </trkpt>
      <trkpt lat="43.96477" lon="1.92017">
        <ele>253.6</ele>
        <time>2020-02-05T13:54:19.000Z</time>
      </trkpt>
      <trkpt lat="43.96486" lon="1.92021">
        <ele>254</ele>
        <time>2020-02-05T13:54:28.000Z</time>
      </trkpt>
      <trkpt lat="43.96495" lon="1.92025">
        <ele>254.3</ele>
        <time>2020-02-05T13:54:36.000Z</time>
      </trkpt>
      <trkpt lat="43.96504" lon="1.92029">
        <ele>254.7</ele>
        <time>2020-02-05T13:54:44.000Z</time>
      </trkpt>
      <trkpt lat="43.96514" lon="1.9203">
        <ele>255.2</ele>
        <time>2020-02-05T13:54:51.000Z</time>
      </trkpt>
      <trkpt lat="43.96524" lon="1.9203">
        <ele>255.6</ele>
        <time>2020-02-05T13:54:59.000Z</time>
      </trkpt>
      <trkpt lat="43.96533" lon="1.92028">
        <ele>256</ele>
        <time>2020-02-05T13:55:07.000Z</time>
      </trkpt>
      <trkpt lat="43.96543" lon="1.92027">
        <ele>256.4</ele>
        <time>2020-02-05T13:55:15.000Z</time>
      </trkpt>
      <trkpt lat="43.96552" lon="1.92027">
        <ele>256.6</ele>
        <time>2020-02-05T13:55:22.000Z</time>
      </trkpt>
      <trkpt lat="43.96562" lon="1.92028">
        <ele>256.8</ele>
        <time>2020-02-05T13:55:30.000Z</time>
      </trkpt>
      <trkpt lat="43.96571" lon="1.92031">
        <ele>257.2</ele>
        <time>2020-02-05T13:55:38.000Z</time>
      </trkpt>
      <trkpt lat="43.9658" lon="1.92035">
        <ele>257.6</ele>
        <time>2020-02-05T13:55:46.000Z</time>
      </trkpt>
      <trkpt lat="43.96589" lon="1.9204">
        <ele>257.8</ele>
        <time>2020-02-05T13:55:53.000Z</time>
      </trkpt>
      <trkpt lat="43.96599" lon="1.92044">
        <ele>258.2</ele>
        <time>2020-02-05T13:56:01.000Z</time>
      </trkpt>
      <trkpt lat="43.96607" lon="1.92047">
        <ele>258.6</ele>
        <time>2020-02-05T13:56:08.000Z</time>
      </trkpt>
      <trkpt lat="43.96617" lon="1.92049">
        <ele>259</ele>
        <time>2020-02-05T13:56:15.000Z</time>
      </trkpt>
      <trkpt lat="43.96627" lon="1.92049">
        <ele>259.3</ele>
        <time>2020-02-05T13:56:23.000Z</time>
      </trkpt>
      <trkpt lat="43.96636" lon="1.92047">
        <ele>259.8</ele>
        <time>2020-02-05T13:56:31.000Z</time>
      </trkpt>
      <trkpt lat="43.96645" lon="1.92044">
        <ele>260.4</ele>
        <time>2020-02-05T13:56:39.000Z</time>
      </trkpt>
      <trkpt lat="43.96655" lon="1.92042">
        <ele>260.8</ele>
        <time>2020-02-05T13:56:46.000Z</time>
      </trkpt>
      <trkpt lat="43.96665" lon="1.92038">
        <ele>261.3</ele>
        <time>2020-02-05T13:56:54.000Z</time>
      </trkpt>
      <trkpt lat="43.96674" lon="1.92034">
        <ele>261.9</ele>
        <time>2020-02-05T13:57:02.000Z</time>
      </trkpt>
      <trkpt lat="43.96684" lon="1.92031">
        <ele>262.4</ele>
        <time>2020-02-05T13:57:09.000Z</time>
      </trkpt>
      <trkpt lat="43.96692" lon="1.92025">
        <ele>262.9</ele>
        <time>2020-02-05T13:57:16.000Z</time>
      </trkpt>
      <trkpt lat="43.96701" lon="1.9202">
        <ele>263.5</ele>
        <time>2020-02-05T13:57:24.000Z</time>
      </trkpt>
      <trkpt lat="43.9671" lon="1.92015">
        <ele>264</ele>
        <time>2020-02-05T13:57:32.000Z</time>
      </trkpt>
      <trkpt lat="43.96719" lon="1.92011">
        <ele>264.5</ele>
        <time>2020-02-05T13:57:40.000Z</time>
      </trkpt>
      <trkpt lat="43.96728" lon="1.92008">
        <ele>264.9</ele>
        <time>2020-02-05T13:57:47.000Z</time>
      </trkpt>
      <trkpt lat="43.96737" lon="1.92005">
        <ele>265.4</ele>
        <time>2020-02-05T13:57:55.000Z</time>
      </trkpt>
      <trkpt lat="43.96747" lon="1.92">
        <ele>266</ele>
        <time>2020-02-05T13:58:05.000Z</time>
      </trkpt>
      <trkpt lat="43.96756" lon="1.91998">
        <ele>266.4</ele>
        <time>2020-02-05T13:58:12.000Z</time>
      </trkpt>
      <trkpt lat="43.96766" lon="1.91998">
        <ele>266.9</ele>
        <time>2020-02-05T13:58:20.000Z</time>
      </trkpt>
      <trkpt lat="43.96776" lon="1.92">
        <ele>267.4</ele>
        <time>2020-02-05T13:58:29.000Z</time>
      </trkpt>
      <trkpt lat="43.96785" lon="1.92002">
        <ele>267.7</ele>
        <time>2020-02-05T13:58:36.000Z</time>
      </trkpt>
      <trkpt lat="43.96794" lon="1.92003">
        <ele>268.2</ele>
        <time>2020-02-05T13:58:43.000Z</time>
      </trkpt>
      <trkpt lat="43.96804" lon="1.92005">
        <ele>268.8</ele>
        <time>2020-02-05T13:58:50.000Z</time>
      </trkpt>
      <trkpt lat="43.96813" lon="1.92006">
        <ele>269.2</ele>
        <time>2020-02-05T13:58:57.000Z</time>
      </trkpt>
      <trkpt lat="43.96823" lon="1.92008">
        <ele>269.9</ele>
        <time>2020-02-05T13:59:05.000Z</time>
      </trkpt>
      <trkpt lat="43.96832" lon="1.92012">
        <ele>270.5</ele>
        <time>2020-02-05T13:59:13.000Z</time>
      </trkpt>
      <trkpt lat="43.96841" lon="1.92016">
        <ele>271.2</ele>
        <time>2020-02-05T13:59:20.000Z</time>
      </trkpt>
      <trkpt lat="43.96851" lon="1.92021">
        <ele>272</ele>
        <time>2020-02-05T13:59:28.000Z</time>
      </trkpt>
      <trkpt lat="43.96859" lon="1.92027">
        <ele>272.5</ele>
        <time>2020-02-05T13:59:36.000Z</time>
      </trkpt>
      <trkpt lat="43.96868" lon="1.92031">
        <ele>273.1</ele>
        <time>2020-02-05T13:59:43.000Z</time>
      </trkpt>
      <trkpt lat="43.96877" lon="1.92035">
        <ele>273.8</ele>
        <time>2020-02-05T13:59:50.000Z</time>
      </trkpt>
      <trkpt lat="43.96886" lon="1.9204">
        <ele>274.5</ele>
        <time>2020-02-05T13:59:57.000Z</time>
      </trkpt>
      <trkpt lat="43.96895" lon="1.92048">
        <ele>275</ele>
        <time>2020-02-05T14:00:03.000Z</time>
      </trkpt>
      <trkpt lat="43.96903" lon="1.92055">
        <ele>275.8</ele>
        <time>2020-02-05T14:00:10.000Z</time>
      </trkpt>
      <trkpt lat="43.96912" lon="1.92061">
        <ele>276.5</ele>
        <time>2020-02-05T14:00:17.000Z</time>
      </trkpt>
      <trkpt lat="43.9692" lon="1.9207">
        <ele>277.3</ele>
        <time>2020-02-05T14:00:24.000Z</time>
      </trkpt>
      <trkpt lat="43.96928" lon="1.92079">
        <ele>278.1</ele>
        <time>2020-02-05T14:00:31.000Z</time>
      </trkpt>
      <trkpt lat="43.96935" lon="1.92088">
        <ele>278.8</ele>
        <time>2020-02-05T14:00:38.000Z</time>
      </trkpt>
      <trkpt lat="43.96943" lon="1.92096">
        <ele>279.7</ele>
        <time>2020-02-05T14:00:45.000Z</time>
      </trkpt>
      <trkpt lat="43.9695" lon="1.92104">
        <ele>280.6</ele>
        <time>2020-02-05T14:00:51.000Z</time>
      </trkpt>
      <trkpt lat="43.96958" lon="1.92113">
        <ele>281.1</ele>
        <time>2020-02-05T14:00:58.000Z</time>
      </trkpt>
      <trkpt lat="43.96966" lon="1.92122">
        <ele>282.1</ele>
        <time>2020-02-05T14:01:05.000Z</time>
      </trkpt>
      <trkpt lat="43.96973" lon="1.9213">
        <ele>282.8</ele>
        <time>2020-02-05T14:01:11.000Z</time>
      </trkpt>
      <trkpt lat="43.96979" lon="1.92139">
        <ele>283.8</ele>
        <time>2020-02-05T14:01:18.000Z</time>
      </trkpt>
      <trkpt lat="43.96986" lon="1.9215">
        <ele>284.6</ele>
        <time>2020-02-05T14:01:25.000Z</time>
      </trkpt>
      <trkpt lat="43.96993" lon="1.92159">
        <ele>285.6</ele>
        <time>2020-02-05T14:01:34.000Z</time>
      </trkpt>
      <trkpt lat="43.97002" lon="1.92155">
        <ele>287.4</ele>
        <time>2020-02-05T14:04:35.000Z</time>
      </trkpt>
      <trkpt lat="43.9701" lon="1.92147">
        <ele>287.8</ele>
        <time>2020-02-05T14:04:58.000Z</time>
      </trkpt>
      <trkpt lat="43.97018" lon="1.92139">
        <ele>287.9</ele>
        <time>2020-02-05T14:05:07.000Z</time>
      </trkpt>
      <trkpt lat="43.97025" lon="1.9213">
        <ele>287.9</ele>
        <time>2020-02-05T14:05:17.000Z</time>
      </trkpt>
      <trkpt lat="43.97032" lon="1.9212">
        <ele>287.8</ele>
        <time>2020-02-05T14:05:27.000Z</time>
      </trkpt>
      <trkpt lat="43.97039" lon="1.92112">
        <ele>287.8</ele>
        <time>2020-02-05T14:05:37.000Z</time>
      </trkpt>
      <trkpt lat="43.97047" lon="1.92107">
        <ele>287.7</ele>
        <time>2020-02-05T14:05:46.000Z</time>
      </trkpt>
      <trkpt lat="43.97056" lon="1.92102">
        <ele>287.6</ele>
        <time>2020-02-05T14:05:56.000Z</time>
      </trkpt>
      <trkpt lat="43.97066" lon="1.921">
        <ele>287.5</ele>
        <time>2020-02-05T14:06:04.000Z</time>
      </trkpt>
      <trkpt lat="43.97076" lon="1.92098">
        <ele>287.4</ele>
        <time>2020-02-05T14:06:11.000Z</time>
      </trkpt>
      <trkpt lat="43.97085" lon="1.92099">
        <ele>287.3</ele>
        <time>2020-02-05T14:06:19.000Z</time>
      </trkpt>
      <trkpt lat="43.97094" lon="1.92098">
        <ele>287.2</ele>
        <time>2020-02-05T14:06:27.000Z</time>
      </trkpt>
      <trkpt lat="43.97103" lon="1.92094">
        <ele>287</ele>
        <time>2020-02-05T14:06:35.000Z</time>
      </trkpt>
      <trkpt lat="43.97112" lon="1.92087">
        <ele>286.9</ele>
        <time>2020-02-05T14:06:43.000Z</time>
      </trkpt>
      <trkpt lat="43.97119" lon="1.92078">
        <ele>286.8</ele>
        <time>2020-02-05T14:06:50.000Z</time>
      </trkpt>
      <trkpt lat="43.97126" lon="1.9207">
        <ele>286.8</ele>
        <time>2020-02-05T14:06:57.000Z</time>
      </trkpt>
      <trkpt lat="43.97133" lon="1.92061">
        <ele>286.7</ele>
        <time>2020-02-05T14:07:04.000Z</time>
      </trkpt>
      <trkpt lat="43.9714" lon="1.92053">
        <ele>286.6</ele>
        <time>2020-02-05T14:07:11.000Z</time>
      </trkpt>
      <trkpt lat="43.97146" lon="1.92043">
        <ele>286.5</ele>
        <time>2020-02-05T14:07:18.000Z</time>
      </trkpt>
      <trkpt lat="43.97153" lon="1.92034">
        <ele>286.4</ele>
        <time>2020-02-05T14:07:26.000Z</time>
      </trkpt>
      <trkpt lat="43.9716" lon="1.92025">
        <ele>286.3</ele>
        <time>2020-02-05T14:07:35.000Z</time>
      </trkpt>
      <trkpt lat="43.97167" lon="1.92016">
        <ele>286.2</ele>
        <time>2020-02-05T14:07:42.000Z</time>
      </trkpt>
      <trkpt lat="43.97174" lon="1.92007">
        <ele>285.9</ele>
        <time>2020-02-05T14:07:48.000Z</time>
      </trkpt>
      <trkpt lat="43.9718" lon="1.91998">
        <ele>285.7</ele>
        <time>2020-02-05T14:07:55.000Z</time>
      </trkpt>
      <trkpt lat="43.97187" lon="1.91988">
        <ele>285.5</ele>
        <time>2020-02-05T14:08:01.000Z</time>
      </trkpt>
      <trkpt lat="43.97192" lon="1.91977">
        <ele>285.2</ele>
        <time>2020-02-05T14:08:07.000Z</time>
      </trkpt>
      <trkpt lat="43.97199" lon="1.91966">
        <ele>284.8</ele>
        <time>2020-02-05T14:08:15.000Z</time>
      </trkpt>
      <trkpt lat="43.97204" lon="1.91954">
        <ele>284.4</ele>
        <time>2020-02-05T14:08:22.000Z</time>
      </trkpt>
      <trkpt lat="43.97208" lon="1.91942">
        <ele>283.9</ele>
        <time>2020-02-05T14:08:30.000Z</time>
      </trkpt>
      <trkpt lat="43.97213" lon="1.91932">
        <ele>283.6</ele>
        <time>2020-02-05T14:08:36.000Z</time>
      </trkpt>
      <trkpt lat="43.97218" lon="1.91921">
        <ele>282.8</ele>
        <time>2020-02-05T14:08:45.000Z</time>
      </trkpt>
      <trkpt lat="43.97227" lon="1.91927">
        <ele>281.8</ele>
        <time>2020-02-05T14:09:01.000Z</time>
      </trkpt>
      <trkpt lat="43.97234" lon="1.91935">
        <ele>281.2</ele>
        <time>2020-02-05T14:09:08.000Z</time>
      </trkpt>
      <trkpt lat="43.97241" lon="1.91944">
        <ele>280.2</ele>
        <time>2020-02-05T14:09:15.000Z</time>
      </trkpt>
      <trkpt lat="43.97249" lon="1.91953">
        <ele>279.1</ele>
        <time>2020-02-05T14:09:22.000Z</time>
      </trkpt>
      <trkpt lat="43.97257" lon="1.91962">
        <ele>278.3</ele>
        <time>2020-02-05T14:09:29.000Z</time>
      </trkpt>
      <trkpt lat="43.97265" lon="1.91971">
        <ele>277.5</ele>
        <time>2020-02-05T14:09:36.000Z</time>
      </trkpt>
      <trkpt lat="43.97273" lon="1.9198">
        <ele>276.5</ele>
        <time>2020-02-05T14:09:43.000Z</time>
      </trkpt>
      <trkpt lat="43.9728" lon="1.91989">
        <ele>275.7</ele>
        <time>2020-02-05T14:09:50.000Z</time>
      </trkpt>
      <trkpt lat="43.97287" lon="1.91998">
        <ele>275</ele>
        <time>2020-02-05T14:09:57.000Z</time>
      </trkpt>
      <trkpt lat="43.97295" lon="1.92007">
        <ele>274.2</ele>
        <time>2020-02-05T14:10:04.000Z</time>
      </trkpt>
      <trkpt lat="43.97303" lon="1.92015">
        <ele>273.7</ele>
        <time>2020-02-05T14:10:11.000Z</time>
      </trkpt>
      <trkpt lat="43.9731" lon="1.92023">
        <ele>273.2</ele>
        <time>2020-02-05T14:10:18.000Z</time>
      </trkpt>
      <trkpt lat="43.97317" lon="1.92031">
        <ele>272.6</ele>
        <time>2020-02-05T14:10:25.000Z</time>
      </trkpt>
      <trkpt lat="43.97324" lon="1.92039">
        <ele>272.1</ele>
        <time>2020-02-05T14:10:32.000Z</time>
      </trkpt>
      <trkpt lat="43.97332" lon="1.92048">
        <ele>271.7</ele>
        <time>2020-02-05T14:10:39.000Z</time>
      </trkpt>
      <trkpt lat="43.97339" lon="1.92056">
        <ele>271.4</ele>
        <time>2020-02-05T14:10:45.000Z</time>
      </trkpt>
      <trkpt lat="43.97347" lon="1.92064">
        <ele>271.2</ele>
        <time>2020-02-05T14:10:52.000Z</time>
      </trkpt>
      <trkpt lat="43.97355" lon="1.92072">
        <ele>271</ele>
        <time>2020-02-05T14:10:59.000Z</time>
      </trkpt>
      <trkpt lat="43.97363" lon="1.9208">
        <ele>270.8</ele>
        <time>2020-02-05T14:11:05.000Z</time>
      </trkpt>
      <trkpt lat="43.9737" lon="1.92087">
        <ele>270.6</ele>
        <time>2020-02-05T14:11:11.000Z</time>
      </trkpt>
      <trkpt lat="43.97378" lon="1.92096">
        <ele>270.3</ele>
        <time>2020-02-05T14:11:18.000Z</time>
      </trkpt>
      <trkpt lat="43.97385" lon="1.92104">
        <ele>269.9</ele>
        <time>2020-02-05T14:11:24.000Z</time>
      </trkpt>
      <trkpt lat="43.97393" lon="1.92111">
        <ele>269.2</ele>
        <time>2020-02-05T14:11:32.000Z</time>
      </trkpt>
      <trkpt lat="43.974" lon="1.92119">
        <ele>268.6</ele>
        <time>2020-02-05T14:11:38.000Z</time>
      </trkpt>
      <trkpt lat="43.97406" lon="1.92129">
        <ele>267.7</ele>
        <time>2020-02-05T14:11:45.000Z</time>
      </trkpt>
      <trkpt lat="43.97413" lon="1.92138">
        <ele>267</ele>
        <time>2020-02-05T14:11:50.000Z</time>
      </trkpt>
      <trkpt lat="43.9742" lon="1.92145">
        <ele>266.2</ele>
        <time>2020-02-05T14:11:56.000Z</time>
      </trkpt>
      <trkpt lat="43.97427" lon="1.92154">
        <ele>265.2</ele>
        <time>2020-02-05T14:12:03.000Z</time>
      </trkpt>
      <trkpt lat="43.97433" lon="1.92164">
        <ele>264.4</ele>
        <time>2020-02-05T14:12:09.000Z</time>
      </trkpt>
      <trkpt lat="43.97441" lon="1.92173">
        <ele>263.5</ele>
        <time>2020-02-05T14:12:16.000Z</time>
      </trkpt>
      <trkpt lat="43.97448" lon="1.92182">
        <ele>262.7</ele>
        <time>2020-02-05T14:12:23.000Z</time>
      </trkpt>
      <trkpt lat="43.97458" lon="1.92188">
        <ele>261.7</ele>
        <time>2020-02-05T14:12:30.000Z</time>
      </trkpt>
      <trkpt lat="43.97465" lon="1.92198">
        <ele>260.9</ele>
        <time>2020-02-05T14:12:36.000Z</time>
      </trkpt>
      <trkpt lat="43.97473" lon="1.92207">
        <ele>260.1</ele>
        <time>2020-02-05T14:12:42.000Z</time>
      </trkpt>
      <trkpt lat="43.9748" lon="1.92217">
        <ele>259.3</ele>
        <time>2020-02-05T14:12:50.000Z</time>
      </trkpt>
      <trkpt lat="43.97489" lon="1.92224">
        <ele>258.8</ele>
        <time>2020-02-05T14:12:57.000Z</time>
      </trkpt>
      <trkpt lat="43.97497" lon="1.92234">
        <ele>258.4</ele>
        <time>2020-02-05T14:13:03.000Z</time>
      </trkpt>
      <trkpt lat="43.97505" lon="1.92243">
        <ele>257.8</ele>
        <time>2020-02-05T14:13:10.000Z</time>
      </trkpt>
      <trkpt lat="43.97512" lon="1.92251">
        <ele>257.3</ele>
        <time>2020-02-05T14:13:16.000Z</time>
      </trkpt>
      <trkpt lat="43.97519" lon="1.92259">
        <ele>257</ele>
        <time>2020-02-05T14:13:22.000Z</time>
      </trkpt>
      <trkpt lat="43.97527" lon="1.92252">
        <ele>256.5</ele>
        <time>2020-02-05T14:13:29.000Z</time>
      </trkpt>
      <trkpt lat="43.97532" lon="1.92242">
        <ele>256.1</ele>
        <time>2020-02-05T14:13:36.000Z</time>
      </trkpt>
      <trkpt lat="43.97538" lon="1.92232">
        <ele>255.7</ele>
        <time>2020-02-05T14:13:47.000Z</time>
      </trkpt>
      <trkpt lat="43.97544" lon="1.92221">
        <ele>255.6</ele>
        <time>2020-02-05T14:13:55.000Z</time>
      </trkpt>
      <trkpt lat="43.97549" lon="1.92209">
        <ele>255.4</ele>
        <time>2020-02-05T14:14:06.000Z</time>
      </trkpt>
      <trkpt lat="43.97556" lon="1.922">
        <ele>255.2</ele>
        <time>2020-02-05T14:14:18.000Z</time>
      </trkpt>
      <trkpt lat="43.97562" lon="1.92184">
        <ele>254.4</ele>
        <time>2020-02-05T14:15:39.000Z</time>
      </trkpt>
      <trkpt lat="43.97569" lon="1.92175">
        <ele>254.6</ele>
        <time>2020-02-05T14:15:47.000Z</time>
      </trkpt>
      <trkpt lat="43.97577" lon="1.92168">
        <ele>254.7</ele>
        <time>2020-02-05T14:15:55.000Z</time>
      </trkpt>
      <trkpt lat="43.97584" lon="1.92157">
        <ele>254.8</ele>
        <time>2020-02-05T14:16:01.000Z</time>
      </trkpt>
      <trkpt lat="43.9759" lon="1.92147">
        <ele>254.8</ele>
        <time>2020-02-05T14:16:09.000Z</time>
      </trkpt>
      <trkpt lat="43.97596" lon="1.92137">
        <ele>254.8</ele>
        <time>2020-02-05T14:16:16.000Z</time>
      </trkpt>
      <trkpt lat="43.97603" lon="1.92126">
        <ele>254.6</ele>
        <time>2020-02-05T14:16:23.000Z</time>
      </trkpt>
      <trkpt lat="43.97608" lon="1.92113">
        <ele>254.5</ele>
        <time>2020-02-05T14:16:28.000Z</time>
      </trkpt>
      <trkpt lat="43.97615" lon="1.92102">
        <ele>254.3</ele>
        <time>2020-02-05T14:16:35.000Z</time>
      </trkpt>
      <trkpt lat="43.97619" lon="1.92091">
        <ele>254.2</ele>
        <time>2020-02-05T14:16:41.000Z</time>
      </trkpt>
      <trkpt lat="43.97625" lon="1.9208">
        <ele>254.1</ele>
        <time>2020-02-05T14:16:48.000Z</time>
      </trkpt>
      <trkpt lat="43.9763" lon="1.92068">
        <ele>253.8</ele>
        <time>2020-02-05T14:16:55.000Z</time>
      </trkpt>
      <trkpt lat="43.97636" lon="1.92057">
        <ele>253.6</ele>
        <time>2020-02-05T14:17:02.000Z</time>
      </trkpt>
      <trkpt lat="43.97642" lon="1.92046">
        <ele>253.3</ele>
        <time>2020-02-05T14:17:10.000Z</time>
      </trkpt>
      <trkpt lat="43.97648" lon="1.92035">
        <ele>252.9</ele>
        <time>2020-02-05T14:17:17.000Z</time>
      </trkpt>
      <trkpt lat="43.97654" lon="1.92026">
        <ele>252.6</ele>
        <time>2020-02-05T14:17:24.000Z</time>
      </trkpt>
      <trkpt lat="43.9766" lon="1.92015">
        <ele>252.3</ele>
        <time>2020-02-05T14:17:31.000Z</time>
      </trkpt>
      <trkpt lat="43.97668" lon="1.92006">
        <ele>252.1</ele>
        <time>2020-02-05T14:17:39.000Z</time>
      </trkpt>
      <trkpt lat="43.97675" lon="1.91997">
        <ele>251.8</ele>
        <time>2020-02-05T14:17:46.000Z</time>
      </trkpt>
      <trkpt lat="43.97682" lon="1.91987">
        <ele>251.5</ele>
        <time>2020-02-05T14:17:54.000Z</time>
      </trkpt>
      <trkpt lat="43.9769" lon="1.91977">
        <ele>251.3</ele>
        <time>2020-02-05T14:18:02.000Z</time>
      </trkpt>
      <trkpt lat="43.97697" lon="1.91968">
        <ele>250.9</ele>
        <time>2020-02-05T14:18:09.000Z</time>
      </trkpt>
      <trkpt lat="43.97704" lon="1.9196">
        <ele>250.5</ele>
        <time>2020-02-05T14:18:17.000Z</time>
      </trkpt>
      <trkpt lat="43.97713" lon="1.91953">
        <ele>250.1</ele>
        <time>2020-02-05T14:18:27.000Z</time>
      </trkpt>
      <trkpt lat="43.9772" lon="1.91943">
        <ele>250</ele>
        <time>2020-02-05T14:18:33.000Z</time>
      </trkpt>
      <trkpt lat="43.97728" lon="1.91935">
        <ele>249.8</ele>
        <time>2020-02-05T14:18:40.000Z</time>
      </trkpt>
      <trkpt lat="43.97735" lon="1.91927">
        <ele>249.7</ele>
        <time>2020-02-05T14:18:47.000Z</time>
      </trkpt>
      <trkpt lat="43.97742" lon="1.91917">
        <ele>249.6</ele>
        <time>2020-02-05T14:18:56.000Z</time>
      </trkpt>
      <trkpt lat="43.97749" lon="1.91908">
        <ele>249.4</ele>
        <time>2020-02-05T14:19:05.000Z</time>
      </trkpt>
      <trkpt lat="43.97758" lon="1.91904">
        <ele>249.4</ele>
        <time>2020-02-05T14:19:11.000Z</time>
      </trkpt>
      <trkpt lat="43.97766" lon="1.91897">
        <ele>249</ele>
        <time>2020-02-05T14:19:19.000Z</time>
      </trkpt>
      <trkpt lat="43.97775" lon="1.91894">
        <ele>248.7</ele>
        <time>2020-02-05T14:19:26.000Z</time>
      </trkpt>
      <trkpt lat="43.97782" lon="1.91886">
        <ele>248.5</ele>
        <time>2020-02-05T14:19:34.000Z</time>
      </trkpt>
      <trkpt lat="43.97791" lon="1.91879">
        <ele>248.2</ele>
        <time>2020-02-05T14:19:42.000Z</time>
      </trkpt>
      <trkpt lat="43.978" lon="1.91874">
        <ele>248</ele>
        <time>2020-02-05T14:19:49.000Z</time>
      </trkpt>
      <trkpt lat="43.97809" lon="1.9187">
        <ele>247.9</ele>
        <time>2020-02-05T14:19:56.000Z</time>
      </trkpt>
      <trkpt lat="43.97818" lon="1.91865">
        <ele>247.7</ele>
        <time>2020-02-05T14:20:02.000Z</time>
      </trkpt>
      <trkpt lat="43.97827" lon="1.9186">
        <ele>247.4</ele>
        <time>2020-02-05T14:20:10.000Z</time>
      </trkpt>
      <trkpt lat="43.97836" lon="1.91857">
        <ele>247.1</ele>
        <time>2020-02-05T14:20:17.000Z</time>
      </trkpt>
      <trkpt lat="43.97846" lon="1.91855">
        <ele>246.7</ele>
        <time>2020-02-05T14:20:25.000Z</time>
      </trkpt>
      <trkpt lat="43.97855" lon="1.91851">
        <ele>246.1</ele>
        <time>2020-02-05T14:20:33.000Z</time>
      </trkpt>
      <trkpt lat="43.97864" lon="1.91847">
        <ele>245.7</ele>
        <time>2020-02-05T14:20:40.000Z</time>
      </trkpt>
      <trkpt lat="43.97873" lon="1.91844">
        <ele>245.4</ele>
        <time>2020-02-05T14:20:47.000Z</time>
      </trkpt>
      <trkpt lat="43.97882" lon="1.91837">
        <ele>244.9</ele>
        <time>2020-02-05T14:20:55.000Z</time>
      </trkpt>
      <trkpt lat="43.97891" lon="1.91831">
        <ele>244.4</ele>
        <time>2020-02-05T14:21:02.000Z</time>
      </trkpt>
      <trkpt lat="43.979" lon="1.91825">
        <ele>243.8</ele>
        <time>2020-02-05T14:21:11.000Z</time>
      </trkpt>
      <trkpt lat="43.97907" lon="1.91816">
        <ele>243.4</ele>
        <time>2020-02-05T14:21:16.000Z</time>
      </trkpt>
      <trkpt lat="43.97914" lon="1.91808">
        <ele>243</ele>
        <time>2020-02-05T14:21:22.000Z</time>
      </trkpt>
      <trkpt lat="43.97923" lon="1.91802">
        <ele>242.2</ele>
        <time>2020-02-05T14:21:32.000Z</time>
      </trkpt>
      <trkpt lat="43.97933" lon="1.91801">
        <ele>241.5</ele>
        <time>2020-02-05T14:21:40.000Z</time>
      </trkpt>
      <trkpt lat="43.97943" lon="1.91802">
        <ele>240.7</ele>
        <time>2020-02-05T14:21:50.000Z</time>
      </trkpt>
      <trkpt lat="43.97952" lon="1.91796">
        <ele>240.1</ele>
        <time>2020-02-05T14:21:58.000Z</time>
      </trkpt>
      <trkpt lat="43.97959" lon="1.91787">
        <ele>239.7</ele>
        <time>2020-02-05T14:22:04.000Z</time>
      </trkpt>
      <trkpt lat="43.97966" lon="1.91778">
        <ele>239.3</ele>
        <time>2020-02-05T14:22:10.000Z</time>
      </trkpt>
      <trkpt lat="43.97972" lon="1.91769">
        <ele>239</ele>
        <time>2020-02-05T14:22:15.000Z</time>
      </trkpt>
      <trkpt lat="43.97979" lon="1.9176">
        <ele>238.4</ele>
        <time>2020-02-05T14:22:23.000Z</time>
      </trkpt>
      <trkpt lat="43.97987" lon="1.91756">
        <ele>237.7</ele>
        <time>2020-02-05T14:22:33.000Z</time>
      </trkpt>
      <trkpt lat="43.97995" lon="1.91749">
        <ele>237.2</ele>
        <time>2020-02-05T14:22:42.000Z</time>
      </trkpt>
      <trkpt lat="43.98004" lon="1.91742">
        <ele>236.4</ele>
        <time>2020-02-05T14:22:50.000Z</time>
      </trkpt>
      <trkpt lat="43.98013" lon="1.91737">
        <ele>235.8</ele>
        <time>2020-02-05T14:22:57.000Z</time>
      </trkpt>
      <trkpt lat="43.98023" lon="1.91734">
        <ele>235.2</ele>
        <time>2020-02-05T14:23:05.000Z</time>
      </trkpt>
      <trkpt lat="43.98032" lon="1.91732">
        <ele>234.3</ele>
        <time>2020-02-05T14:23:13.000Z</time>
      </trkpt>
      <trkpt lat="43.98042" lon="1.91726">
        <ele>233.2</ele>
        <time>2020-02-05T14:23:21.000Z</time>
      </trkpt>
      <trkpt lat="43.9805" lon="1.91719">
        <ele>232.4</ele>
        <time>2020-02-05T14:23:26.000Z</time>
      </trkpt>
      <trkpt lat="43.98059" lon="1.91713">
        <ele>231.1</ele>
        <time>2020-02-05T14:23:32.000Z</time>
      </trkpt>
      <trkpt lat="43.98068" lon="1.91705">
        <ele>230</ele>
        <time>2020-02-05T14:23:38.000Z</time>
      </trkpt>
      <trkpt lat="43.98073" lon="1.91692">
        <ele>228</ele>
        <time>2020-02-05T14:23:47.000Z</time>
      </trkpt>
      <trkpt lat="43.98078" lon="1.91681">
        <ele>226.6</ele>
        <time>2020-02-05T14:23:54.000Z</time>
      </trkpt>
      <trkpt lat="43.98083" lon="1.9167">
        <ele>225.6</ele>
        <time>2020-02-05T14:24:00.000Z</time>
      </trkpt>
      <trkpt lat="43.98087" lon="1.91658">
        <ele>224.6</ele>
        <time>2020-02-05T14:24:07.000Z</time>
      </trkpt>
      <trkpt lat="43.9809" lon="1.91645">
        <ele>223.6</ele>
        <time>2020-02-05T14:24:14.000Z</time>
      </trkpt>
      <trkpt lat="43.98094" lon="1.91632">
        <ele>222.7</ele>
        <time>2020-02-05T14:24:21.000Z</time>
      </trkpt>
      <trkpt lat="43.98098" lon="1.9162">
        <ele>221.9</ele>
        <time>2020-02-05T14:24:28.000Z</time>
      </trkpt>
      <trkpt lat="43.98102" lon="1.91607">
        <ele>221.2</ele>
        <time>2020-02-05T14:24:34.000Z</time>
      </trkpt>
      <trkpt lat="43.98103" lon="1.91595">
        <ele>220.7</ele>
        <time>2020-02-05T14:24:40.000Z</time>
      </trkpt>
      <trkpt lat="43.98106" lon="1.91582">
        <ele>220.1</ele>
        <time>2020-02-05T14:24:46.000Z</time>
      </trkpt>
      <trkpt lat="43.98107" lon="1.91569">
        <ele>219.6</ele>
        <time>2020-02-05T14:24:54.000Z</time>
      </trkpt>
      <trkpt lat="43.98107" lon="1.91556">
        <ele>219.2</ele>
        <time>2020-02-05T14:25:00.000Z</time>
      </trkpt>
      <trkpt lat="43.98107" lon="1.91543">
        <ele>218.7</ele>
        <time>2020-02-05T14:25:08.000Z</time>
      </trkpt>
      <trkpt lat="43.98108" lon="1.91529">
        <ele>218.3</ele>
        <time>2020-02-05T14:25:16.000Z</time>
      </trkpt>
      <trkpt lat="43.98111" lon="1.91516">
        <ele>218.1</ele>
        <time>2020-02-05T14:25:23.000Z</time>
      </trkpt>
      <trkpt lat="43.98115" lon="1.91504">
        <ele>217.9</ele>
        <time>2020-02-05T14:25:30.000Z</time>
      </trkpt>
      <trkpt lat="43.9812" lon="1.91493">
        <ele>217.7</ele>
        <time>2020-02-05T14:25:36.000Z</time>
      </trkpt>
      <trkpt lat="43.98118" lon="1.91481">
        <ele>217.2</ele>
        <time>2020-02-05T14:25:45.000Z</time>
      </trkpt>
      <trkpt lat="43.98124" lon="1.91469">
        <ele>216.8</ele>
        <time>2020-02-05T14:25:52.000Z</time>
      </trkpt>
      <trkpt lat="43.98127" lon="1.91455">
        <ele>216.4</ele>
        <time>2020-02-05T14:26:01.000Z</time>
      </trkpt>
      <trkpt lat="43.9813" lon="1.91443">
        <ele>216.1</ele>
        <time>2020-02-05T14:26:09.000Z</time>
      </trkpt>
      <trkpt lat="43.98134" lon="1.9143">
        <ele>215.8</ele>
        <time>2020-02-05T14:26:15.000Z</time>
      </trkpt>
      <trkpt lat="43.98136" lon="1.91418">
        <ele>215.5</ele>
        <time>2020-02-05T14:26:23.000Z</time>
      </trkpt>
      <trkpt lat="43.98141" lon="1.91405">
        <ele>215.2</ele>
        <time>2020-02-05T14:26:32.000Z</time>
      </trkpt>
      <trkpt lat="43.98141" lon="1.9139">
        <ele>214.9</ele>
        <time>2020-02-05T14:26:40.000Z</time>
      </trkpt>
      <trkpt lat="43.98142" lon="1.91377">
        <ele>214.7</ele>
        <time>2020-02-05T14:26:48.000Z</time>
      </trkpt>
      <trkpt lat="43.98146" lon="1.91365">
        <ele>214.5</ele>
        <time>2020-02-05T14:26:55.000Z</time>
      </trkpt>
      <trkpt lat="43.98146" lon="1.91351">
        <ele>214.3</ele>
        <time>2020-02-05T14:27:02.000Z</time>
      </trkpt>
      <trkpt lat="43.98147" lon="1.91338">
        <ele>214.2</ele>
        <time>2020-02-05T14:27:09.000Z</time>
      </trkpt>
      <trkpt lat="43.98146" lon="1.91325">
        <ele>214.5</ele>
        <time>2020-02-05T14:27:20.000Z</time>
      </trkpt>
      <trkpt lat="43.98143" lon="1.91312">
        <ele>214.7</ele>
        <time>2020-02-05T14:27:31.000Z</time>
      </trkpt>
      <trkpt lat="43.98145" lon="1.91298">
        <ele>215.4</ele>
        <time>2020-02-05T14:27:40.000Z</time>
      </trkpt>
      <trkpt lat="43.98147" lon="1.91285">
        <ele>215.8</ele>
        <time>2020-02-05T14:27:47.000Z</time>
      </trkpt>
      <trkpt lat="43.98152" lon="1.91274">
        <ele>216.3</ele>
        <time>2020-02-05T14:27:54.000Z</time>
      </trkpt>
      <trkpt lat="43.98154" lon="1.91261">
        <ele>216.7</ele>
        <time>2020-02-05T14:27:58.000Z</time>
      </trkpt>
      <trkpt lat="43.98161" lon="1.91252">
        <ele>217</ele>
        <time>2020-02-05T14:28:05.000Z</time>
      </trkpt>
      <trkpt lat="43.98169" lon="1.91245">
        <ele>217.3</ele>
        <time>2020-02-05T14:28:15.000Z</time>
      </trkpt>
      <trkpt lat="43.98177" lon="1.91236">
        <ele>217.4</ele>
        <time>2020-02-05T14:28:24.000Z</time>
      </trkpt>
      <trkpt lat="43.98185" lon="1.91227">
        <ele>217.4</ele>
        <time>2020-02-05T14:28:30.000Z</time>
      </trkpt>
      <trkpt lat="43.98192" lon="1.91218">
        <ele>217.4</ele>
        <time>2020-02-05T14:28:35.000Z</time>
      </trkpt>
      <trkpt lat="43.982" lon="1.91208">
        <ele>217.3</ele>
        <time>2020-02-05T14:28:41.000Z</time>
      </trkpt>
      <trkpt lat="43.98209" lon="1.91202">
        <ele>217.2</ele>
        <time>2020-02-05T14:28:49.000Z</time>
      </trkpt>
      <trkpt lat="43.98217" lon="1.91195">
        <ele>217.2</ele>
        <time>2020-02-05T14:28:57.000Z</time>
      </trkpt>
      <trkpt lat="43.98227" lon="1.91194">
        <ele>217.2</ele>
        <time>2020-02-05T14:29:05.000Z</time>
      </trkpt>
      <trkpt lat="43.98236" lon="1.91188">
        <ele>217.6</ele>
        <time>2020-02-05T14:29:15.000Z</time>
      </trkpt>
      <trkpt lat="43.98242" lon="1.91176">
        <ele>217.9</ele>
        <time>2020-02-05T14:29:21.000Z</time>
      </trkpt>
      <trkpt lat="43.98247" lon="1.91163">
        <ele>218.3</ele>
        <time>2020-02-05T14:29:27.000Z</time>
      </trkpt>
      <trkpt lat="43.9825" lon="1.91151">
        <ele>218.5</ele>
        <time>2020-02-05T14:29:32.000Z</time>
      </trkpt>
      <trkpt lat="43.9826" lon="1.91153">
        <ele>218.9</ele>
        <time>2020-02-05T14:29:38.000Z</time>
      </trkpt>
      <trkpt lat="43.9827" lon="1.91152">
        <ele>219.2</ele>
        <time>2020-02-05T14:29:46.000Z</time>
      </trkpt>
      <trkpt lat="43.9828" lon="1.91146">
        <ele>219.6</ele>
        <time>2020-02-05T14:29:54.000Z</time>
      </trkpt>
      <trkpt lat="43.98288" lon="1.91134">
        <ele>219.9</ele>
        <time>2020-02-05T14:29:59.000Z</time>
      </trkpt>
      <trkpt lat="43.98295" lon="1.91127">
        <ele>220.1</ele>
        <time>2020-02-05T14:30:03.000Z</time>
      </trkpt>
      <trkpt lat="43.98305" lon="1.91125">
        <ele>220.2</ele>
        <time>2020-02-05T14:30:10.000Z</time>
      </trkpt>
      <trkpt lat="43.9831" lon="1.91115">
        <ele>220.6</ele>
        <time>2020-02-05T14:30:21.000Z</time>
      </trkpt>
      <trkpt lat="43.98309" lon="1.91103">
        <ele>221.1</ele>
        <time>2020-02-05T14:30:30.000Z</time>
      </trkpt>
      <trkpt lat="43.98307" lon="1.9109">
        <ele>221.6</ele>
        <time>2020-02-05T14:30:38.000Z</time>
      </trkpt>
      <trkpt lat="43.98304" lon="1.91077">
        <ele>222.4</ele>
        <time>2020-02-05T14:30:50.000Z</time>
      </trkpt>
      <trkpt lat="43.98295" lon="1.91074">
        <ele>223</ele>
        <time>2020-02-05T14:31:01.000Z</time>
      </trkpt>
      <trkpt lat="43.98286" lon="1.91073">
        <ele>223.6</ele>
        <time>2020-02-05T14:31:10.000Z</time>
      </trkpt>
      <trkpt lat="43.98278" lon="1.91081">
        <ele>224.3</ele>
        <time>2020-02-05T14:31:17.000Z</time>
      </trkpt>
      <trkpt lat="43.9827" lon="1.91091">
        <ele>225.6</ele>
        <time>2020-02-05T14:31:26.000Z</time>
      </trkpt>
      <trkpt lat="43.98262" lon="1.91095">
        <ele>226.5</ele>
        <time>2020-02-05T14:31:33.000Z</time>
      </trkpt>
      <trkpt lat="43.98253" lon="1.911">
        <ele>227.6</ele>
        <time>2020-02-05T14:31:48.000Z</time>
      </trkpt>
      <trkpt lat="43.98246" lon="1.91103">
        <ele>227.9</ele>
        <time>2020-02-05T14:33:07.000Z</time>
      </trkpt>
    </trkseg>
  </trk>
</gpx>